<?xml version="1.0" encoding="UTF-8" standalone="no" ?>
<gpx xmlns="http://www.topografix.com/GPX/1/1" xmlns:xsi="http://www.w3.org/2001/XMLSchema-instance" xsi:schemaLocation="http://www.topografix.com/GPX/1/1 http://www.topografix.com/GPX/1/1/gpx.xsd" version="1.1" creator="VisuGPX - https://www.visugpx.com">
  <metadata>
    <name>VTT dans le Vercors, jour 3</name>
    <desc><![CDATA[Tour en VTT dans le Vercors, jour 3]]></desc>
  </metadata>
  <trk>
    <name><![CDATA[2016-06-01 08:58:47 Jour]]></name>
    <trkseg>
      <trkpt lat="44.94841" lon="5.3233">
        <ele>1015.76</ele>
        <time>2016-06-01T06:58:47Z</time>
      </trkpt>
      <trkpt lat="44.94843" lon="5.32329">
        <ele>1015.76</ele>
        <time>2016-06-01T06:58:48Z</time>
      </trkpt>
      <trkpt lat="44.94861" lon="5.32312">
        <ele>1053.78</ele>
        <time>2016-06-01T06:59:05Z</time>
      </trkpt>
      <trkpt lat="44.94861" lon="5.32312">
        <ele>1053.78</ele>
        <time>2016-06-01T06:59:06Z</time>
      </trkpt>
      <trkpt lat="44.94863" lon="5.32316">
        <ele>1053.44</ele>
        <time>2016-06-01T06:59:36Z</time>
      </trkpt>
      <trkpt lat="44.94862" lon="5.32314">
        <ele>1053.84</ele>
        <time>2016-06-01T07:00:05Z</time>
      </trkpt>
      <trkpt lat="44.94864" lon="5.32315">
        <ele>1053.66</ele>
        <time>2016-06-01T07:00:52Z</time>
      </trkpt>
      <trkpt lat="44.94863" lon="5.32316">
        <ele>1053.82</ele>
        <time>2016-06-01T07:02:11Z</time>
      </trkpt>
      <trkpt lat="44.94862" lon="5.32315">
        <ele>1053.71</ele>
        <time>2016-06-01T07:03:10Z</time>
      </trkpt>
      <trkpt lat="44.94861" lon="5.32316">
        <ele>1053.67</ele>
        <time>2016-06-01T07:04:14Z</time>
      </trkpt>
      <trkpt lat="44.94861" lon="5.32317">
        <ele>1054.25</ele>
        <time>2016-06-01T07:05:07Z</time>
      </trkpt>
      <trkpt lat="44.94861" lon="5.32317">
        <ele>1055.16</ele>
        <time>2016-06-01T07:05:24Z</time>
      </trkpt>
      <trkpt lat="44.94861" lon="5.32318">
        <ele>1055.16</ele>
        <time>2016-06-01T07:05:47Z</time>
      </trkpt>
      <trkpt lat="44.94862" lon="5.32317">
        <ele>1054.98</ele>
        <time>2016-06-01T07:06:08Z</time>
      </trkpt>
      <trkpt lat="44.94862" lon="5.32317">
        <ele>1055.06</ele>
        <time>2016-06-01T07:06:28Z</time>
      </trkpt>
      <trkpt lat="44.94862" lon="5.32317">
        <ele>1055.22</ele>
        <time>2016-06-01T07:06:42Z</time>
      </trkpt>
      <trkpt lat="44.94863" lon="5.32326">
        <ele>1055.45</ele>
        <time>2016-06-01T07:06:47Z</time>
      </trkpt>
      <trkpt lat="44.94858" lon="5.3238">
        <ele>1054.77</ele>
        <time>2016-06-01T07:07:01Z</time>
      </trkpt>
      <trkpt lat="44.94864" lon="5.32418">
        <ele>1055.21</ele>
        <time>2016-06-01T07:07:16Z</time>
      </trkpt>
      <trkpt lat="44.94872" lon="5.32456">
        <ele>1056.79</ele>
        <time>2016-06-01T07:07:32Z</time>
      </trkpt>
      <trkpt lat="44.94874" lon="5.32489">
        <ele>1058.79</ele>
        <time>2016-06-01T07:07:48Z</time>
      </trkpt>
      <trkpt lat="44.94867" lon="5.325">
        <ele>1059.86</ele>
        <time>2016-06-01T07:07:57Z</time>
      </trkpt>
      <trkpt lat="44.94851" lon="5.32514">
        <ele>1061.73</ele>
        <time>2016-06-01T07:08:13Z</time>
      </trkpt>
      <trkpt lat="44.94849" lon="5.32517">
        <ele>1062.04</ele>
        <time>2016-06-01T07:08:16Z</time>
      </trkpt>
      <trkpt lat="44.94847" lon="5.32518">
        <ele>1062.33</ele>
        <time>2016-06-01T07:08:18Z</time>
      </trkpt>
      <trkpt lat="44.94823" lon="5.32514">
        <ele>1064.42</ele>
        <time>2016-06-01T07:08:34Z</time>
      </trkpt>
      <trkpt lat="44.948" lon="5.32514">
        <ele>1066.16</ele>
        <time>2016-06-01T07:08:49Z</time>
      </trkpt>
      <trkpt lat="44.94779" lon="5.3252">
        <ele>1068.71</ele>
        <time>2016-06-01T07:09:04Z</time>
      </trkpt>
      <trkpt lat="44.94778" lon="5.3252">
        <ele>1068.92</ele>
        <time>2016-06-01T07:09:05Z</time>
      </trkpt>
      <trkpt lat="44.94764" lon="5.32531">
        <ele>1071.59</ele>
        <time>2016-06-01T07:09:19Z</time>
      </trkpt>
      <trkpt lat="44.94755" lon="5.32547">
        <ele>1074.01</ele>
        <time>2016-06-01T07:09:30Z</time>
      </trkpt>
      <trkpt lat="44.94754" lon="5.32553">
        <ele>1074.43</ele>
        <time>2016-06-01T07:09:33Z</time>
      </trkpt>
      <trkpt lat="44.94756" lon="5.32562">
        <ele>1075.27</ele>
        <time>2016-06-01T07:09:38Z</time>
      </trkpt>
      <trkpt lat="44.94759" lon="5.32574">
        <ele>1076.33</ele>
        <time>2016-06-01T07:09:45Z</time>
      </trkpt>
      <trkpt lat="44.9476" lon="5.32585">
        <ele>1077.99</ele>
        <time>2016-06-01T07:10:01Z</time>
      </trkpt>
      <trkpt lat="44.94756" lon="5.32585">
        <ele>1078.32</ele>
        <time>2016-06-01T07:10:53Z</time>
      </trkpt>
      <trkpt lat="44.94756" lon="5.32584">
        <ele>1078.11</ele>
        <time>2016-06-01T07:11:34Z</time>
      </trkpt>
      <trkpt lat="44.94757" lon="5.32585">
        <ele>1078.08</ele>
        <time>2016-06-01T07:12:12Z</time>
      </trkpt>
      <trkpt lat="44.94753" lon="5.32584">
        <ele>1078.45</ele>
        <time>2016-06-01T07:12:56Z</time>
      </trkpt>
      <trkpt lat="44.94731" lon="5.32583">
        <ele>1078.54</ele>
        <time>2016-06-01T07:13:10Z</time>
      </trkpt>
      <trkpt lat="44.94709" lon="5.32594">
        <ele>1078.98</ele>
        <time>2016-06-01T07:13:23Z</time>
      </trkpt>
      <trkpt lat="44.94701" lon="5.32596">
        <ele>1079.24</ele>
        <time>2016-06-01T07:13:27Z</time>
      </trkpt>
      <trkpt lat="44.94694" lon="5.32599">
        <ele>1079.57</ele>
        <time>2016-06-01T07:13:31Z</time>
      </trkpt>
      <trkpt lat="44.94683" lon="5.32613">
        <ele>1080.11</ele>
        <time>2016-06-01T07:13:39Z</time>
      </trkpt>
      <trkpt lat="44.94679" lon="5.32615">
        <ele>1080.32</ele>
        <time>2016-06-01T07:13:42Z</time>
      </trkpt>
      <trkpt lat="44.9467" lon="5.32618">
        <ele>1080.25</ele>
        <time>2016-06-01T07:13:47Z</time>
      </trkpt>
      <trkpt lat="44.94654" lon="5.32631">
        <ele>1080.3</ele>
        <time>2016-06-01T07:13:59Z</time>
      </trkpt>
      <trkpt lat="44.94649" lon="5.32634">
        <ele>1080.69</ele>
        <time>2016-06-01T07:14:04Z</time>
      </trkpt>
      <trkpt lat="44.94634" lon="5.32654">
        <ele>1081.9</ele>
        <time>2016-06-01T07:14:22Z</time>
      </trkpt>
      <trkpt lat="44.94631" lon="5.32664">
        <ele>1083.24</ele>
        <time>2016-06-01T07:14:42Z</time>
      </trkpt>
      <trkpt lat="44.94631" lon="5.32663">
        <ele>1083.57</ele>
        <time>2016-06-01T07:14:50Z</time>
      </trkpt>
      <trkpt lat="44.94628" lon="5.32669">
        <ele>1083.75</ele>
        <time>2016-06-01T07:14:55Z</time>
      </trkpt>
      <trkpt lat="44.94611" lon="5.3268">
        <ele>1084.32</ele>
        <time>2016-06-01T07:15:15Z</time>
      </trkpt>
      <trkpt lat="44.94595" lon="5.32684">
        <ele>1083.5</ele>
        <time>2016-06-01T07:15:33Z</time>
      </trkpt>
      <trkpt lat="44.94589" lon="5.32684">
        <ele>1083</ele>
        <time>2016-06-01T07:15:38Z</time>
      </trkpt>
      <trkpt lat="44.94576" lon="5.32689">
        <ele>1081.94</ele>
        <time>2016-06-01T07:15:50Z</time>
      </trkpt>
      <trkpt lat="44.94557" lon="5.32696">
        <ele>1080.15</ele>
        <time>2016-06-01T07:16:05Z</time>
      </trkpt>
      <trkpt lat="44.94552" lon="5.327">
        <ele>1079.9</ele>
        <time>2016-06-01T07:16:10Z</time>
      </trkpt>
      <trkpt lat="44.94545" lon="5.32704">
        <ele>1079.7</ele>
        <time>2016-06-01T07:16:15Z</time>
      </trkpt>
      <trkpt lat="44.94525" lon="5.32709">
        <ele>1077.05</ele>
        <time>2016-06-01T07:16:29Z</time>
      </trkpt>
      <trkpt lat="44.94508" lon="5.32723">
        <ele>1075.68</ele>
        <time>2016-06-01T07:16:44Z</time>
      </trkpt>
      <trkpt lat="44.94495" lon="5.32724">
        <ele>1072.71</ele>
        <time>2016-06-01T07:16:58Z</time>
      </trkpt>
      <trkpt lat="44.94489" lon="5.32711">
        <ele>1070.79</ele>
        <time>2016-06-01T07:17:15Z</time>
      </trkpt>
      <trkpt lat="44.94486" lon="5.32709">
        <ele>1070.49</ele>
        <time>2016-06-01T07:17:17Z</time>
      </trkpt>
      <trkpt lat="44.94464" lon="5.32699">
        <ele>1067.41</ele>
        <time>2016-06-01T07:17:35Z</time>
      </trkpt>
      <trkpt lat="44.94444" lon="5.32693">
        <ele>1066.29</ele>
        <time>2016-06-01T07:17:53Z</time>
      </trkpt>
      <trkpt lat="44.94431" lon="5.32683">
        <ele>1065.43</ele>
        <time>2016-06-01T07:18:11Z</time>
      </trkpt>
      <trkpt lat="44.94425" lon="5.32679">
        <ele>1065.28</ele>
        <time>2016-06-01T07:18:18Z</time>
      </trkpt>
      <trkpt lat="44.94418" lon="5.32667">
        <ele>1064.31</ele>
        <time>2016-06-01T07:18:38Z</time>
      </trkpt>
      <trkpt lat="44.94414" lon="5.32658">
        <ele>1063.89</ele>
        <time>2016-06-01T07:18:57Z</time>
      </trkpt>
      <trkpt lat="44.94405" lon="5.32657">
        <ele>1064.66</ele>
        <time>2016-06-01T07:19:17Z</time>
      </trkpt>
      <trkpt lat="44.94389" lon="5.32651">
        <ele>1066.2</ele>
        <time>2016-06-01T07:19:37Z</time>
      </trkpt>
      <trkpt lat="44.94383" lon="5.32642">
        <ele>1067.16</ele>
        <time>2016-06-01T07:19:55Z</time>
      </trkpt>
      <trkpt lat="44.94379" lon="5.32622">
        <ele>1068.5</ele>
        <time>2016-06-01T07:20:14Z</time>
      </trkpt>
      <trkpt lat="44.94376" lon="5.32616">
        <ele>1068.67</ele>
        <time>2016-06-01T07:20:35Z</time>
      </trkpt>
      <trkpt lat="44.94369" lon="5.3261">
        <ele>1068.77</ele>
        <time>2016-06-01T07:20:44Z</time>
      </trkpt>
      <trkpt lat="44.94365" lon="5.32603">
        <ele>1068.9</ele>
        <time>2016-06-01T07:20:48Z</time>
      </trkpt>
      <trkpt lat="44.94356" lon="5.3259">
        <ele>1069.96</ele>
        <time>2016-06-01T07:21:00Z</time>
      </trkpt>
      <trkpt lat="44.94342" lon="5.32584">
        <ele>1072.09</ele>
        <time>2016-06-01T07:21:19Z</time>
      </trkpt>
      <trkpt lat="44.94329" lon="5.32576">
        <ele>1074.12</ele>
        <time>2016-06-01T07:21:37Z</time>
      </trkpt>
      <trkpt lat="44.94323" lon="5.32571">
        <ele>1074.78</ele>
        <time>2016-06-01T07:21:45Z</time>
      </trkpt>
      <trkpt lat="44.94313" lon="5.32549">
        <ele>1075.86</ele>
        <time>2016-06-01T07:21:57Z</time>
      </trkpt>
      <trkpt lat="44.943" lon="5.32537">
        <ele>1077.35</ele>
        <time>2016-06-01T07:22:05Z</time>
      </trkpt>
      <trkpt lat="44.94271" lon="5.32517">
        <ele>1080.28</ele>
        <time>2016-06-01T07:22:20Z</time>
      </trkpt>
      <trkpt lat="44.9426" lon="5.32509">
        <ele>1081.35</ele>
        <time>2016-06-01T07:22:27Z</time>
      </trkpt>
      <trkpt lat="44.94246" lon="5.32497">
        <ele>1083.6</ele>
        <time>2016-06-01T07:22:41Z</time>
      </trkpt>
      <trkpt lat="44.94242" lon="5.32494">
        <ele>1084.19</ele>
        <time>2016-06-01T07:22:45Z</time>
      </trkpt>
      <trkpt lat="44.94228" lon="5.32481">
        <ele>1085.85</ele>
        <time>2016-06-01T07:22:59Z</time>
      </trkpt>
      <trkpt lat="44.94224" lon="5.32479">
        <ele>1086.11</ele>
        <time>2016-06-01T07:23:02Z</time>
      </trkpt>
      <trkpt lat="44.94211" lon="5.32471">
        <ele>1087.52</ele>
        <time>2016-06-01T07:23:16Z</time>
      </trkpt>
      <trkpt lat="44.94195" lon="5.32457">
        <ele>1088.71</ele>
        <time>2016-06-01T07:23:35Z</time>
      </trkpt>
      <trkpt lat="44.94189" lon="5.32449">
        <ele>1089.19</ele>
        <time>2016-06-01T07:23:51Z</time>
      </trkpt>
      <trkpt lat="44.94176" lon="5.32438">
        <ele>1090.28</ele>
        <time>2016-06-01T07:24:14Z</time>
      </trkpt>
      <trkpt lat="44.94175" lon="5.32438">
        <ele>1090.37</ele>
        <time>2016-06-01T07:24:16Z</time>
      </trkpt>
      <trkpt lat="44.94157" lon="5.32441">
        <ele>1092.54</ele>
        <time>2016-06-01T07:24:40Z</time>
      </trkpt>
      <trkpt lat="44.9414" lon="5.32437">
        <ele>1095.58</ele>
        <time>2016-06-01T07:25:02Z</time>
      </trkpt>
      <trkpt lat="44.94134" lon="5.32436">
        <ele>1096.57</ele>
        <time>2016-06-01T07:25:16Z</time>
      </trkpt>
      <trkpt lat="44.94126" lon="5.32429">
        <ele>1097.05</ele>
        <time>2016-06-01T07:25:32Z</time>
      </trkpt>
      <trkpt lat="44.94118" lon="5.32422">
        <ele>1097.43</ele>
        <time>2016-06-01T07:25:38Z</time>
      </trkpt>
      <trkpt lat="44.94109" lon="5.32414">
        <ele>1097.72</ele>
        <time>2016-06-01T07:25:43Z</time>
      </trkpt>
      <trkpt lat="44.9409" lon="5.32395">
        <ele>1098.28</ele>
        <time>2016-06-01T07:25:55Z</time>
      </trkpt>
      <trkpt lat="44.94077" lon="5.32374">
        <ele>1099.52</ele>
        <time>2016-06-01T07:26:06Z</time>
      </trkpt>
      <trkpt lat="44.94073" lon="5.32369">
        <ele>1099.69</ele>
        <time>2016-06-01T07:26:09Z</time>
      </trkpt>
      <trkpt lat="44.94056" lon="5.32355">
        <ele>1100.34</ele>
        <time>2016-06-01T07:26:23Z</time>
      </trkpt>
      <trkpt lat="44.94045" lon="5.3235">
        <ele>1102.28</ele>
        <time>2016-06-01T07:26:44Z</time>
      </trkpt>
      <trkpt lat="44.94034" lon="5.32342">
        <ele>1102.89</ele>
        <time>2016-06-01T07:27:05Z</time>
      </trkpt>
      <trkpt lat="44.94033" lon="5.32341">
        <ele>1102.92</ele>
        <time>2016-06-01T07:27:06Z</time>
      </trkpt>
      <trkpt lat="44.94027" lon="5.32339">
        <ele>1102.97</ele>
        <time>2016-06-01T07:27:09Z</time>
      </trkpt>
      <trkpt lat="44.94007" lon="5.32324">
        <ele>1103.19</ele>
        <time>2016-06-01T07:27:23Z</time>
      </trkpt>
      <trkpt lat="44.93988" lon="5.32303">
        <ele>1101.92</ele>
        <time>2016-06-01T07:27:36Z</time>
      </trkpt>
      <trkpt lat="44.93987" lon="5.32302">
        <ele>1101.89</ele>
        <time>2016-06-01T07:27:37Z</time>
      </trkpt>
      <trkpt lat="44.93978" lon="5.32298">
        <ele>1102.12</ele>
        <time>2016-06-01T07:27:43Z</time>
      </trkpt>
      <trkpt lat="44.93964" lon="5.32282">
        <ele>1102.05</ele>
        <time>2016-06-01T07:27:53Z</time>
      </trkpt>
      <trkpt lat="44.93947" lon="5.3227">
        <ele>1100.92</ele>
        <time>2016-06-01T07:28:03Z</time>
      </trkpt>
      <trkpt lat="44.93926" lon="5.32262">
        <ele>1099.52</ele>
        <time>2016-06-01T07:28:15Z</time>
      </trkpt>
      <trkpt lat="44.93922" lon="5.3226">
        <ele>1099.25</ele>
        <time>2016-06-01T07:28:17Z</time>
      </trkpt>
      <trkpt lat="44.93906" lon="5.32258">
        <ele>1097.75</ele>
        <time>2016-06-01T07:28:26Z</time>
      </trkpt>
      <trkpt lat="44.93897" lon="5.3225">
        <ele>1096.88</ele>
        <time>2016-06-01T07:28:31Z</time>
      </trkpt>
      <trkpt lat="44.93872" lon="5.32245">
        <ele>1096.19</ele>
        <time>2016-06-01T07:28:43Z</time>
      </trkpt>
      <trkpt lat="44.93842" lon="5.32231">
        <ele>1095.5</ele>
        <time>2016-06-01T07:28:56Z</time>
      </trkpt>
      <trkpt lat="44.93828" lon="5.32228">
        <ele>1095.41</ele>
        <time>2016-06-01T07:29:02Z</time>
      </trkpt>
      <trkpt lat="44.93824" lon="5.3222">
        <ele>1095.55</ele>
        <time>2016-06-01T07:29:06Z</time>
      </trkpt>
      <trkpt lat="44.9382" lon="5.3218">
        <ele>1095.01</ele>
        <time>2016-06-01T07:29:20Z</time>
      </trkpt>
      <trkpt lat="44.93814" lon="5.3217">
        <ele>1093.96</ele>
        <time>2016-06-01T07:29:30Z</time>
      </trkpt>
      <trkpt lat="44.93809" lon="5.3217">
        <ele>1093.64</ele>
        <time>2016-06-01T07:29:57Z</time>
      </trkpt>
      <trkpt lat="44.93807" lon="5.3217">
        <ele>1093.65</ele>
        <time>2016-06-01T07:29:58Z</time>
      </trkpt>
      <trkpt lat="44.93804" lon="5.3217">
        <ele>1093.67</ele>
        <time>2016-06-01T07:29:59Z</time>
      </trkpt>
      <trkpt lat="44.93784" lon="5.32175">
        <ele>1094.36</ele>
        <time>2016-06-01T07:30:10Z</time>
      </trkpt>
      <trkpt lat="44.93766" lon="5.32173">
        <ele>1095.46</ele>
        <time>2016-06-01T07:30:21Z</time>
      </trkpt>
      <trkpt lat="44.93746" lon="5.32168">
        <ele>1096.64</ele>
        <time>2016-06-01T07:30:32Z</time>
      </trkpt>
      <trkpt lat="44.93715" lon="5.3216">
        <ele>1097.7</ele>
        <time>2016-06-01T07:30:45Z</time>
      </trkpt>
      <trkpt lat="44.93686" lon="5.32154">
        <ele>1099.24</ele>
        <time>2016-06-01T07:31:01Z</time>
      </trkpt>
      <trkpt lat="44.93671" lon="5.32148">
        <ele>1100.36</ele>
        <time>2016-06-01T07:31:14Z</time>
      </trkpt>
      <trkpt lat="44.93663" lon="5.32145">
        <ele>1100.75</ele>
        <time>2016-06-01T07:31:20Z</time>
      </trkpt>
      <trkpt lat="44.93654" lon="5.32141">
        <ele>1101.28</ele>
        <time>2016-06-01T07:31:26Z</time>
      </trkpt>
      <trkpt lat="44.93624" lon="5.32133">
        <ele>1102.8</ele>
        <time>2016-06-01T07:31:39Z</time>
      </trkpt>
      <trkpt lat="44.93601" lon="5.3213">
        <ele>1104.94</ele>
        <time>2016-06-01T07:31:53Z</time>
      </trkpt>
      <trkpt lat="44.93583" lon="5.32125">
        <ele>1106.96</ele>
        <time>2016-06-01T07:32:05Z</time>
      </trkpt>
      <trkpt lat="44.93562" lon="5.32117">
        <ele>1108.61</ele>
        <time>2016-06-01T07:32:17Z</time>
      </trkpt>
      <trkpt lat="44.93544" lon="5.32106">
        <ele>1110.15</ele>
        <time>2016-06-01T07:32:29Z</time>
      </trkpt>
      <trkpt lat="44.93532" lon="5.321">
        <ele>1111.5</ele>
        <time>2016-06-01T07:32:42Z</time>
      </trkpt>
      <trkpt lat="44.9352" lon="5.32103">
        <ele>1112.44</ele>
        <time>2016-06-01T07:32:53Z</time>
      </trkpt>
      <trkpt lat="44.93515" lon="5.32104">
        <ele>1112.73</ele>
        <time>2016-06-01T07:32:55Z</time>
      </trkpt>
      <trkpt lat="44.93487" lon="5.321">
        <ele>1114.71</ele>
        <time>2016-06-01T07:33:08Z</time>
      </trkpt>
      <trkpt lat="44.93477" lon="5.32099">
        <ele>1115.36</ele>
        <time>2016-06-01T07:33:13Z</time>
      </trkpt>
      <trkpt lat="44.93468" lon="5.32098">
        <ele>1116.17</ele>
        <time>2016-06-01T07:33:18Z</time>
      </trkpt>
      <trkpt lat="44.93443" lon="5.3209">
        <ele>1117.79</ele>
        <time>2016-06-01T07:33:31Z</time>
      </trkpt>
      <trkpt lat="44.93428" lon="5.32077">
        <ele>1119.05</ele>
        <time>2016-06-01T07:33:44Z</time>
      </trkpt>
      <trkpt lat="44.93405" lon="5.32064">
        <ele>1121.49</ele>
        <time>2016-06-01T07:33:58Z</time>
      </trkpt>
      <trkpt lat="44.93385" lon="5.32059">
        <ele>1123.76</ele>
        <time>2016-06-01T07:34:12Z</time>
      </trkpt>
      <trkpt lat="44.93362" lon="5.32056">
        <ele>1126.17</ele>
        <time>2016-06-01T07:34:25Z</time>
      </trkpt>
      <trkpt lat="44.93354" lon="5.32055">
        <ele>1128.81</ele>
        <time>2016-06-01T07:34:38Z</time>
      </trkpt>
      <trkpt lat="44.9333" lon="5.32055">
        <ele>1131.55</ele>
        <time>2016-06-01T07:34:58Z</time>
      </trkpt>
      <trkpt lat="44.9332" lon="5.32056">
        <ele>1133.64</ele>
        <time>2016-06-01T07:35:13Z</time>
      </trkpt>
      <trkpt lat="44.93316" lon="5.32051">
        <ele>1134.56</ele>
        <time>2016-06-01T07:35:35Z</time>
      </trkpt>
      <trkpt lat="44.93316" lon="5.32051">
        <ele>1134.61</ele>
        <time>2016-06-01T07:35:36Z</time>
      </trkpt>
      <trkpt lat="44.93308" lon="5.32048">
        <ele>1134.97</ele>
        <time>2016-06-01T07:35:42Z</time>
      </trkpt>
      <trkpt lat="44.93294" lon="5.32045">
        <ele>1135.91</ele>
        <time>2016-06-01T07:35:50Z</time>
      </trkpt>
      <trkpt lat="44.93272" lon="5.32044">
        <ele>1137.03</ele>
        <time>2016-06-01T07:36:01Z</time>
      </trkpt>
      <trkpt lat="44.93255" lon="5.3204">
        <ele>1137.75</ele>
        <time>2016-06-01T07:36:09Z</time>
      </trkpt>
      <trkpt lat="44.93248" lon="5.32036">
        <ele>1138.07</ele>
        <time>2016-06-01T07:36:13Z</time>
      </trkpt>
      <trkpt lat="44.93227" lon="5.32027">
        <ele>1139.65</ele>
        <time>2016-06-01T07:36:25Z</time>
      </trkpt>
      <trkpt lat="44.93219" lon="5.32021">
        <ele>1141.39</ele>
        <time>2016-06-01T07:36:31Z</time>
      </trkpt>
      <trkpt lat="44.93211" lon="5.32016">
        <ele>1142.64</ele>
        <time>2016-06-01T07:36:46Z</time>
      </trkpt>
      <trkpt lat="44.93198" lon="5.32006">
        <ele>1143.1</ele>
        <time>2016-06-01T07:37:05Z</time>
      </trkpt>
      <trkpt lat="44.93185" lon="5.32007">
        <ele>1146.2</ele>
        <time>2016-06-01T07:37:26Z</time>
      </trkpt>
      <trkpt lat="44.93184" lon="5.32006">
        <ele>1146.64</ele>
        <time>2016-06-01T07:37:29Z</time>
      </trkpt>
      <trkpt lat="44.9318" lon="5.32007">
        <ele>1148.05</ele>
        <time>2016-06-01T07:37:47Z</time>
      </trkpt>
      <trkpt lat="44.93178" lon="5.32005">
        <ele>1147.84</ele>
        <time>2016-06-01T07:38:10Z</time>
      </trkpt>
      <trkpt lat="44.93177" lon="5.32005">
        <ele>1146.71</ele>
        <time>2016-06-01T07:38:42Z</time>
      </trkpt>
      <trkpt lat="44.9318" lon="5.32003">
        <ele>1146.49</ele>
        <time>2016-06-01T07:39:16Z</time>
      </trkpt>
      <trkpt lat="44.93179" lon="5.32008">
        <ele>1146.52</ele>
        <time>2016-06-01T07:39:49Z</time>
      </trkpt>
      <trkpt lat="44.93179" lon="5.32008">
        <ele>1146.91</ele>
        <time>2016-06-01T07:40:17Z</time>
      </trkpt>
      <trkpt lat="44.93178" lon="5.32002">
        <ele>1148.19</ele>
        <time>2016-06-01T07:40:40Z</time>
      </trkpt>
      <trkpt lat="44.93171" lon="5.32001">
        <ele>1148.18</ele>
        <time>2016-06-01T07:41:00Z</time>
      </trkpt>
      <trkpt lat="44.93165" lon="5.32008">
        <ele>1148.63</ele>
        <time>2016-06-01T07:41:09Z</time>
      </trkpt>
      <trkpt lat="44.93139" lon="5.32022">
        <ele>1148.89</ele>
        <time>2016-06-01T07:41:24Z</time>
      </trkpt>
      <trkpt lat="44.93119" lon="5.32017">
        <ele>1149.1</ele>
        <time>2016-06-01T07:41:37Z</time>
      </trkpt>
      <trkpt lat="44.93095" lon="5.31997">
        <ele>1147.64</ele>
        <time>2016-06-01T07:41:50Z</time>
      </trkpt>
      <trkpt lat="44.93086" lon="5.31988">
        <ele>1146.19</ele>
        <time>2016-06-01T07:41:56Z</time>
      </trkpt>
      <trkpt lat="44.93072" lon="5.31982">
        <ele>1144.65</ele>
        <time>2016-06-01T07:42:10Z</time>
      </trkpt>
      <trkpt lat="44.93052" lon="5.31974">
        <ele>1144.49</ele>
        <time>2016-06-01T07:42:29Z</time>
      </trkpt>
      <trkpt lat="44.93039" lon="5.31974">
        <ele>1144.51</ele>
        <time>2016-06-01T07:42:43Z</time>
      </trkpt>
      <trkpt lat="44.93033" lon="5.31971">
        <ele>1144.11</ele>
        <time>2016-06-01T07:42:48Z</time>
      </trkpt>
      <trkpt lat="44.93023" lon="5.3196">
        <ele>1142.44</ele>
        <time>2016-06-01T07:43:04Z</time>
      </trkpt>
      <trkpt lat="44.93017" lon="5.31958">
        <ele>1141.57</ele>
        <time>2016-06-01T07:43:24Z</time>
      </trkpt>
      <trkpt lat="44.93004" lon="5.31954">
        <ele>1141.91</ele>
        <time>2016-06-01T07:43:46Z</time>
      </trkpt>
      <trkpt lat="44.92993" lon="5.31957">
        <ele>1142.05</ele>
        <time>2016-06-01T07:44:07Z</time>
      </trkpt>
      <trkpt lat="44.92986" lon="5.31957">
        <ele>1142.72</ele>
        <time>2016-06-01T07:44:34Z</time>
      </trkpt>
      <trkpt lat="44.92981" lon="5.31955">
        <ele>1143.62</ele>
        <time>2016-06-01T07:44:56Z</time>
      </trkpt>
      <trkpt lat="44.92974" lon="5.31954">
        <ele>1143.79</ele>
        <time>2016-06-01T07:45:20Z</time>
      </trkpt>
      <trkpt lat="44.92972" lon="5.31964">
        <ele>1144.78</ele>
        <time>2016-06-01T07:45:32Z</time>
      </trkpt>
      <trkpt lat="44.92964" lon="5.31975">
        <ele>1145.1</ele>
        <time>2016-06-01T07:45:49Z</time>
      </trkpt>
      <trkpt lat="44.9296" lon="5.31979">
        <ele>1146.21</ele>
        <time>2016-06-01T07:46:16Z</time>
      </trkpt>
      <trkpt lat="44.92956" lon="5.31982">
        <ele>1147.97</ele>
        <time>2016-06-01T07:46:38Z</time>
      </trkpt>
      <trkpt lat="44.92955" lon="5.31983">
        <ele>1148.74</ele>
        <time>2016-06-01T07:47:05Z</time>
      </trkpt>
      <trkpt lat="44.92957" lon="5.31986">
        <ele>1149.49</ele>
        <time>2016-06-01T07:47:33Z</time>
      </trkpt>
      <trkpt lat="44.92956" lon="5.31991">
        <ele>1151.22</ele>
        <time>2016-06-01T07:47:58Z</time>
      </trkpt>
      <trkpt lat="44.92958" lon="5.31997">
        <ele>1153.15</ele>
        <time>2016-06-01T07:48:24Z</time>
      </trkpt>
      <trkpt lat="44.9296" lon="5.31998">
        <ele>1152.99</ele>
        <time>2016-06-01T07:48:54Z</time>
      </trkpt>
      <trkpt lat="44.92962" lon="5.31998">
        <ele>1153.36</ele>
        <time>2016-06-01T07:49:24Z</time>
      </trkpt>
      <trkpt lat="44.92955" lon="5.31994">
        <ele>1152.86</ele>
        <time>2016-06-01T07:49:44Z</time>
      </trkpt>
      <trkpt lat="44.92954" lon="5.31998">
        <ele>1155.38</ele>
        <time>2016-06-01T07:50:05Z</time>
      </trkpt>
      <trkpt lat="44.92948" lon="5.32006">
        <ele>1157.02</ele>
        <time>2016-06-01T07:50:28Z</time>
      </trkpt>
      <trkpt lat="44.92931" lon="5.32007">
        <ele>1157.22</ele>
        <time>2016-06-01T07:50:51Z</time>
      </trkpt>
      <trkpt lat="44.92924" lon="5.32005">
        <ele>1157.07</ele>
        <time>2016-06-01T07:51:07Z</time>
      </trkpt>
      <trkpt lat="44.92918" lon="5.32006">
        <ele>1156.96</ele>
        <time>2016-06-01T07:51:27Z</time>
      </trkpt>
      <trkpt lat="44.92917" lon="5.3201">
        <ele>1156.99</ele>
        <time>2016-06-01T07:51:52Z</time>
      </trkpt>
      <trkpt lat="44.92911" lon="5.32005">
        <ele>1156.88</ele>
        <time>2016-06-01T07:52:06Z</time>
      </trkpt>
      <trkpt lat="44.92908" lon="5.32002">
        <ele>1156.42</ele>
        <time>2016-06-01T07:52:24Z</time>
      </trkpt>
      <trkpt lat="44.92913" lon="5.32008">
        <ele>1157.08</ele>
        <time>2016-06-01T07:52:47Z</time>
      </trkpt>
      <trkpt lat="44.92914" lon="5.32005">
        <ele>1156.66</ele>
        <time>2016-06-01T07:53:13Z</time>
      </trkpt>
      <trkpt lat="44.92919" lon="5.32011">
        <ele>1157.39</ele>
        <time>2016-06-01T07:53:29Z</time>
      </trkpt>
      <trkpt lat="44.92919" lon="5.32012">
        <ele>1157.48</ele>
        <time>2016-06-01T07:53:30Z</time>
      </trkpt>
      <trkpt lat="44.92911" lon="5.32026">
        <ele>1159.26</ele>
        <time>2016-06-01T07:53:51Z</time>
      </trkpt>
      <trkpt lat="44.92896" lon="5.32045">
        <ele>1160.81</ele>
        <time>2016-06-01T07:54:12Z</time>
      </trkpt>
      <trkpt lat="44.92885" lon="5.32058">
        <ele>1162.13</ele>
        <time>2016-06-01T07:54:26Z</time>
      </trkpt>
      <trkpt lat="44.92878" lon="5.32058">
        <ele>1162.43</ele>
        <time>2016-06-01T07:54:48Z</time>
      </trkpt>
      <trkpt lat="44.92873" lon="5.32059">
        <ele>1162.49</ele>
        <time>2016-06-01T07:55:04Z</time>
      </trkpt>
      <trkpt lat="44.92854" lon="5.32076">
        <ele>1163.56</ele>
        <time>2016-06-01T07:55:20Z</time>
      </trkpt>
      <trkpt lat="44.9284" lon="5.32095">
        <ele>1164.6</ele>
        <time>2016-06-01T07:55:32Z</time>
      </trkpt>
      <trkpt lat="44.92847" lon="5.32098">
        <ele>1165.18</ele>
        <time>2016-06-01T07:55:37Z</time>
      </trkpt>
      <trkpt lat="44.92848" lon="5.32096">
        <ele>1165.31</ele>
        <time>2016-06-01T07:55:38Z</time>
      </trkpt>
      <trkpt lat="44.92861" lon="5.32089">
        <ele>1165.9</ele>
        <time>2016-06-01T07:55:46Z</time>
      </trkpt>
      <trkpt lat="44.92861" lon="5.32091">
        <ele>1165.91</ele>
        <time>2016-06-01T07:55:47Z</time>
      </trkpt>
      <trkpt lat="44.92861" lon="5.32093">
        <ele>1165.91</ele>
        <time>2016-06-01T07:55:48Z</time>
      </trkpt>
      <trkpt lat="44.9286" lon="5.32095">
        <ele>1165.91</ele>
        <time>2016-06-01T07:55:49Z</time>
      </trkpt>
      <trkpt lat="44.92859" lon="5.32096">
        <ele>1165.93</ele>
        <time>2016-06-01T07:55:50Z</time>
      </trkpt>
      <trkpt lat="44.92858" lon="5.32098">
        <ele>1165.97</ele>
        <time>2016-06-01T07:55:51Z</time>
      </trkpt>
      <trkpt lat="44.92856" lon="5.32099">
        <ele>1166</ele>
        <time>2016-06-01T07:55:52Z</time>
      </trkpt>
      <trkpt lat="44.92834" lon="5.32116">
        <ele>1167.59</ele>
        <time>2016-06-01T07:56:06Z</time>
      </trkpt>
      <trkpt lat="44.92814" lon="5.32137">
        <ele>1169.39</ele>
        <time>2016-06-01T07:56:22Z</time>
      </trkpt>
      <trkpt lat="44.92801" lon="5.3215">
        <ele>1171.06</ele>
        <time>2016-06-01T07:56:35Z</time>
      </trkpt>
      <trkpt lat="44.928" lon="5.32151">
        <ele>1171.14</ele>
        <time>2016-06-01T07:56:36Z</time>
      </trkpt>
      <trkpt lat="44.92796" lon="5.32154">
        <ele>1171.39</ele>
        <time>2016-06-01T07:56:39Z</time>
      </trkpt>
      <trkpt lat="44.92795" lon="5.32155">
        <ele>1171.48</ele>
        <time>2016-06-01T07:56:40Z</time>
      </trkpt>
      <trkpt lat="44.92793" lon="5.32156">
        <ele>1171.7</ele>
        <time>2016-06-01T07:56:42Z</time>
      </trkpt>
      <trkpt lat="44.9278" lon="5.3217">
        <ele>1174.48</ele>
        <time>2016-06-01T07:56:53Z</time>
      </trkpt>
      <trkpt lat="44.9276" lon="5.32191">
        <ele>1177.51</ele>
        <time>2016-06-01T07:57:07Z</time>
      </trkpt>
      <trkpt lat="44.92749" lon="5.32207">
        <ele>1178.88</ele>
        <time>2016-06-01T07:57:18Z</time>
      </trkpt>
      <trkpt lat="44.92744" lon="5.32213">
        <ele>1179.54</ele>
        <time>2016-06-01T07:57:22Z</time>
      </trkpt>
      <trkpt lat="44.9273" lon="5.32229">
        <ele>1180.76</ele>
        <time>2016-06-01T07:57:33Z</time>
      </trkpt>
      <trkpt lat="44.92715" lon="5.32245">
        <ele>1181.53</ele>
        <time>2016-06-01T07:57:45Z</time>
      </trkpt>
      <trkpt lat="44.92702" lon="5.3226">
        <ele>1182.89</ele>
        <time>2016-06-01T07:57:56Z</time>
      </trkpt>
      <trkpt lat="44.92698" lon="5.32265">
        <ele>1183.56</ele>
        <time>2016-06-01T07:58:00Z</time>
      </trkpt>
      <trkpt lat="44.92684" lon="5.32277">
        <ele>1186.78</ele>
        <time>2016-06-01T07:58:11Z</time>
      </trkpt>
      <trkpt lat="44.92681" lon="5.32279">
        <ele>1187.33</ele>
        <time>2016-06-01T07:58:13Z</time>
      </trkpt>
      <trkpt lat="44.92651" lon="5.32283">
        <ele>1189.56</ele>
        <time>2016-06-01T07:58:27Z</time>
      </trkpt>
      <trkpt lat="44.92627" lon="5.32275">
        <ele>1191.08</ele>
        <time>2016-06-01T07:58:40Z</time>
      </trkpt>
      <trkpt lat="44.92612" lon="5.32272">
        <ele>1191.61</ele>
        <time>2016-06-01T07:58:49Z</time>
      </trkpt>
      <trkpt lat="44.92601" lon="5.32269">
        <ele>1192.09</ele>
        <time>2016-06-01T07:58:55Z</time>
      </trkpt>
      <trkpt lat="44.92593" lon="5.32267">
        <ele>1192.74</ele>
        <time>2016-06-01T07:59:00Z</time>
      </trkpt>
      <trkpt lat="44.92582" lon="5.32264">
        <ele>1193.54</ele>
        <time>2016-06-01T07:59:07Z</time>
      </trkpt>
      <trkpt lat="44.92576" lon="5.32262">
        <ele>1193.77</ele>
        <time>2016-06-01T07:59:11Z</time>
      </trkpt>
      <trkpt lat="44.92548" lon="5.32258">
        <ele>1194.16</ele>
        <time>2016-06-01T07:59:26Z</time>
      </trkpt>
      <trkpt lat="44.92541" lon="5.32255">
        <ele>1194.33</ele>
        <time>2016-06-01T07:59:29Z</time>
      </trkpt>
      <trkpt lat="44.92532" lon="5.32253">
        <ele>1194.68</ele>
        <time>2016-06-01T07:59:34Z</time>
      </trkpt>
      <trkpt lat="44.9252" lon="5.32245">
        <ele>1195.5</ele>
        <time>2016-06-01T07:59:42Z</time>
      </trkpt>
      <trkpt lat="44.92513" lon="5.32243">
        <ele>1196.21</ele>
        <time>2016-06-01T07:59:47Z</time>
      </trkpt>
      <trkpt lat="44.92505" lon="5.32239">
        <ele>1196.98</ele>
        <time>2016-06-01T07:59:52Z</time>
      </trkpt>
      <trkpt lat="44.92496" lon="5.32237">
        <ele>1197.69</ele>
        <time>2016-06-01T07:59:57Z</time>
      </trkpt>
      <trkpt lat="44.92493" lon="5.32235">
        <ele>1197.94</ele>
        <time>2016-06-01T07:59:59Z</time>
      </trkpt>
      <trkpt lat="44.92473" lon="5.32229">
        <ele>1199.62</ele>
        <time>2016-06-01T08:00:12Z</time>
      </trkpt>
      <trkpt lat="44.92466" lon="5.32227">
        <ele>1200.58</ele>
        <time>2016-06-01T08:00:16Z</time>
      </trkpt>
      <trkpt lat="44.92451" lon="5.32221">
        <ele>1201.74</ele>
        <time>2016-06-01T08:00:26Z</time>
      </trkpt>
      <trkpt lat="44.92448" lon="5.3222">
        <ele>1201.89</ele>
        <time>2016-06-01T08:00:28Z</time>
      </trkpt>
      <trkpt lat="44.92443" lon="5.32217">
        <ele>1202.48</ele>
        <time>2016-06-01T08:00:40Z</time>
      </trkpt>
      <trkpt lat="44.92441" lon="5.32218">
        <ele>1201.49</ele>
        <time>2016-06-01T08:00:58Z</time>
      </trkpt>
      <trkpt lat="44.9245" lon="5.32208">
        <ele>1201.31</ele>
        <time>2016-06-01T08:01:26Z</time>
      </trkpt>
      <trkpt lat="44.92434" lon="5.32216">
        <ele>1201.23</ele>
        <time>2016-06-01T08:02:17Z</time>
      </trkpt>
      <trkpt lat="44.92436" lon="5.32211">
        <ele>1201.07</ele>
        <time>2016-06-01T08:02:53Z</time>
      </trkpt>
      <trkpt lat="44.92439" lon="5.32211">
        <ele>1201.11</ele>
        <time>2016-06-01T08:03:27Z</time>
      </trkpt>
      <trkpt lat="44.92446" lon="5.32212">
        <ele>1200.5</ele>
        <time>2016-06-01T08:04:06Z</time>
      </trkpt>
      <trkpt lat="44.92446" lon="5.32217">
        <ele>1200.63</ele>
        <time>2016-06-01T08:04:39Z</time>
      </trkpt>
      <trkpt lat="44.92444" lon="5.32218">
        <ele>1200.94</ele>
        <time>2016-06-01T08:05:13Z</time>
      </trkpt>
      <trkpt lat="44.92447" lon="5.32211">
        <ele>1201.9</ele>
        <time>2016-06-01T08:05:39Z</time>
      </trkpt>
      <trkpt lat="44.92444" lon="5.32213">
        <ele>1201.81</ele>
        <time>2016-06-01T08:05:58Z</time>
      </trkpt>
      <trkpt lat="44.92433" lon="5.32213">
        <ele>1202.95</ele>
        <time>2016-06-01T08:06:12Z</time>
      </trkpt>
      <trkpt lat="44.92432" lon="5.32214">
        <ele>1204.32</ele>
        <time>2016-06-01T08:06:27Z</time>
      </trkpt>
      <trkpt lat="44.92429" lon="5.32213">
        <ele>1204.59</ele>
        <time>2016-06-01T08:06:32Z</time>
      </trkpt>
      <trkpt lat="44.9242" lon="5.32219">
        <ele>1205.38</ele>
        <time>2016-06-01T08:06:40Z</time>
      </trkpt>
      <trkpt lat="44.92409" lon="5.32223">
        <ele>1206.66</ele>
        <time>2016-06-01T08:06:49Z</time>
      </trkpt>
      <trkpt lat="44.92395" lon="5.3223">
        <ele>1209.86</ele>
        <time>2016-06-01T08:07:02Z</time>
      </trkpt>
      <trkpt lat="44.92372" lon="5.32234">
        <ele>1212.86</ele>
        <time>2016-06-01T08:07:17Z</time>
      </trkpt>
      <trkpt lat="44.92352" lon="5.32236">
        <ele>1214.24</ele>
        <time>2016-06-01T08:07:30Z</time>
      </trkpt>
      <trkpt lat="44.92347" lon="5.32236">
        <ele>1214.52</ele>
        <time>2016-06-01T08:07:32Z</time>
      </trkpt>
      <trkpt lat="44.92327" lon="5.32237">
        <ele>1217.22</ele>
        <time>2016-06-01T08:07:49Z</time>
      </trkpt>
      <trkpt lat="44.92308" lon="5.32235">
        <ele>1218.98</ele>
        <time>2016-06-01T08:08:10Z</time>
      </trkpt>
      <trkpt lat="44.92281" lon="5.32231">
        <ele>1221.08</ele>
        <time>2016-06-01T08:08:31Z</time>
      </trkpt>
      <trkpt lat="44.92269" lon="5.3223">
        <ele>1222.99</ele>
        <time>2016-06-01T08:08:44Z</time>
      </trkpt>
      <trkpt lat="44.92251" lon="5.32224">
        <ele>1226.11</ele>
        <time>2016-06-01T08:09:03Z</time>
      </trkpt>
      <trkpt lat="44.92234" lon="5.32216">
        <ele>1229.18</ele>
        <time>2016-06-01T08:09:27Z</time>
      </trkpt>
      <trkpt lat="44.92217" lon="5.3222">
        <ele>1232.19</ele>
        <time>2016-06-01T08:09:47Z</time>
      </trkpt>
      <trkpt lat="44.92196" lon="5.32221">
        <ele>1234.3</ele>
        <time>2016-06-01T08:10:10Z</time>
      </trkpt>
      <trkpt lat="44.92189" lon="5.32218">
        <ele>1234.51</ele>
        <time>2016-06-01T08:10:20Z</time>
      </trkpt>
      <trkpt lat="44.92187" lon="5.32217">
        <ele>1234.58</ele>
        <time>2016-06-01T08:10:22Z</time>
      </trkpt>
      <trkpt lat="44.92163" lon="5.32209">
        <ele>1235.56</ele>
        <time>2016-06-01T08:10:37Z</time>
      </trkpt>
      <trkpt lat="44.92136" lon="5.32195">
        <ele>1237.71</ele>
        <time>2016-06-01T08:10:50Z</time>
      </trkpt>
      <trkpt lat="44.92126" lon="5.32192">
        <ele>1239.34</ele>
        <time>2016-06-01T08:10:56Z</time>
      </trkpt>
      <trkpt lat="44.92122" lon="5.3219">
        <ele>1239.89</ele>
        <time>2016-06-01T08:10:59Z</time>
      </trkpt>
      <trkpt lat="44.92113" lon="5.32189">
        <ele>1240.37</ele>
        <time>2016-06-01T08:11:04Z</time>
      </trkpt>
      <trkpt lat="44.92094" lon="5.32187">
        <ele>1241.84</ele>
        <time>2016-06-01T08:11:19Z</time>
      </trkpt>
      <trkpt lat="44.92088" lon="5.32188">
        <ele>1242.3</ele>
        <time>2016-06-01T08:11:24Z</time>
      </trkpt>
      <trkpt lat="44.92061" lon="5.32195">
        <ele>1245.43</ele>
        <time>2016-06-01T08:11:40Z</time>
      </trkpt>
      <trkpt lat="44.92038" lon="5.32206">
        <ele>1247.31</ele>
        <time>2016-06-01T08:11:54Z</time>
      </trkpt>
      <trkpt lat="44.9202" lon="5.32223">
        <ele>1249.01</ele>
        <time>2016-06-01T08:12:08Z</time>
      </trkpt>
      <trkpt lat="44.92002" lon="5.32255">
        <ele>1249.89</ele>
        <time>2016-06-01T08:12:25Z</time>
      </trkpt>
      <trkpt lat="44.92" lon="5.32265">
        <ele>1250.54</ele>
        <time>2016-06-01T08:12:31Z</time>
      </trkpt>
      <trkpt lat="44.9199" lon="5.3229">
        <ele>1252.43</ele>
        <time>2016-06-01T08:12:45Z</time>
      </trkpt>
      <trkpt lat="44.91982" lon="5.32323">
        <ele>1255.52</ele>
        <time>2016-06-01T08:12:59Z</time>
      </trkpt>
      <trkpt lat="44.91982" lon="5.32332">
        <ele>1256.18</ele>
        <time>2016-06-01T08:13:03Z</time>
      </trkpt>
      <trkpt lat="44.91981" lon="5.32348">
        <ele>1257.2</ele>
        <time>2016-06-01T08:13:10Z</time>
      </trkpt>
      <trkpt lat="44.91978" lon="5.32362">
        <ele>1258.38</ele>
        <time>2016-06-01T08:13:17Z</time>
      </trkpt>
      <trkpt lat="44.9197" lon="5.32388">
        <ele>1259.92</ele>
        <time>2016-06-01T08:13:31Z</time>
      </trkpt>
      <trkpt lat="44.91956" lon="5.32412">
        <ele>1262.85</ele>
        <time>2016-06-01T08:13:46Z</time>
      </trkpt>
      <trkpt lat="44.91947" lon="5.32414">
        <ele>1264.94</ele>
        <time>2016-06-01T08:13:54Z</time>
      </trkpt>
      <trkpt lat="44.91943" lon="5.32414">
        <ele>1265.49</ele>
        <time>2016-06-01T08:13:57Z</time>
      </trkpt>
      <trkpt lat="44.91923" lon="5.32411">
        <ele>1268.11</ele>
        <time>2016-06-01T08:14:11Z</time>
      </trkpt>
      <trkpt lat="44.91919" lon="5.32411">
        <ele>1268.5</ele>
        <time>2016-06-01T08:14:14Z</time>
      </trkpt>
      <trkpt lat="44.919" lon="5.32416">
        <ele>1270.51</ele>
        <time>2016-06-01T08:14:27Z</time>
      </trkpt>
      <trkpt lat="44.91886" lon="5.32418">
        <ele>1272.26</ele>
        <time>2016-06-01T08:14:37Z</time>
      </trkpt>
      <trkpt lat="44.91884" lon="5.32419">
        <ele>1272.49</ele>
        <time>2016-06-01T08:14:39Z</time>
      </trkpt>
      <trkpt lat="44.91879" lon="5.32421">
        <ele>1273.07</ele>
        <time>2016-06-01T08:14:43Z</time>
      </trkpt>
      <trkpt lat="44.91853" lon="5.32405">
        <ele>1274.32</ele>
        <time>2016-06-01T08:14:56Z</time>
      </trkpt>
      <trkpt lat="44.91829" lon="5.32389">
        <ele>1275.77</ele>
        <time>2016-06-01T08:15:09Z</time>
      </trkpt>
      <trkpt lat="44.91809" lon="5.32387">
        <ele>1277.03</ele>
        <time>2016-06-01T08:15:22Z</time>
      </trkpt>
      <trkpt lat="44.91799" lon="5.3239">
        <ele>1278.54</ele>
        <time>2016-06-01T08:15:33Z</time>
      </trkpt>
      <trkpt lat="44.91795" lon="5.3239">
        <ele>1279.1</ele>
        <time>2016-06-01T08:15:36Z</time>
      </trkpt>
      <trkpt lat="44.91788" lon="5.3239">
        <ele>1279.71</ele>
        <time>2016-06-01T08:15:40Z</time>
      </trkpt>
      <trkpt lat="44.91775" lon="5.32389">
        <ele>1280.66</ele>
        <time>2016-06-01T08:15:47Z</time>
      </trkpt>
      <trkpt lat="44.91771" lon="5.32388">
        <ele>1281.17</ele>
        <time>2016-06-01T08:15:50Z</time>
      </trkpt>
      <trkpt lat="44.91743" lon="5.32385">
        <ele>1283.95</ele>
        <time>2016-06-01T08:16:05Z</time>
      </trkpt>
      <trkpt lat="44.91727" lon="5.32389">
        <ele>1285.66</ele>
        <time>2016-06-01T08:16:17Z</time>
      </trkpt>
      <trkpt lat="44.91701" lon="5.32401">
        <ele>1287.61</ele>
        <time>2016-06-01T08:16:37Z</time>
      </trkpt>
      <trkpt lat="44.91663" lon="5.32391">
        <ele>1290.48</ele>
        <time>2016-06-01T08:16:55Z</time>
      </trkpt>
      <trkpt lat="44.91647" lon="5.32382">
        <ele>1291.9</ele>
        <time>2016-06-01T08:17:04Z</time>
      </trkpt>
      <trkpt lat="44.91645" lon="5.32381">
        <ele>1292.27</ele>
        <time>2016-06-01T08:17:06Z</time>
      </trkpt>
      <trkpt lat="44.91637" lon="5.32376">
        <ele>1292.6</ele>
        <time>2016-06-01T08:17:10Z</time>
      </trkpt>
      <trkpt lat="44.91616" lon="5.32371">
        <ele>1294.12</ele>
        <time>2016-06-01T08:17:23Z</time>
      </trkpt>
      <trkpt lat="44.91612" lon="5.32372">
        <ele>1294.32</ele>
        <time>2016-06-01T08:17:26Z</time>
      </trkpt>
      <trkpt lat="44.91605" lon="5.32375">
        <ele>1294.73</ele>
        <time>2016-06-01T08:17:30Z</time>
      </trkpt>
      <trkpt lat="44.91587" lon="5.32396">
        <ele>1296.47</ele>
        <time>2016-06-01T08:17:44Z</time>
      </trkpt>
      <trkpt lat="44.91579" lon="5.32407">
        <ele>1297.28</ele>
        <time>2016-06-01T08:17:52Z</time>
      </trkpt>
      <trkpt lat="44.91571" lon="5.32408">
        <ele>1298.98</ele>
        <time>2016-06-01T08:17:59Z</time>
      </trkpt>
      <trkpt lat="44.91565" lon="5.32409">
        <ele>1299.94</ele>
        <time>2016-06-01T08:18:03Z</time>
      </trkpt>
      <trkpt lat="44.91534" lon="5.32404">
        <ele>1302.27</ele>
        <time>2016-06-01T08:18:17Z</time>
      </trkpt>
      <trkpt lat="44.91508" lon="5.32402">
        <ele>1304.11</ele>
        <time>2016-06-01T08:18:30Z</time>
      </trkpt>
      <trkpt lat="44.91483" lon="5.32398">
        <ele>1305.06</ele>
        <time>2016-06-01T08:18:43Z</time>
      </trkpt>
      <trkpt lat="44.91475" lon="5.32388">
        <ele>1305.81</ele>
        <time>2016-06-01T08:18:55Z</time>
      </trkpt>
      <trkpt lat="44.91472" lon="5.32395">
        <ele>1305.93</ele>
        <time>2016-06-01T08:19:07Z</time>
      </trkpt>
      <trkpt lat="44.91473" lon="5.32404">
        <ele>1304.27</ele>
        <time>2016-06-01T08:19:30Z</time>
      </trkpt>
      <trkpt lat="44.91475" lon="5.32419">
        <ele>1304.13</ele>
        <time>2016-06-01T08:20:01Z</time>
      </trkpt>
      <trkpt lat="44.91474" lon="5.32414">
        <ele>1304.3</ele>
        <time>2016-06-01T08:20:13Z</time>
      </trkpt>
      <trkpt lat="44.91466" lon="5.32396">
        <ele>1304.61</ele>
        <time>2016-06-01T08:20:34Z</time>
      </trkpt>
      <trkpt lat="44.91461" lon="5.3239">
        <ele>1304.43</ele>
        <time>2016-06-01T08:21:06Z</time>
      </trkpt>
      <trkpt lat="44.91465" lon="5.32388">
        <ele>1304.42</ele>
        <time>2016-06-01T08:21:38Z</time>
      </trkpt>
      <trkpt lat="44.91459" lon="5.32393">
        <ele>1304.4</ele>
        <time>2016-06-01T08:22:17Z</time>
      </trkpt>
      <trkpt lat="44.91463" lon="5.32392">
        <ele>1304.29</ele>
        <time>2016-06-01T08:22:50Z</time>
      </trkpt>
      <trkpt lat="44.91463" lon="5.3239">
        <ele>1304.16</ele>
        <time>2016-06-01T08:23:30Z</time>
      </trkpt>
      <trkpt lat="44.9146" lon="5.32392">
        <ele>1303.87</ele>
        <time>2016-06-01T08:24:02Z</time>
      </trkpt>
      <trkpt lat="44.91461" lon="5.32391">
        <ele>1303.88</ele>
        <time>2016-06-01T08:24:37Z</time>
      </trkpt>
      <trkpt lat="44.9146" lon="5.32391">
        <ele>1303.7</ele>
        <time>2016-06-01T08:25:11Z</time>
      </trkpt>
      <trkpt lat="44.91463" lon="5.32389">
        <ele>1303.92</ele>
        <time>2016-06-01T08:25:48Z</time>
      </trkpt>
      <trkpt lat="44.91458" lon="5.32391">
        <ele>1304.24</ele>
        <time>2016-06-01T08:26:19Z</time>
      </trkpt>
      <trkpt lat="44.91471" lon="5.32388">
        <ele>1304.8</ele>
        <time>2016-06-01T08:26:35Z</time>
      </trkpt>
      <trkpt lat="44.91473" lon="5.32393">
        <ele>1304.84</ele>
        <time>2016-06-01T08:26:50Z</time>
      </trkpt>
      <trkpt lat="44.91472" lon="5.32397">
        <ele>1304.8</ele>
        <time>2016-06-01T08:26:52Z</time>
      </trkpt>
      <trkpt lat="44.91469" lon="5.32405">
        <ele>1304.76</ele>
        <time>2016-06-01T08:26:56Z</time>
      </trkpt>
      <trkpt lat="44.91441" lon="5.3242">
        <ele>1305.68</ele>
        <time>2016-06-01T08:27:11Z</time>
      </trkpt>
      <trkpt lat="44.9141" lon="5.32416">
        <ele>1307.86</ele>
        <time>2016-06-01T08:27:26Z</time>
      </trkpt>
      <trkpt lat="44.91392" lon="5.32404">
        <ele>1309.24</ele>
        <time>2016-06-01T08:27:36Z</time>
      </trkpt>
      <trkpt lat="44.91373" lon="5.32396">
        <ele>1311.41</ele>
        <time>2016-06-01T08:27:48Z</time>
      </trkpt>
      <trkpt lat="44.91353" lon="5.32396">
        <ele>1313.03</ele>
        <time>2016-06-01T08:28:02Z</time>
      </trkpt>
      <trkpt lat="44.91335" lon="5.324">
        <ele>1316.1</ele>
        <time>2016-06-01T08:28:15Z</time>
      </trkpt>
      <trkpt lat="44.91333" lon="5.324">
        <ele>1316.32</ele>
        <time>2016-06-01T08:28:16Z</time>
      </trkpt>
      <trkpt lat="44.91318" lon="5.3241">
        <ele>1318.47</ele>
        <time>2016-06-01T08:28:29Z</time>
      </trkpt>
      <trkpt lat="44.91317" lon="5.32412">
        <ele>1318.71</ele>
        <time>2016-06-01T08:28:30Z</time>
      </trkpt>
      <trkpt lat="44.91294" lon="5.32432">
        <ele>1320.03</ele>
        <time>2016-06-01T08:28:45Z</time>
      </trkpt>
      <trkpt lat="44.91273" lon="5.32448">
        <ele>1321.38</ele>
        <time>2016-06-01T08:28:58Z</time>
      </trkpt>
      <trkpt lat="44.91251" lon="5.32456">
        <ele>1322.94</ele>
        <time>2016-06-01T08:29:12Z</time>
      </trkpt>
      <trkpt lat="44.91228" lon="5.32459">
        <ele>1324.89</ele>
        <time>2016-06-01T08:29:25Z</time>
      </trkpt>
      <trkpt lat="44.91204" lon="5.32461">
        <ele>1327.92</ele>
        <time>2016-06-01T08:29:38Z</time>
      </trkpt>
      <trkpt lat="44.9118" lon="5.32463">
        <ele>1330.22</ele>
        <time>2016-06-01T08:29:52Z</time>
      </trkpt>
      <trkpt lat="44.91164" lon="5.32463">
        <ele>1331.15</ele>
        <time>2016-06-01T08:29:59Z</time>
      </trkpt>
      <trkpt lat="44.91138" lon="5.32465">
        <ele>1333.21</ele>
        <time>2016-06-01T08:30:14Z</time>
      </trkpt>
      <trkpt lat="44.91114" lon="5.32464">
        <ele>1334.94</ele>
        <time>2016-06-01T08:30:27Z</time>
      </trkpt>
      <trkpt lat="44.91082" lon="5.32458">
        <ele>1337.67</ele>
        <time>2016-06-01T08:30:41Z</time>
      </trkpt>
      <trkpt lat="44.91049" lon="5.32458">
        <ele>1340.04</ele>
        <time>2016-06-01T08:30:58Z</time>
      </trkpt>
      <trkpt lat="44.91017" lon="5.32465">
        <ele>1343.02</ele>
        <time>2016-06-01T08:31:15Z</time>
      </trkpt>
      <trkpt lat="44.90992" lon="5.32482">
        <ele>1344.4</ele>
        <time>2016-06-01T08:31:31Z</time>
      </trkpt>
      <trkpt lat="44.90972" lon="5.32503">
        <ele>1345.65</ele>
        <time>2016-06-01T08:31:43Z</time>
      </trkpt>
      <trkpt lat="44.90956" lon="5.32544">
        <ele>1348.27</ele>
        <time>2016-06-01T08:32:00Z</time>
      </trkpt>
      <trkpt lat="44.90947" lon="5.32549">
        <ele>1348.77</ele>
        <time>2016-06-01T08:32:14Z</time>
      </trkpt>
      <trkpt lat="44.90943" lon="5.32549">
        <ele>1348.84</ele>
        <time>2016-06-01T08:32:44Z</time>
      </trkpt>
      <trkpt lat="44.90937" lon="5.32552">
        <ele>1348.88</ele>
        <time>2016-06-01T08:33:15Z</time>
      </trkpt>
      <trkpt lat="44.90941" lon="5.32552">
        <ele>1348.91</ele>
        <time>2016-06-01T08:33:38Z</time>
      </trkpt>
      <trkpt lat="44.90938" lon="5.32552">
        <ele>1348.09</ele>
        <time>2016-06-01T08:34:03Z</time>
      </trkpt>
      <trkpt lat="44.90951" lon="5.32563">
        <ele>1348.18</ele>
        <time>2016-06-01T08:34:37Z</time>
      </trkpt>
      <trkpt lat="44.90952" lon="5.32557">
        <ele>1347.93</ele>
        <time>2016-06-01T08:35:11Z</time>
      </trkpt>
      <trkpt lat="44.90951" lon="5.32561">
        <ele>1347.84</ele>
        <time>2016-06-01T08:35:53Z</time>
      </trkpt>
      <trkpt lat="44.9095" lon="5.32562">
        <ele>1348.07</ele>
        <time>2016-06-01T08:36:23Z</time>
      </trkpt>
      <trkpt lat="44.90945" lon="5.32562">
        <ele>1348.84</ele>
        <time>2016-06-01T08:36:39Z</time>
      </trkpt>
      <trkpt lat="44.9093" lon="5.32591">
        <ele>1349.41</ele>
        <time>2016-06-01T08:36:55Z</time>
      </trkpt>
      <trkpt lat="44.90918" lon="5.32623">
        <ele>1350.94</ele>
        <time>2016-06-01T08:37:10Z</time>
      </trkpt>
      <trkpt lat="44.90897" lon="5.32651">
        <ele>1352.39</ele>
        <time>2016-06-01T08:37:26Z</time>
      </trkpt>
      <trkpt lat="44.90877" lon="5.32675">
        <ele>1353.29</ele>
        <time>2016-06-01T08:37:40Z</time>
      </trkpt>
      <trkpt lat="44.90855" lon="5.32698">
        <ele>1354.01</ele>
        <time>2016-06-01T08:37:55Z</time>
      </trkpt>
      <trkpt lat="44.90822" lon="5.32717">
        <ele>1354.99</ele>
        <time>2016-06-01T08:38:14Z</time>
      </trkpt>
      <trkpt lat="44.9078" lon="5.32727">
        <ele>1356.52</ele>
        <time>2016-06-01T08:38:35Z</time>
      </trkpt>
      <trkpt lat="44.90746" lon="5.32722">
        <ele>1358.01</ele>
        <time>2016-06-01T08:38:52Z</time>
      </trkpt>
      <trkpt lat="44.90713" lon="5.32731">
        <ele>1360.25</ele>
        <time>2016-06-01T08:39:10Z</time>
      </trkpt>
      <trkpt lat="44.90687" lon="5.32762">
        <ele>1361.81</ele>
        <time>2016-06-01T08:39:28Z</time>
      </trkpt>
      <trkpt lat="44.90681" lon="5.32805">
        <ele>1363.34</ele>
        <time>2016-06-01T08:39:45Z</time>
      </trkpt>
      <trkpt lat="44.90686" lon="5.32844">
        <ele>1366.1</ele>
        <time>2016-06-01T08:40:00Z</time>
      </trkpt>
      <trkpt lat="44.90687" lon="5.32876">
        <ele>1367.95</ele>
        <time>2016-06-01T08:40:14Z</time>
      </trkpt>
      <trkpt lat="44.90686" lon="5.32903">
        <ele>1369.8</ele>
        <time>2016-06-01T08:40:26Z</time>
      </trkpt>
      <trkpt lat="44.90693" lon="5.32941">
        <ele>1370.54</ele>
        <time>2016-06-01T08:40:40Z</time>
      </trkpt>
      <trkpt lat="44.90705" lon="5.32992">
        <ele>1369.68</ele>
        <time>2016-06-01T08:40:53Z</time>
      </trkpt>
      <trkpt lat="44.90713" lon="5.33034">
        <ele>1368.76</ele>
        <time>2016-06-01T08:41:07Z</time>
      </trkpt>
      <trkpt lat="44.90723" lon="5.33094">
        <ele>1367.7</ele>
        <time>2016-06-01T08:41:20Z</time>
      </trkpt>
      <trkpt lat="44.90721" lon="5.33125">
        <ele>1368.45</ele>
        <time>2016-06-01T08:41:31Z</time>
      </trkpt>
      <trkpt lat="44.90718" lon="5.33161">
        <ele>1371.45</ele>
        <time>2016-06-01T08:41:46Z</time>
      </trkpt>
      <trkpt lat="44.90718" lon="5.33163">
        <ele>1371.76</ele>
        <time>2016-06-01T08:41:47Z</time>
      </trkpt>
      <trkpt lat="44.90727" lon="5.33192">
        <ele>1375.03</ele>
        <time>2016-06-01T08:42:01Z</time>
      </trkpt>
      <trkpt lat="44.90731" lon="5.332">
        <ele>1376.17</ele>
        <time>2016-06-01T08:42:05Z</time>
      </trkpt>
      <trkpt lat="44.90738" lon="5.33227">
        <ele>1379.43</ele>
        <time>2016-06-01T08:42:17Z</time>
      </trkpt>
      <trkpt lat="44.90743" lon="5.3326">
        <ele>1382.59</ele>
        <time>2016-06-01T08:42:31Z</time>
      </trkpt>
      <trkpt lat="44.90742" lon="5.33289">
        <ele>1384.86</ele>
        <time>2016-06-01T08:42:45Z</time>
      </trkpt>
      <trkpt lat="44.90735" lon="5.33322">
        <ele>1386.69</ele>
        <time>2016-06-01T08:43:01Z</time>
      </trkpt>
      <trkpt lat="44.90752" lon="5.33357">
        <ele>1387.66</ele>
        <time>2016-06-01T08:43:15Z</time>
      </trkpt>
      <trkpt lat="44.90786" lon="5.33372">
        <ele>1387.59</ele>
        <time>2016-06-01T08:43:28Z</time>
      </trkpt>
      <trkpt lat="44.90813" lon="5.33377">
        <ele>1389.23</ele>
        <time>2016-06-01T08:43:42Z</time>
      </trkpt>
      <trkpt lat="44.90816" lon="5.33388">
        <ele>1390.4</ele>
        <time>2016-06-01T08:43:47Z</time>
      </trkpt>
      <trkpt lat="44.90816" lon="5.33396">
        <ele>1391.01</ele>
        <time>2016-06-01T08:43:50Z</time>
      </trkpt>
      <trkpt lat="44.90807" lon="5.33415">
        <ele>1392.52</ele>
        <time>2016-06-01T08:44:01Z</time>
      </trkpt>
      <trkpt lat="44.90807" lon="5.33414">
        <ele>1392.88</ele>
        <time>2016-06-01T08:44:11Z</time>
      </trkpt>
      <trkpt lat="44.90808" lon="5.33411">
        <ele>1392.68</ele>
        <time>2016-06-01T08:44:31Z</time>
      </trkpt>
      <trkpt lat="44.90811" lon="5.33404">
        <ele>1392.77</ele>
        <time>2016-06-01T08:44:35Z</time>
      </trkpt>
      <trkpt lat="44.90814" lon="5.33393">
        <ele>1392.2</ele>
        <time>2016-06-01T08:44:46Z</time>
      </trkpt>
      <trkpt lat="44.90815" lon="5.33392">
        <ele>1391.32</ele>
        <time>2016-06-01T08:45:09Z</time>
      </trkpt>
      <trkpt lat="44.90814" lon="5.33394">
        <ele>1391.5</ele>
        <time>2016-06-01T08:45:37Z</time>
      </trkpt>
      <trkpt lat="44.90818" lon="5.33394">
        <ele>1391.39</ele>
        <time>2016-06-01T08:46:09Z</time>
      </trkpt>
      <trkpt lat="44.90818" lon="5.33393">
        <ele>1391.74</ele>
        <time>2016-06-01T08:46:47Z</time>
      </trkpt>
      <trkpt lat="44.90817" lon="5.33392">
        <ele>1391.29</ele>
        <time>2016-06-01T08:47:19Z</time>
      </trkpt>
      <trkpt lat="44.90817" lon="5.33396">
        <ele>1391.29</ele>
        <time>2016-06-01T08:47:50Z</time>
      </trkpt>
      <trkpt lat="44.90818" lon="5.33395">
        <ele>1391.57</ele>
        <time>2016-06-01T08:48:23Z</time>
      </trkpt>
      <trkpt lat="44.90816" lon="5.33392">
        <ele>1391.4</ele>
        <time>2016-06-01T08:49:00Z</time>
      </trkpt>
      <trkpt lat="44.90819" lon="5.33394">
        <ele>1391.28</ele>
        <time>2016-06-01T08:49:30Z</time>
      </trkpt>
      <trkpt lat="44.9082" lon="5.33392">
        <ele>1391.15</ele>
        <time>2016-06-01T08:50:04Z</time>
      </trkpt>
      <trkpt lat="44.9082" lon="5.33396">
        <ele>1391.29</ele>
        <time>2016-06-01T08:50:39Z</time>
      </trkpt>
      <trkpt lat="44.90816" lon="5.33388">
        <ele>1391.56</ele>
        <time>2016-06-01T08:51:13Z</time>
      </trkpt>
      <trkpt lat="44.90814" lon="5.33388">
        <ele>1391.64</ele>
        <time>2016-06-01T08:51:47Z</time>
      </trkpt>
      <trkpt lat="44.90814" lon="5.33389">
        <ele>1391.43</ele>
        <time>2016-06-01T08:52:20Z</time>
      </trkpt>
      <trkpt lat="44.90815" lon="5.33389">
        <ele>1391.85</ele>
        <time>2016-06-01T08:52:52Z</time>
      </trkpt>
      <trkpt lat="44.90814" lon="5.33392">
        <ele>1391.82</ele>
        <time>2016-06-01T08:53:20Z</time>
      </trkpt>
      <trkpt lat="44.90816" lon="5.33393">
        <ele>1391.75</ele>
        <time>2016-06-01T08:53:50Z</time>
      </trkpt>
      <trkpt lat="44.90816" lon="5.33395">
        <ele>1392.06</ele>
        <time>2016-06-01T08:54:13Z</time>
      </trkpt>
      <trkpt lat="44.90808" lon="5.33394">
        <ele>1392.09</ele>
        <time>2016-06-01T08:54:37Z</time>
      </trkpt>
      <trkpt lat="44.9081" lon="5.33393">
        <ele>1392.18</ele>
        <time>2016-06-01T08:54:55Z</time>
      </trkpt>
      <trkpt lat="44.90811" lon="5.33395">
        <ele>1392.24</ele>
        <time>2016-06-01T08:54:57Z</time>
      </trkpt>
      <trkpt lat="44.90812" lon="5.33396">
        <ele>1392.26</ele>
        <time>2016-06-01T08:54:58Z</time>
      </trkpt>
      <trkpt lat="44.90812" lon="5.33398">
        <ele>1392.3</ele>
        <time>2016-06-01T08:54:59Z</time>
      </trkpt>
      <trkpt lat="44.90812" lon="5.33401">
        <ele>1392.33</ele>
        <time>2016-06-01T08:55:00Z</time>
      </trkpt>
      <trkpt lat="44.90811" lon="5.33404">
        <ele>1392.35</ele>
        <time>2016-06-01T08:55:01Z</time>
      </trkpt>
      <trkpt lat="44.9081" lon="5.33406">
        <ele>1392.36</ele>
        <time>2016-06-01T08:55:02Z</time>
      </trkpt>
      <trkpt lat="44.90787" lon="5.33435">
        <ele>1393.32</ele>
        <time>2016-06-01T08:55:16Z</time>
      </trkpt>
      <trkpt lat="44.90759" lon="5.33468">
        <ele>1395.33</ele>
        <time>2016-06-01T08:55:34Z</time>
      </trkpt>
      <trkpt lat="44.90728" lon="5.33492">
        <ele>1398.17</ele>
        <time>2016-06-01T08:55:54Z</time>
      </trkpt>
      <trkpt lat="44.90724" lon="5.33494">
        <ele>1398.43</ele>
        <time>2016-06-01T08:55:56Z</time>
      </trkpt>
      <trkpt lat="44.90722" lon="5.33494">
        <ele>1398.57</ele>
        <time>2016-06-01T08:55:57Z</time>
      </trkpt>
      <trkpt lat="44.90683" lon="5.3349">
        <ele>1401.29</ele>
        <time>2016-06-01T08:56:17Z</time>
      </trkpt>
      <trkpt lat="44.90651" lon="5.33488">
        <ele>1403.25</ele>
        <time>2016-06-01T08:56:34Z</time>
      </trkpt>
      <trkpt lat="44.90624" lon="5.33493">
        <ele>1405</ele>
        <time>2016-06-01T08:56:49Z</time>
      </trkpt>
      <trkpt lat="44.90596" lon="5.33518">
        <ele>1406.92</ele>
        <time>2016-06-01T08:57:07Z</time>
      </trkpt>
      <trkpt lat="44.90581" lon="5.33553">
        <ele>1408.11</ele>
        <time>2016-06-01T08:57:21Z</time>
      </trkpt>
      <trkpt lat="44.90576" lon="5.33611">
        <ele>1407.86</ele>
        <time>2016-06-01T08:57:37Z</time>
      </trkpt>
      <trkpt lat="44.90569" lon="5.33667">
        <ele>1406.36</ele>
        <time>2016-06-01T08:57:48Z</time>
      </trkpt>
      <trkpt lat="44.90568" lon="5.33679">
        <ele>1406.11</ele>
        <time>2016-06-01T08:57:50Z</time>
      </trkpt>
      <trkpt lat="44.90565" lon="5.33699">
        <ele>1405.74</ele>
        <time>2016-06-01T08:57:53Z</time>
      </trkpt>
      <trkpt lat="44.90553" lon="5.33761">
        <ele>1403.92</ele>
        <time>2016-06-01T08:58:06Z</time>
      </trkpt>
      <trkpt lat="44.90548" lon="5.33797">
        <ele>1401.49</ele>
        <time>2016-06-01T08:58:17Z</time>
      </trkpt>
      <trkpt lat="44.90546" lon="5.33803">
        <ele>1401.09</ele>
        <time>2016-06-01T08:58:18Z</time>
      </trkpt>
      <trkpt lat="44.90545" lon="5.33809">
        <ele>1400.69</ele>
        <time>2016-06-01T08:58:19Z</time>
      </trkpt>
      <trkpt lat="44.90544" lon="5.33815">
        <ele>1400.3</ele>
        <time>2016-06-01T08:58:20Z</time>
      </trkpt>
      <trkpt lat="44.90542" lon="5.3382">
        <ele>1399.9</ele>
        <time>2016-06-01T08:58:21Z</time>
      </trkpt>
      <trkpt lat="44.9054" lon="5.33826">
        <ele>1399.49</ele>
        <time>2016-06-01T08:58:22Z</time>
      </trkpt>
      <trkpt lat="44.90538" lon="5.33832">
        <ele>1399.08</ele>
        <time>2016-06-01T08:58:23Z</time>
      </trkpt>
      <trkpt lat="44.90537" lon="5.33839">
        <ele>1398.68</ele>
        <time>2016-06-01T08:58:24Z</time>
      </trkpt>
      <trkpt lat="44.90536" lon="5.33845">
        <ele>1398.26</ele>
        <time>2016-06-01T08:58:25Z</time>
      </trkpt>
      <trkpt lat="44.90534" lon="5.33851">
        <ele>1397.73</ele>
        <time>2016-06-01T08:58:26Z</time>
      </trkpt>
      <trkpt lat="44.90524" lon="5.33874">
        <ele>1394.38</ele>
        <time>2016-06-01T08:58:32Z</time>
      </trkpt>
      <trkpt lat="44.90522" lon="5.33877">
        <ele>1394.38</ele>
        <time>2016-06-01T08:58:33Z</time>
      </trkpt>
      <trkpt lat="44.90517" lon="5.33889">
        <ele>1392.3</ele>
        <time>2016-06-01T08:58:36Z</time>
      </trkpt>
      <trkpt lat="44.90512" lon="5.33941">
        <ele>1388.54</ele>
        <time>2016-06-01T08:58:42Z</time>
      </trkpt>
      <trkpt lat="44.90507" lon="5.33983">
        <ele>1385.71</ele>
        <time>2016-06-01T08:58:47Z</time>
      </trkpt>
      <trkpt lat="44.90505" lon="5.33999">
        <ele>1384.96</ele>
        <time>2016-06-01T08:58:49Z</time>
      </trkpt>
      <trkpt lat="44.90497" lon="5.34062">
        <ele>1382.85</ele>
        <time>2016-06-01T08:58:59Z</time>
      </trkpt>
      <trkpt lat="44.90491" lon="5.34116">
        <ele>1383.16</ele>
        <time>2016-06-01T08:59:10Z</time>
      </trkpt>
      <trkpt lat="44.90485" lon="5.3416">
        <ele>1384.55</ele>
        <time>2016-06-01T08:59:22Z</time>
      </trkpt>
      <trkpt lat="44.90484" lon="5.3417">
        <ele>1385.71</ele>
        <time>2016-06-01T08:59:35Z</time>
      </trkpt>
      <trkpt lat="44.90484" lon="5.34171">
        <ele>1385.68</ele>
        <time>2016-06-01T08:59:39Z</time>
      </trkpt>
      <trkpt lat="44.90475" lon="5.34172">
        <ele>1385.31</ele>
        <time>2016-06-01T09:00:01Z</time>
      </trkpt>
      <trkpt lat="44.90481" lon="5.34173">
        <ele>1384.12</ele>
        <time>2016-06-01T09:00:20Z</time>
      </trkpt>
      <trkpt lat="44.90483" lon="5.34176">
        <ele>1384</ele>
        <time>2016-06-01T09:00:44Z</time>
      </trkpt>
      <trkpt lat="44.90485" lon="5.34176">
        <ele>1384.29</ele>
        <time>2016-06-01T09:01:09Z</time>
      </trkpt>
      <trkpt lat="44.90483" lon="5.34175">
        <ele>1384.22</ele>
        <time>2016-06-01T09:01:47Z</time>
      </trkpt>
      <trkpt lat="44.9048" lon="5.34173">
        <ele>1384.73</ele>
        <time>2016-06-01T09:02:20Z</time>
      </trkpt>
      <trkpt lat="44.90482" lon="5.34174">
        <ele>1385.78</ele>
        <time>2016-06-01T09:02:41Z</time>
      </trkpt>
      <trkpt lat="44.90483" lon="5.34173">
        <ele>1385.65</ele>
        <time>2016-06-01T09:03:01Z</time>
      </trkpt>
      <trkpt lat="44.90483" lon="5.34173">
        <ele>1385.57</ele>
        <time>2016-06-01T09:03:19Z</time>
      </trkpt>
      <trkpt lat="44.90482" lon="5.34172">
        <ele>1385.59</ele>
        <time>2016-06-01T09:03:40Z</time>
      </trkpt>
      <trkpt lat="44.90482" lon="5.34172">
        <ele>1385.61</ele>
        <time>2016-06-01T09:04:02Z</time>
      </trkpt>
      <trkpt lat="44.90481" lon="5.34173">
        <ele>1385.53</ele>
        <time>2016-06-01T09:04:19Z</time>
      </trkpt>
      <trkpt lat="44.90479" lon="5.34181">
        <ele>1385.55</ele>
        <time>2016-06-01T09:04:22Z</time>
      </trkpt>
      <trkpt lat="44.90471" lon="5.34197">
        <ele>1384.66</ele>
        <time>2016-06-01T09:04:27Z</time>
      </trkpt>
      <trkpt lat="44.90468" lon="5.34225">
        <ele>1380.98</ele>
        <time>2016-06-01T09:04:36Z</time>
      </trkpt>
      <trkpt lat="44.90462" lon="5.3426">
        <ele>1378.58</ele>
        <time>2016-06-01T09:04:44Z</time>
      </trkpt>
      <trkpt lat="44.90458" lon="5.34303">
        <ele>1375.04</ele>
        <time>2016-06-01T09:04:52Z</time>
      </trkpt>
      <trkpt lat="44.90454" lon="5.34322">
        <ele>1372.92</ele>
        <time>2016-06-01T09:04:56Z</time>
      </trkpt>
      <trkpt lat="44.90454" lon="5.34342">
        <ele>1370.97</ele>
        <time>2016-06-01T09:04:59Z</time>
      </trkpt>
      <trkpt lat="44.90456" lon="5.34367">
        <ele>1367.8</ele>
        <time>2016-06-01T09:05:03Z</time>
      </trkpt>
      <trkpt lat="44.90459" lon="5.34401">
        <ele>1364.77</ele>
        <time>2016-06-01T09:05:08Z</time>
      </trkpt>
      <trkpt lat="44.90462" lon="5.34442">
        <ele>1360.9</ele>
        <time>2016-06-01T09:05:13Z</time>
      </trkpt>
      <trkpt lat="44.90466" lon="5.34482">
        <ele>1357.39</ele>
        <time>2016-06-01T09:05:17Z</time>
      </trkpt>
      <trkpt lat="44.90468" lon="5.34528">
        <ele>1353.73</ele>
        <time>2016-06-01T09:05:22Z</time>
      </trkpt>
      <trkpt lat="44.9047" lon="5.34567">
        <ele>1350.37</ele>
        <time>2016-06-01T09:05:26Z</time>
      </trkpt>
      <trkpt lat="44.9047" lon="5.34618">
        <ele>1347.21</ele>
        <time>2016-06-01T09:05:31Z</time>
      </trkpt>
      <trkpt lat="44.90473" lon="5.34661">
        <ele>1344.74</ele>
        <time>2016-06-01T09:05:35Z</time>
      </trkpt>
      <trkpt lat="44.90479" lon="5.34695">
        <ele>1342.43</ele>
        <time>2016-06-01T09:05:38Z</time>
      </trkpt>
      <trkpt lat="44.90493" lon="5.34763">
        <ele>1338.23</ele>
        <time>2016-06-01T09:05:45Z</time>
      </trkpt>
      <trkpt lat="44.90495" lon="5.34781">
        <ele>1337.33</ele>
        <time>2016-06-01T09:05:47Z</time>
      </trkpt>
      <trkpt lat="44.90499" lon="5.34807">
        <ele>1336.1</ele>
        <time>2016-06-01T09:05:50Z</time>
      </trkpt>
      <trkpt lat="44.90497" lon="5.34899">
        <ele>1332.18</ele>
        <time>2016-06-01T09:05:59Z</time>
      </trkpt>
      <trkpt lat="44.90501" lon="5.34935">
        <ele>1329.48</ele>
        <time>2016-06-01T09:06:03Z</time>
      </trkpt>
      <trkpt lat="44.90507" lon="5.34967">
        <ele>1327.49</ele>
        <time>2016-06-01T09:06:07Z</time>
      </trkpt>
      <trkpt lat="44.90515" lon="5.34997">
        <ele>1324.58</ele>
        <time>2016-06-01T09:06:12Z</time>
      </trkpt>
      <trkpt lat="44.9052" lon="5.35006">
        <ele>1322.49</ele>
        <time>2016-06-01T09:06:15Z</time>
      </trkpt>
      <trkpt lat="44.9052" lon="5.35024">
        <ele>1320.57</ele>
        <time>2016-06-01T09:06:20Z</time>
      </trkpt>
      <trkpt lat="44.90523" lon="5.35034">
        <ele>1319.57</ele>
        <time>2016-06-01T09:06:22Z</time>
      </trkpt>
      <trkpt lat="44.90526" lon="5.35082">
        <ele>1316.01</ele>
        <time>2016-06-01T09:06:28Z</time>
      </trkpt>
      <trkpt lat="44.90521" lon="5.35114">
        <ele>1312.85</ele>
        <time>2016-06-01T09:06:32Z</time>
      </trkpt>
      <trkpt lat="44.90507" lon="5.35159">
        <ele>1308.62</ele>
        <time>2016-06-01T09:06:38Z</time>
      </trkpt>
      <trkpt lat="44.90505" lon="5.35165">
        <ele>1308.62</ele>
        <time>2016-06-01T09:06:39Z</time>
      </trkpt>
      <trkpt lat="44.90489" lon="5.35197">
        <ele>1307.06</ele>
        <time>2016-06-01T09:06:50Z</time>
      </trkpt>
      <trkpt lat="44.90483" lon="5.35199">
        <ele>1307.3</ele>
        <time>2016-06-01T09:07:00Z</time>
      </trkpt>
      <trkpt lat="44.90481" lon="5.352">
        <ele>1307.71</ele>
        <time>2016-06-01T09:07:18Z</time>
      </trkpt>
      <trkpt lat="44.9048" lon="5.35199">
        <ele>1307.79</ele>
        <time>2016-06-01T09:07:41Z</time>
      </trkpt>
      <trkpt lat="44.90481" lon="5.352">
        <ele>1307.47</ele>
        <time>2016-06-01T09:08:06Z</time>
      </trkpt>
      <trkpt lat="44.90487" lon="5.35205">
        <ele>1307.47</ele>
        <time>2016-06-01T09:08:13Z</time>
      </trkpt>
      <trkpt lat="44.90527" lon="5.3525">
        <ele>1306.51</ele>
        <time>2016-06-01T09:08:27Z</time>
      </trkpt>
      <trkpt lat="44.90537" lon="5.35264">
        <ele>1305.68</ele>
        <time>2016-06-01T09:08:30Z</time>
      </trkpt>
      <trkpt lat="44.90577" lon="5.35361">
        <ele>1302.09</ele>
        <time>2016-06-01T09:08:43Z</time>
      </trkpt>
      <trkpt lat="44.90581" lon="5.35368">
        <ele>1301.96</ele>
        <time>2016-06-01T09:08:44Z</time>
      </trkpt>
      <trkpt lat="44.90598" lon="5.3539">
        <ele>1301.79</ele>
        <time>2016-06-01T09:08:48Z</time>
      </trkpt>
      <trkpt lat="44.90612" lon="5.35446">
        <ele>1303.15</ele>
        <time>2016-06-01T09:08:59Z</time>
      </trkpt>
      <trkpt lat="44.9062" lon="5.35469">
        <ele>1303.4</ele>
        <time>2016-06-01T09:09:03Z</time>
      </trkpt>
      <trkpt lat="44.90664" lon="5.35527">
        <ele>1305.27</ele>
        <time>2016-06-01T09:09:18Z</time>
      </trkpt>
      <trkpt lat="44.90682" lon="5.35587">
        <ele>1307.63</ele>
        <time>2016-06-01T09:09:32Z</time>
      </trkpt>
      <trkpt lat="44.90704" lon="5.35631">
        <ele>1309.87</ele>
        <time>2016-06-01T09:09:48Z</time>
      </trkpt>
      <trkpt lat="44.90721" lon="5.35659">
        <ele>1311.92</ele>
        <time>2016-06-01T09:09:59Z</time>
      </trkpt>
      <trkpt lat="44.90714" lon="5.35668">
        <ele>1312.88</ele>
        <time>2016-06-01T09:10:11Z</time>
      </trkpt>
      <trkpt lat="44.90714" lon="5.35667">
        <ele>1312.86</ele>
        <time>2016-06-01T09:10:39Z</time>
      </trkpt>
      <trkpt lat="44.90717" lon="5.35674">
        <ele>1312.65</ele>
        <time>2016-06-01T09:10:54Z</time>
      </trkpt>
      <trkpt lat="44.90716" lon="5.35683">
        <ele>1311.85</ele>
        <time>2016-06-01T09:11:07Z</time>
      </trkpt>
      <trkpt lat="44.90716" lon="5.35682">
        <ele>1311.23</ele>
        <time>2016-06-01T09:11:25Z</time>
      </trkpt>
      <trkpt lat="44.90716" lon="5.35683">
        <ele>1311.15</ele>
        <time>2016-06-01T09:11:48Z</time>
      </trkpt>
      <trkpt lat="44.90715" lon="5.35683">
        <ele>1311.43</ele>
        <time>2016-06-01T09:12:14Z</time>
      </trkpt>
      <trkpt lat="44.90715" lon="5.35683">
        <ele>1311</ele>
        <time>2016-06-01T09:12:53Z</time>
      </trkpt>
      <trkpt lat="44.90716" lon="5.35683">
        <ele>1311.28</ele>
        <time>2016-06-01T09:13:19Z</time>
      </trkpt>
      <trkpt lat="44.90715" lon="5.35683">
        <ele>1311.28</ele>
        <time>2016-06-01T09:13:38Z</time>
      </trkpt>
      <trkpt lat="44.90714" lon="5.35684">
        <ele>1311.16</ele>
        <time>2016-06-01T09:14:08Z</time>
      </trkpt>
      <trkpt lat="44.90714" lon="5.35685">
        <ele>1311.1</ele>
        <time>2016-06-01T09:14:11Z</time>
      </trkpt>
      <trkpt lat="44.90714" lon="5.35689">
        <ele>1311.05</ele>
        <time>2016-06-01T09:14:13Z</time>
      </trkpt>
      <trkpt lat="44.90714" lon="5.35692">
        <ele>1311</ele>
        <time>2016-06-01T09:14:14Z</time>
      </trkpt>
      <trkpt lat="44.90715" lon="5.35695">
        <ele>1310.91</ele>
        <time>2016-06-01T09:14:15Z</time>
      </trkpt>
      <trkpt lat="44.90716" lon="5.35698">
        <ele>1310.77</ele>
        <time>2016-06-01T09:14:16Z</time>
      </trkpt>
      <trkpt lat="44.90717" lon="5.357">
        <ele>1310.63</ele>
        <time>2016-06-01T09:14:17Z</time>
      </trkpt>
      <trkpt lat="44.90718" lon="5.35703">
        <ele>1310.52</ele>
        <time>2016-06-01T09:14:18Z</time>
      </trkpt>
      <trkpt lat="44.90719" lon="5.35707">
        <ele>1310.41</ele>
        <time>2016-06-01T09:14:19Z</time>
      </trkpt>
      <trkpt lat="44.9072" lon="5.35712">
        <ele>1310.32</ele>
        <time>2016-06-01T09:14:20Z</time>
      </trkpt>
      <trkpt lat="44.9072" lon="5.35718">
        <ele>1310.22</ele>
        <time>2016-06-01T09:14:21Z</time>
      </trkpt>
      <trkpt lat="44.90739" lon="5.35799">
        <ele>1307.36</ele>
        <time>2016-06-01T09:14:33Z</time>
      </trkpt>
      <trkpt lat="44.90744" lon="5.35814">
        <ele>1306.69</ele>
        <time>2016-06-01T09:14:35Z</time>
      </trkpt>
      <trkpt lat="44.90744" lon="5.35822">
        <ele>1306.31</ele>
        <time>2016-06-01T09:14:36Z</time>
      </trkpt>
      <trkpt lat="44.90744" lon="5.35831">
        <ele>1305.93</ele>
        <time>2016-06-01T09:14:37Z</time>
      </trkpt>
      <trkpt lat="44.90742" lon="5.3584">
        <ele>1305.14</ele>
        <time>2016-06-01T09:14:38Z</time>
      </trkpt>
      <trkpt lat="44.9074" lon="5.35848">
        <ele>1304.72</ele>
        <time>2016-06-01T09:14:39Z</time>
      </trkpt>
      <trkpt lat="44.90738" lon="5.35856">
        <ele>1304.3</ele>
        <time>2016-06-01T09:14:40Z</time>
      </trkpt>
      <trkpt lat="44.90735" lon="5.35864">
        <ele>1303.9</ele>
        <time>2016-06-01T09:14:41Z</time>
      </trkpt>
      <trkpt lat="44.90731" lon="5.3588">
        <ele>1303.09</ele>
        <time>2016-06-01T09:14:43Z</time>
      </trkpt>
      <trkpt lat="44.9073" lon="5.35889">
        <ele>1302.64</ele>
        <time>2016-06-01T09:14:44Z</time>
      </trkpt>
      <trkpt lat="44.9073" lon="5.35898">
        <ele>1302.21</ele>
        <time>2016-06-01T09:14:45Z</time>
      </trkpt>
      <trkpt lat="44.90731" lon="5.35943">
        <ele>1299.99</ele>
        <time>2016-06-01T09:14:50Z</time>
      </trkpt>
      <trkpt lat="44.9073" lon="5.35958">
        <ele>1299</ele>
        <time>2016-06-01T09:14:52Z</time>
      </trkpt>
      <trkpt lat="44.90729" lon="5.35966">
        <ele>1298.49</ele>
        <time>2016-06-01T09:14:53Z</time>
      </trkpt>
      <trkpt lat="44.90726" lon="5.35973">
        <ele>1297.99</ele>
        <time>2016-06-01T09:14:54Z</time>
      </trkpt>
      <trkpt lat="44.90724" lon="5.3598">
        <ele>1297.47</ele>
        <time>2016-06-01T09:14:55Z</time>
      </trkpt>
      <trkpt lat="44.90722" lon="5.35987">
        <ele>1296.97</ele>
        <time>2016-06-01T09:14:56Z</time>
      </trkpt>
      <trkpt lat="44.9072" lon="5.35993">
        <ele>1296.48</ele>
        <time>2016-06-01T09:14:57Z</time>
      </trkpt>
      <trkpt lat="44.90719" lon="5.36">
        <ele>1295.97</ele>
        <time>2016-06-01T09:14:58Z</time>
      </trkpt>
      <trkpt lat="44.90719" lon="5.36006">
        <ele>1295.45</ele>
        <time>2016-06-01T09:14:59Z</time>
      </trkpt>
      <trkpt lat="44.9072" lon="5.36013">
        <ele>1294.92</ele>
        <time>2016-06-01T09:15:00Z</time>
      </trkpt>
      <trkpt lat="44.9072" lon="5.36021">
        <ele>1294.4</ele>
        <time>2016-06-01T09:15:01Z</time>
      </trkpt>
      <trkpt lat="44.9072" lon="5.36037">
        <ele>1293.34</ele>
        <time>2016-06-01T09:15:03Z</time>
      </trkpt>
      <trkpt lat="44.90721" lon="5.36045">
        <ele>1292.43</ele>
        <time>2016-06-01T09:15:04Z</time>
      </trkpt>
      <trkpt lat="44.90722" lon="5.36053">
        <ele>1292.01</ele>
        <time>2016-06-01T09:15:05Z</time>
      </trkpt>
      <trkpt lat="44.90724" lon="5.3606">
        <ele>1291.61</ele>
        <time>2016-06-01T09:15:06Z</time>
      </trkpt>
      <trkpt lat="44.90727" lon="5.36067">
        <ele>1291.21</ele>
        <time>2016-06-01T09:15:07Z</time>
      </trkpt>
      <trkpt lat="44.9073" lon="5.36074">
        <ele>1290.81</ele>
        <time>2016-06-01T09:15:08Z</time>
      </trkpt>
      <trkpt lat="44.90737" lon="5.3609">
        <ele>1290</ele>
        <time>2016-06-01T09:15:10Z</time>
      </trkpt>
      <trkpt lat="44.90742" lon="5.36096">
        <ele>1289.55</ele>
        <time>2016-06-01T09:15:11Z</time>
      </trkpt>
      <trkpt lat="44.90754" lon="5.36114">
        <ele>1287.73</ele>
        <time>2016-06-01T09:15:15Z</time>
      </trkpt>
      <trkpt lat="44.90754" lon="5.36118">
        <ele>1287.22</ele>
        <time>2016-06-01T09:15:16Z</time>
      </trkpt>
      <trkpt lat="44.90752" lon="5.36121">
        <ele>1286.7</ele>
        <time>2016-06-01T09:15:17Z</time>
      </trkpt>
      <trkpt lat="44.9075" lon="5.36122">
        <ele>1286.17</ele>
        <time>2016-06-01T09:15:18Z</time>
      </trkpt>
      <trkpt lat="44.90747" lon="5.36121">
        <ele>1285.71</ele>
        <time>2016-06-01T09:15:19Z</time>
      </trkpt>
      <trkpt lat="44.90745" lon="5.36118">
        <ele>1285.33</ele>
        <time>2016-06-01T09:15:20Z</time>
      </trkpt>
      <trkpt lat="44.9071" lon="5.36076">
        <ele>1282.71</ele>
        <time>2016-06-01T09:15:30Z</time>
      </trkpt>
      <trkpt lat="44.90701" lon="5.36061">
        <ele>1281.69</ele>
        <time>2016-06-01T09:15:33Z</time>
      </trkpt>
      <trkpt lat="44.90688" lon="5.36044">
        <ele>1279.98</ele>
        <time>2016-06-01T09:15:42Z</time>
      </trkpt>
      <trkpt lat="44.90687" lon="5.36044">
        <ele>1279.31</ele>
        <time>2016-06-01T09:15:54Z</time>
      </trkpt>
      <trkpt lat="44.90687" lon="5.3604">
        <ele>1279.21</ele>
        <time>2016-06-01T09:16:19Z</time>
      </trkpt>
      <trkpt lat="44.90687" lon="5.36038">
        <ele>1279.24</ele>
        <time>2016-06-01T09:16:20Z</time>
      </trkpt>
      <trkpt lat="44.90687" lon="5.36036">
        <ele>1279.27</ele>
        <time>2016-06-01T09:16:21Z</time>
      </trkpt>
      <trkpt lat="44.90686" lon="5.35994">
        <ele>1279.45</ele>
        <time>2016-06-01T09:16:37Z</time>
      </trkpt>
      <trkpt lat="44.90679" lon="5.35972">
        <ele>1279.51</ele>
        <time>2016-06-01T09:16:43Z</time>
      </trkpt>
      <trkpt lat="44.90679" lon="5.35965">
        <ele>1279.64</ele>
        <time>2016-06-01T09:16:53Z</time>
      </trkpt>
      <trkpt lat="44.90679" lon="5.35963">
        <ele>1279.62</ele>
        <time>2016-06-01T09:16:59Z</time>
      </trkpt>
      <trkpt lat="44.90676" lon="5.35935">
        <ele>1279.7</ele>
        <time>2016-06-01T09:17:12Z</time>
      </trkpt>
      <trkpt lat="44.90674" lon="5.35931">
        <ele>1279.65</ele>
        <time>2016-06-01T09:17:19Z</time>
      </trkpt>
      <trkpt lat="44.90668" lon="5.35919">
        <ele>1280.19</ele>
        <time>2016-06-01T09:17:35Z</time>
      </trkpt>
      <trkpt lat="44.90663" lon="5.3591">
        <ele>1279.77</ele>
        <time>2016-06-01T09:17:57Z</time>
      </trkpt>
      <trkpt lat="44.90672" lon="5.35919">
        <ele>1279.69</ele>
        <time>2016-06-01T09:18:17Z</time>
      </trkpt>
      <trkpt lat="44.90671" lon="5.3592">
        <ele>1279.83</ele>
        <time>2016-06-01T09:18:33Z</time>
      </trkpt>
      <trkpt lat="44.90675" lon="5.35932">
        <ele>1279.77</ele>
        <time>2016-06-01T09:18:56Z</time>
      </trkpt>
      <trkpt lat="44.90678" lon="5.35935">
        <ele>1279.63</ele>
        <time>2016-06-01T09:19:01Z</time>
      </trkpt>
      <trkpt lat="44.90676" lon="5.35937">
        <ele>1279.62</ele>
        <time>2016-06-01T09:19:03Z</time>
      </trkpt>
      <trkpt lat="44.90665" lon="5.35961">
        <ele>1278.3</ele>
        <time>2016-06-01T09:19:15Z</time>
      </trkpt>
      <trkpt lat="44.90665" lon="5.35967">
        <ele>1276.74</ele>
        <time>2016-06-01T09:19:21Z</time>
      </trkpt>
      <trkpt lat="44.90661" lon="5.35969">
        <ele>1276.16</ele>
        <time>2016-06-01T09:19:24Z</time>
      </trkpt>
      <trkpt lat="44.90658" lon="5.35975">
        <ele>1275.26</ele>
        <time>2016-06-01T09:19:28Z</time>
      </trkpt>
      <trkpt lat="44.90658" lon="5.35995">
        <ele>1271.62</ele>
        <time>2016-06-01T09:19:37Z</time>
      </trkpt>
      <trkpt lat="44.90657" lon="5.36018">
        <ele>1268.13</ele>
        <time>2016-06-01T09:19:46Z</time>
      </trkpt>
      <trkpt lat="44.90657" lon="5.36032">
        <ele>1264.78</ele>
        <time>2016-06-01T09:19:54Z</time>
      </trkpt>
      <trkpt lat="44.90653" lon="5.36039">
        <ele>1261.78</ele>
        <time>2016-06-01T09:20:03Z</time>
      </trkpt>
      <trkpt lat="44.9065" lon="5.36048">
        <ele>1259.25</ele>
        <time>2016-06-01T09:20:17Z</time>
      </trkpt>
      <trkpt lat="44.90644" lon="5.36055">
        <ele>1256.29</ele>
        <time>2016-06-01T09:20:35Z</time>
      </trkpt>
      <trkpt lat="44.90642" lon="5.36057">
        <ele>1255.97</ele>
        <time>2016-06-01T09:20:40Z</time>
      </trkpt>
      <trkpt lat="44.90626" lon="5.36069">
        <ele>1252.81</ele>
        <time>2016-06-01T09:20:51Z</time>
      </trkpt>
      <trkpt lat="44.90615" lon="5.36078">
        <ele>1249.57</ele>
        <time>2016-06-01T09:20:57Z</time>
      </trkpt>
      <trkpt lat="44.90609" lon="5.36083">
        <ele>1246.44</ele>
        <time>2016-06-01T09:21:02Z</time>
      </trkpt>
      <trkpt lat="44.90596" lon="5.36091">
        <ele>1243.24</ele>
        <time>2016-06-01T09:21:09Z</time>
      </trkpt>
      <trkpt lat="44.90584" lon="5.36091">
        <ele>1240.2</ele>
        <time>2016-06-01T09:21:14Z</time>
      </trkpt>
      <trkpt lat="44.90572" lon="5.36093">
        <ele>1236.99</ele>
        <time>2016-06-01T09:21:19Z</time>
      </trkpt>
      <trkpt lat="44.90562" lon="5.36096">
        <ele>1233.89</ele>
        <time>2016-06-01T09:21:24Z</time>
      </trkpt>
      <trkpt lat="44.90549" lon="5.36104">
        <ele>1230.73</ele>
        <time>2016-06-01T09:21:30Z</time>
      </trkpt>
      <trkpt lat="44.90536" lon="5.36108">
        <ele>1227.22</ele>
        <time>2016-06-01T09:21:36Z</time>
      </trkpt>
      <trkpt lat="44.9053" lon="5.36111">
        <ele>1224.1</ele>
        <time>2016-06-01T09:21:40Z</time>
      </trkpt>
      <trkpt lat="44.90518" lon="5.36109">
        <ele>1220.84</ele>
        <time>2016-06-01T09:21:45Z</time>
      </trkpt>
      <trkpt lat="44.90508" lon="5.36109">
        <ele>1217.56</ele>
        <time>2016-06-01T09:21:50Z</time>
      </trkpt>
      <trkpt lat="44.905" lon="5.36113">
        <ele>1214.45</ele>
        <time>2016-06-01T09:21:55Z</time>
      </trkpt>
      <trkpt lat="44.9049" lon="5.36117">
        <ele>1211.03</ele>
        <time>2016-06-01T09:22:01Z</time>
      </trkpt>
      <trkpt lat="44.90483" lon="5.36122">
        <ele>1207.75</ele>
        <time>2016-06-01T09:22:06Z</time>
      </trkpt>
      <trkpt lat="44.90472" lon="5.36126">
        <ele>1204.45</ele>
        <time>2016-06-01T09:22:12Z</time>
      </trkpt>
      <trkpt lat="44.90458" lon="5.36128">
        <ele>1201</ele>
        <time>2016-06-01T09:22:18Z</time>
      </trkpt>
      <trkpt lat="44.90446" lon="5.3613">
        <ele>1197.89</ele>
        <time>2016-06-01T09:22:25Z</time>
      </trkpt>
      <trkpt lat="44.90438" lon="5.36133">
        <ele>1194.87</ele>
        <time>2016-06-01T09:22:31Z</time>
      </trkpt>
      <trkpt lat="44.90425" lon="5.36139">
        <ele>1191.76</ele>
        <time>2016-06-01T09:22:38Z</time>
      </trkpt>
      <trkpt lat="44.90413" lon="5.36145">
        <ele>1188.51</ele>
        <time>2016-06-01T09:22:46Z</time>
      </trkpt>
      <trkpt lat="44.90408" lon="5.36147">
        <ele>1186.34</ele>
        <time>2016-06-01T09:22:51Z</time>
      </trkpt>
      <trkpt lat="44.90403" lon="5.36152">
        <ele>1183.26</ele>
        <time>2016-06-01T09:23:00Z</time>
      </trkpt>
      <trkpt lat="44.90399" lon="5.36158">
        <ele>1181.75</ele>
        <time>2016-06-01T09:23:08Z</time>
      </trkpt>
      <trkpt lat="44.90396" lon="5.3616">
        <ele>1180.98</ele>
        <time>2016-06-01T09:23:11Z</time>
      </trkpt>
      <trkpt lat="44.90396" lon="5.36171">
        <ele>1177.65</ele>
        <time>2016-06-01T09:23:23Z</time>
      </trkpt>
      <trkpt lat="44.90394" lon="5.3618">
        <ele>1175</ele>
        <time>2016-06-01T09:23:33Z</time>
      </trkpt>
      <trkpt lat="44.90392" lon="5.36186">
        <ele>1173.52</ele>
        <time>2016-06-01T09:23:38Z</time>
      </trkpt>
      <trkpt lat="44.90384" lon="5.36191">
        <ele>1170.22</ele>
        <time>2016-06-01T09:23:48Z</time>
      </trkpt>
      <trkpt lat="44.90375" lon="5.36194">
        <ele>1167.09</ele>
        <time>2016-06-01T09:23:59Z</time>
      </trkpt>
      <trkpt lat="44.90368" lon="5.36196">
        <ele>1164.45</ele>
        <time>2016-06-01T09:24:08Z</time>
      </trkpt>
      <trkpt lat="44.9036" lon="5.36196">
        <ele>1161.42</ele>
        <time>2016-06-01T09:24:20Z</time>
      </trkpt>
      <trkpt lat="44.90357" lon="5.36197">
        <ele>1160.92</ele>
        <time>2016-06-01T09:24:23Z</time>
      </trkpt>
      <trkpt lat="44.9034" lon="5.36195">
        <ele>1157.48</ele>
        <time>2016-06-01T09:24:34Z</time>
      </trkpt>
      <trkpt lat="44.90331" lon="5.36194">
        <ele>1154.42</ele>
        <time>2016-06-01T09:24:44Z</time>
      </trkpt>
      <trkpt lat="44.90323" lon="5.36195">
        <ele>1151.38</ele>
        <time>2016-06-01T09:24:58Z</time>
      </trkpt>
      <trkpt lat="44.90316" lon="5.36195">
        <ele>1149</ele>
        <time>2016-06-01T09:25:09Z</time>
      </trkpt>
      <trkpt lat="44.90312" lon="5.36196">
        <ele>1148.24</ele>
        <time>2016-06-01T09:25:14Z</time>
      </trkpt>
      <trkpt lat="44.90302" lon="5.36196">
        <ele>1144.87</ele>
        <time>2016-06-01T09:25:26Z</time>
      </trkpt>
      <trkpt lat="44.903" lon="5.36197">
        <ele>1144.43</ele>
        <time>2016-06-01T09:25:28Z</time>
      </trkpt>
      <trkpt lat="44.90285" lon="5.36192">
        <ele>1141.05</ele>
        <time>2016-06-01T09:25:43Z</time>
      </trkpt>
      <trkpt lat="44.90278" lon="5.36198">
        <ele>1137.97</ele>
        <time>2016-06-01T09:25:56Z</time>
      </trkpt>
      <trkpt lat="44.9027" lon="5.36196">
        <ele>1134.82</ele>
        <time>2016-06-01T09:26:08Z</time>
      </trkpt>
      <trkpt lat="44.90263" lon="5.362">
        <ele>1131.7</ele>
        <time>2016-06-01T09:26:22Z</time>
      </trkpt>
      <trkpt lat="44.90256" lon="5.36202">
        <ele>1128.97</ele>
        <time>2016-06-01T09:26:32Z</time>
      </trkpt>
      <trkpt lat="44.9025" lon="5.36209">
        <ele>1125.63</ele>
        <time>2016-06-01T09:26:41Z</time>
      </trkpt>
      <trkpt lat="44.90244" lon="5.36209">
        <ele>1122.51</ele>
        <time>2016-06-01T09:26:51Z</time>
      </trkpt>
      <trkpt lat="44.90236" lon="5.36208">
        <ele>1119.44</ele>
        <time>2016-06-01T09:27:01Z</time>
      </trkpt>
      <trkpt lat="44.90235" lon="5.36208">
        <ele>1119.15</ele>
        <time>2016-06-01T09:27:02Z</time>
      </trkpt>
      <trkpt lat="44.90233" lon="5.36207">
        <ele>1118.57</ele>
        <time>2016-06-01T09:27:04Z</time>
      </trkpt>
      <trkpt lat="44.90223" lon="5.36207">
        <ele>1115.26</ele>
        <time>2016-06-01T09:27:17Z</time>
      </trkpt>
      <trkpt lat="44.90216" lon="5.36209">
        <ele>1112.1</ele>
        <time>2016-06-01T09:27:32Z</time>
      </trkpt>
      <trkpt lat="44.90201" lon="5.36211">
        <ele>1108.53</ele>
        <time>2016-06-01T09:27:44Z</time>
      </trkpt>
      <trkpt lat="44.9019" lon="5.36214">
        <ele>1105.22</ele>
        <time>2016-06-01T09:27:52Z</time>
      </trkpt>
      <trkpt lat="44.90177" lon="5.36215">
        <ele>1102.21</ele>
        <time>2016-06-01T09:27:59Z</time>
      </trkpt>
      <trkpt lat="44.9016" lon="5.36214">
        <ele>1099.21</ele>
        <time>2016-06-01T09:28:05Z</time>
      </trkpt>
      <trkpt lat="44.90143" lon="5.36207">
        <ele>1095.46</ele>
        <time>2016-06-01T09:28:10Z</time>
      </trkpt>
      <trkpt lat="44.90133" lon="5.36203">
        <ele>1093.37</ele>
        <time>2016-06-01T09:28:14Z</time>
      </trkpt>
      <trkpt lat="44.90116" lon="5.36199">
        <ele>1089.43</ele>
        <time>2016-06-01T09:28:22Z</time>
      </trkpt>
      <trkpt lat="44.90104" lon="5.362">
        <ele>1086.1</ele>
        <time>2016-06-01T09:28:28Z</time>
      </trkpt>
      <trkpt lat="44.9009" lon="5.36199">
        <ele>1082.92</ele>
        <time>2016-06-01T09:28:34Z</time>
      </trkpt>
      <trkpt lat="44.90083" lon="5.362">
        <ele>1080.13</ele>
        <time>2016-06-01T09:28:38Z</time>
      </trkpt>
      <trkpt lat="44.90075" lon="5.36197">
        <ele>1077.91</ele>
        <time>2016-06-01T09:28:42Z</time>
      </trkpt>
      <trkpt lat="44.90056" lon="5.36196">
        <ele>1074.33</ele>
        <time>2016-06-01T09:28:50Z</time>
      </trkpt>
      <trkpt lat="44.90035" lon="5.36189">
        <ele>1071.13</ele>
        <time>2016-06-01T09:28:57Z</time>
      </trkpt>
      <trkpt lat="44.90021" lon="5.36182">
        <ele>1068.01</ele>
        <time>2016-06-01T09:29:02Z</time>
      </trkpt>
      <trkpt lat="44.90018" lon="5.36183">
        <ele>1065</ele>
        <time>2016-06-01T09:29:14Z</time>
      </trkpt>
      <trkpt lat="44.90016" lon="5.36182">
        <ele>1064.87</ele>
        <time>2016-06-01T09:29:33Z</time>
      </trkpt>
      <trkpt lat="44.90016" lon="5.36184">
        <ele>1065.04</ele>
        <time>2016-06-01T09:29:53Z</time>
      </trkpt>
      <trkpt lat="44.90016" lon="5.36184">
        <ele>1064.95</ele>
        <time>2016-06-01T09:30:22Z</time>
      </trkpt>
      <trkpt lat="44.90016" lon="5.36184">
        <ele>1064.89</ele>
        <time>2016-06-01T09:30:47Z</time>
      </trkpt>
      <trkpt lat="44.90014" lon="5.36182">
        <ele>1064.97</ele>
        <time>2016-06-01T09:31:02Z</time>
      </trkpt>
      <trkpt lat="44.90015" lon="5.36182">
        <ele>1064.46</ele>
        <time>2016-06-01T09:31:32Z</time>
      </trkpt>
      <trkpt lat="44.90016" lon="5.36181">
        <ele>1064.6</ele>
        <time>2016-06-01T09:31:50Z</time>
      </trkpt>
      <trkpt lat="44.90015" lon="5.36181">
        <ele>1064.72</ele>
        <time>2016-06-01T09:32:24Z</time>
      </trkpt>
      <trkpt lat="44.90016" lon="5.36182">
        <ele>1064.71</ele>
        <time>2016-06-01T09:32:51Z</time>
      </trkpt>
      <trkpt lat="44.90016" lon="5.36183">
        <ele>1064.7</ele>
        <time>2016-06-01T09:33:12Z</time>
      </trkpt>
      <trkpt lat="44.90014" lon="5.36183">
        <ele>1064.89</ele>
        <time>2016-06-01T09:33:27Z</time>
      </trkpt>
      <trkpt lat="44.90013" lon="5.36184">
        <ele>1064.86</ele>
        <time>2016-06-01T09:33:28Z</time>
      </trkpt>
      <trkpt lat="44.90012" lon="5.36185">
        <ele>1064.8</ele>
        <time>2016-06-01T09:33:29Z</time>
      </trkpt>
      <trkpt lat="44.9001" lon="5.36187">
        <ele>1064.74</ele>
        <time>2016-06-01T09:33:30Z</time>
      </trkpt>
      <trkpt lat="44.90007" lon="5.36188">
        <ele>1064.67</ele>
        <time>2016-06-01T09:33:31Z</time>
      </trkpt>
      <trkpt lat="44.90004" lon="5.36189">
        <ele>1064.57</ele>
        <time>2016-06-01T09:33:32Z</time>
      </trkpt>
      <trkpt lat="44.89999" lon="5.36189">
        <ele>1064.43</ele>
        <time>2016-06-01T09:33:33Z</time>
      </trkpt>
      <trkpt lat="44.89994" lon="5.36189">
        <ele>1064.23</ele>
        <time>2016-06-01T09:33:34Z</time>
      </trkpt>
      <trkpt lat="44.89989" lon="5.36189">
        <ele>1063.94</ele>
        <time>2016-06-01T09:33:35Z</time>
      </trkpt>
      <trkpt lat="44.89974" lon="5.36189">
        <ele>1062.54</ele>
        <time>2016-06-01T09:33:38Z</time>
      </trkpt>
      <trkpt lat="44.89969" lon="5.3619">
        <ele>1061.98</ele>
        <time>2016-06-01T09:33:39Z</time>
      </trkpt>
      <trkpt lat="44.89961" lon="5.36193">
        <ele>1060.95</ele>
        <time>2016-06-01T09:33:41Z</time>
      </trkpt>
      <trkpt lat="44.89956" lon="5.36194">
        <ele>1060.46</ele>
        <time>2016-06-01T09:33:42Z</time>
      </trkpt>
      <trkpt lat="44.8995" lon="5.36195">
        <ele>1059.95</ele>
        <time>2016-06-01T09:33:43Z</time>
      </trkpt>
      <trkpt lat="44.89945" lon="5.36197">
        <ele>1059.48</ele>
        <time>2016-06-01T09:33:44Z</time>
      </trkpt>
      <trkpt lat="44.8994" lon="5.362">
        <ele>1059.03</ele>
        <time>2016-06-01T09:33:45Z</time>
      </trkpt>
      <trkpt lat="44.89936" lon="5.36203">
        <ele>1058.6</ele>
        <time>2016-06-01T09:33:46Z</time>
      </trkpt>
      <trkpt lat="44.89933" lon="5.36206">
        <ele>1058.2</ele>
        <time>2016-06-01T09:33:47Z</time>
      </trkpt>
      <trkpt lat="44.89928" lon="5.36211">
        <ele>1057.36</ele>
        <time>2016-06-01T09:33:49Z</time>
      </trkpt>
      <trkpt lat="44.89918" lon="5.3624">
        <ele>1056.6</ele>
        <time>2016-06-01T09:33:59Z</time>
      </trkpt>
      <trkpt lat="44.89916" lon="5.36309">
        <ele>1055.87</ele>
        <time>2016-06-01T09:34:16Z</time>
      </trkpt>
      <trkpt lat="44.89916" lon="5.36357">
        <ele>1052.53</ele>
        <time>2016-06-01T09:34:28Z</time>
      </trkpt>
      <trkpt lat="44.8989" lon="5.36373">
        <ele>1049.29</ele>
        <time>2016-06-01T09:34:36Z</time>
      </trkpt>
      <trkpt lat="44.8987" lon="5.36382">
        <ele>1045.76</ele>
        <time>2016-06-01T09:34:42Z</time>
      </trkpt>
      <trkpt lat="44.89855" lon="5.36394">
        <ele>1042.46</ele>
        <time>2016-06-01T09:34:47Z</time>
      </trkpt>
      <trkpt lat="44.8985" lon="5.36395">
        <ele>1041.8</ele>
        <time>2016-06-01T09:34:48Z</time>
      </trkpt>
      <trkpt lat="44.89845" lon="5.36395">
        <ele>1041.21</ele>
        <time>2016-06-01T09:34:49Z</time>
      </trkpt>
      <trkpt lat="44.89818" lon="5.36393">
        <ele>1038.75</ele>
        <time>2016-06-01T09:34:54Z</time>
      </trkpt>
      <trkpt lat="44.89813" lon="5.36395">
        <ele>1038.33</ele>
        <time>2016-06-01T09:34:55Z</time>
      </trkpt>
      <trkpt lat="44.89807" lon="5.36398">
        <ele>1037.95</ele>
        <time>2016-06-01T09:34:56Z</time>
      </trkpt>
      <trkpt lat="44.89759" lon="5.36436">
        <ele>1035.11</ele>
        <time>2016-06-01T09:35:04Z</time>
      </trkpt>
      <trkpt lat="44.89752" lon="5.36438">
        <ele>1034.79</ele>
        <time>2016-06-01T09:35:05Z</time>
      </trkpt>
      <trkpt lat="44.89745" lon="5.36439">
        <ele>1034.48</ele>
        <time>2016-06-01T09:35:06Z</time>
      </trkpt>
      <trkpt lat="44.8967" lon="5.36457">
        <ele>1032.88</ele>
        <time>2016-06-01T09:35:19Z</time>
      </trkpt>
      <trkpt lat="44.89655" lon="5.3646">
        <ele>1032.82</ele>
        <time>2016-06-01T09:35:22Z</time>
      </trkpt>
      <trkpt lat="44.89589" lon="5.36479">
        <ele>1033.15</ele>
        <time>2016-06-01T09:35:36Z</time>
      </trkpt>
      <trkpt lat="44.89581" lon="5.36483">
        <ele>1033.24</ele>
        <time>2016-06-01T09:35:38Z</time>
      </trkpt>
      <trkpt lat="44.89577" lon="5.36486">
        <ele>1033.27</ele>
        <time>2016-06-01T09:35:39Z</time>
      </trkpt>
      <trkpt lat="44.89574" lon="5.36489">
        <ele>1033.29</ele>
        <time>2016-06-01T09:35:40Z</time>
      </trkpt>
      <trkpt lat="44.89571" lon="5.36493">
        <ele>1033.32</ele>
        <time>2016-06-01T09:35:41Z</time>
      </trkpt>
      <trkpt lat="44.89568" lon="5.36497">
        <ele>1033.36</ele>
        <time>2016-06-01T09:35:42Z</time>
      </trkpt>
      <trkpt lat="44.89566" lon="5.36502">
        <ele>1033.41</ele>
        <time>2016-06-01T09:35:43Z</time>
      </trkpt>
      <trkpt lat="44.89564" lon="5.36507">
        <ele>1033.46</ele>
        <time>2016-06-01T09:35:44Z</time>
      </trkpt>
      <trkpt lat="44.89563" lon="5.36513">
        <ele>1033.54</ele>
        <time>2016-06-01T09:35:45Z</time>
      </trkpt>
      <trkpt lat="44.89562" lon="5.36519">
        <ele>1033.6</ele>
        <time>2016-06-01T09:35:46Z</time>
      </trkpt>
      <trkpt lat="44.89561" lon="5.36525">
        <ele>1033.65</ele>
        <time>2016-06-01T09:35:47Z</time>
      </trkpt>
      <trkpt lat="44.89554" lon="5.36587">
        <ele>1033.99</ele>
        <time>2016-06-01T09:35:57Z</time>
      </trkpt>
      <trkpt lat="44.89554" lon="5.36625">
        <ele>1033.58</ele>
        <time>2016-06-01T09:36:03Z</time>
      </trkpt>
      <trkpt lat="44.89547" lon="5.36702">
        <ele>1033.12</ele>
        <time>2016-06-01T09:36:18Z</time>
      </trkpt>
      <trkpt lat="44.89544" lon="5.36729">
        <ele>1033.47</ele>
        <time>2016-06-01T09:36:26Z</time>
      </trkpt>
      <trkpt lat="44.89543" lon="5.3673">
        <ele>1033.48</ele>
        <time>2016-06-01T09:36:27Z</time>
      </trkpt>
      <trkpt lat="44.89546" lon="5.3673">
        <ele>1033.05</ele>
        <time>2016-06-01T09:36:42Z</time>
      </trkpt>
      <trkpt lat="44.89548" lon="5.36731">
        <ele>1033.08</ele>
        <time>2016-06-01T09:36:44Z</time>
      </trkpt>
      <trkpt lat="44.89549" lon="5.36733">
        <ele>1033.13</ele>
        <time>2016-06-01T09:36:45Z</time>
      </trkpt>
      <trkpt lat="44.89548" lon="5.36737">
        <ele>1033.19</ele>
        <time>2016-06-01T09:36:46Z</time>
      </trkpt>
      <trkpt lat="44.89547" lon="5.3674">
        <ele>1033.27</ele>
        <time>2016-06-01T09:36:47Z</time>
      </trkpt>
      <trkpt lat="44.89545" lon="5.36744">
        <ele>1033.36</ele>
        <time>2016-06-01T09:36:48Z</time>
      </trkpt>
      <trkpt lat="44.89543" lon="5.36748">
        <ele>1033.47</ele>
        <time>2016-06-01T09:36:49Z</time>
      </trkpt>
      <trkpt lat="44.89542" lon="5.36754">
        <ele>1033.6</ele>
        <time>2016-06-01T09:36:50Z</time>
      </trkpt>
      <trkpt lat="44.89542" lon="5.3676">
        <ele>1033.73</ele>
        <time>2016-06-01T09:36:51Z</time>
      </trkpt>
      <trkpt lat="44.89541" lon="5.36767">
        <ele>1033.85</ele>
        <time>2016-06-01T09:36:52Z</time>
      </trkpt>
      <trkpt lat="44.89536" lon="5.36862">
        <ele>1035.55</ele>
        <time>2016-06-01T09:37:07Z</time>
      </trkpt>
      <trkpt lat="44.89535" lon="5.36915">
        <ele>1036.29</ele>
        <time>2016-06-01T09:37:17Z</time>
      </trkpt>
      <trkpt lat="44.89535" lon="5.36948">
        <ele>1036.16</ele>
        <time>2016-06-01T09:37:22Z</time>
      </trkpt>
      <trkpt lat="44.89536" lon="5.36955">
        <ele>1036.08</ele>
        <time>2016-06-01T09:37:23Z</time>
      </trkpt>
      <trkpt lat="44.8954" lon="5.36996">
        <ele>1032.94</ele>
        <time>2016-06-01T09:37:33Z</time>
      </trkpt>
      <trkpt lat="44.89536" lon="5.36996">
        <ele>1031.9</ele>
        <time>2016-06-01T09:37:48Z</time>
      </trkpt>
      <trkpt lat="44.89535" lon="5.37004">
        <ele>1031.58</ele>
        <time>2016-06-01T09:38:03Z</time>
      </trkpt>
      <trkpt lat="44.89532" lon="5.36991">
        <ele>1031.86</ele>
        <time>2016-06-01T09:38:18Z</time>
      </trkpt>
      <trkpt lat="44.8953" lon="5.36986">
        <ele>1031.94</ele>
        <time>2016-06-01T09:38:33Z</time>
      </trkpt>
      <trkpt lat="44.89531" lon="5.36989">
        <ele>1031.94</ele>
        <time>2016-06-01T09:38:57Z</time>
      </trkpt>
      <trkpt lat="44.89532" lon="5.36993">
        <ele>1031.9</ele>
        <time>2016-06-01T09:39:00Z</time>
      </trkpt>
      <trkpt lat="44.89532" lon="5.36995">
        <ele>1031.89</ele>
        <time>2016-06-01T09:39:01Z</time>
      </trkpt>
      <trkpt lat="44.89533" lon="5.36996">
        <ele>1031.9</ele>
        <time>2016-06-01T09:39:02Z</time>
      </trkpt>
      <trkpt lat="44.89537" lon="5.37">
        <ele>1031.89</ele>
        <time>2016-06-01T09:39:18Z</time>
      </trkpt>
      <trkpt lat="44.89538" lon="5.36999">
        <ele>1030.55</ele>
        <time>2016-06-01T09:39:51Z</time>
      </trkpt>
      <trkpt lat="44.8955" lon="5.37">
        <ele>1030.31</ele>
        <time>2016-06-01T09:40:24Z</time>
      </trkpt>
      <trkpt lat="44.89553" lon="5.36997">
        <ele>1030.56</ele>
        <time>2016-06-01T09:41:01Z</time>
      </trkpt>
      <trkpt lat="44.89554" lon="5.36994">
        <ele>1030.05</ele>
        <time>2016-06-01T09:41:53Z</time>
      </trkpt>
      <trkpt lat="44.89548" lon="5.36999">
        <ele>1029.94</ele>
        <time>2016-06-01T09:42:57Z</time>
      </trkpt>
      <trkpt lat="44.8955" lon="5.36998">
        <ele>1030.89</ele>
        <time>2016-06-01T09:43:19Z</time>
      </trkpt>
      <trkpt lat="44.89547" lon="5.37">
        <ele>1030.87</ele>
        <time>2016-06-01T09:43:24Z</time>
      </trkpt>
      <trkpt lat="44.8954" lon="5.36999">
        <ele>1031.15</ele>
        <time>2016-06-01T09:43:41Z</time>
      </trkpt>
      <trkpt lat="44.89538" lon="5.37001">
        <ele>1030.93</ele>
        <time>2016-06-01T09:44:03Z</time>
      </trkpt>
      <trkpt lat="44.89535" lon="5.37002">
        <ele>1030.88</ele>
        <time>2016-06-01T09:44:16Z</time>
      </trkpt>
      <trkpt lat="44.89537" lon="5.37001">
        <ele>1030.81</ele>
        <time>2016-06-01T09:44:43Z</time>
      </trkpt>
      <trkpt lat="44.89543" lon="5.36998">
        <ele>1031.12</ele>
        <time>2016-06-01T09:45:25Z</time>
      </trkpt>
      <trkpt lat="44.8954" lon="5.37">
        <ele>1030.87</ele>
        <time>2016-06-01T09:45:50Z</time>
      </trkpt>
      <trkpt lat="44.89536" lon="5.37001">
        <ele>1031.11</ele>
        <time>2016-06-01T09:46:14Z</time>
      </trkpt>
      <trkpt lat="44.89537" lon="5.37002">
        <ele>1031</ele>
        <time>2016-06-01T09:46:39Z</time>
      </trkpt>
      <trkpt lat="44.89536" lon="5.36999">
        <ele>1030.97</ele>
        <time>2016-06-01T09:47:00Z</time>
      </trkpt>
      <trkpt lat="44.89534" lon="5.37002">
        <ele>1030.67</ele>
        <time>2016-06-01T09:47:21Z</time>
      </trkpt>
      <trkpt lat="44.89534" lon="5.37005">
        <ele>1030.68</ele>
        <time>2016-06-01T09:47:25Z</time>
      </trkpt>
      <trkpt lat="44.89534" lon="5.37007">
        <ele>1030.74</ele>
        <time>2016-06-01T09:47:26Z</time>
      </trkpt>
      <trkpt lat="44.89535" lon="5.3701">
        <ele>1030.74</ele>
        <time>2016-06-01T09:47:27Z</time>
      </trkpt>
      <trkpt lat="44.89536" lon="5.37013">
        <ele>1030.77</ele>
        <time>2016-06-01T09:47:28Z</time>
      </trkpt>
      <trkpt lat="44.89536" lon="5.37017">
        <ele>1030.79</ele>
        <time>2016-06-01T09:47:29Z</time>
      </trkpt>
      <trkpt lat="44.89537" lon="5.37058">
        <ele>1030.37</ele>
        <time>2016-06-01T09:47:41Z</time>
      </trkpt>
      <trkpt lat="44.89534" lon="5.3706">
        <ele>1030.32</ele>
        <time>2016-06-01T09:47:42Z</time>
      </trkpt>
      <trkpt lat="44.89532" lon="5.37061">
        <ele>1030.25</ele>
        <time>2016-06-01T09:47:43Z</time>
      </trkpt>
      <trkpt lat="44.89489" lon="5.37071">
        <ele>1029.71</ele>
        <time>2016-06-01T09:48:00Z</time>
      </trkpt>
      <trkpt lat="44.89442" lon="5.37079">
        <ele>1029.39</ele>
        <time>2016-06-01T09:48:15Z</time>
      </trkpt>
      <trkpt lat="44.89432" lon="5.37102">
        <ele>1029.56</ele>
        <time>2016-06-01T09:48:24Z</time>
      </trkpt>
      <trkpt lat="44.89429" lon="5.37105">
        <ele>1029.56</ele>
        <time>2016-06-01T09:48:26Z</time>
      </trkpt>
      <trkpt lat="44.89426" lon="5.37104">
        <ele>1029.56</ele>
        <time>2016-06-01T09:48:41Z</time>
      </trkpt>
      <trkpt lat="44.89424" lon="5.37104">
        <ele>1029.52</ele>
        <time>2016-06-01T09:49:00Z</time>
      </trkpt>
      <trkpt lat="44.89429" lon="5.37101">
        <ele>1029.4</ele>
        <time>2016-06-01T09:49:23Z</time>
      </trkpt>
      <trkpt lat="44.8943" lon="5.37096">
        <ele>1029.76</ele>
        <time>2016-06-01T09:49:43Z</time>
      </trkpt>
      <trkpt lat="44.89419" lon="5.37102">
        <ele>1030.2</ele>
        <time>2016-06-01T09:50:42Z</time>
      </trkpt>
      <trkpt lat="44.89456" lon="5.37135">
        <ele>1100.64</ele>
        <time>2016-06-01T10:42:14Z</time>
      </trkpt>
      <trkpt lat="44.89449" lon="5.37109">
        <ele>1100.64</ele>
        <time>2016-06-01T10:42:16Z</time>
      </trkpt>
      <trkpt lat="44.89441" lon="5.37106">
        <ele>1100.55</ele>
        <time>2016-06-01T10:42:42Z</time>
      </trkpt>
      <trkpt lat="44.8944" lon="5.37099">
        <ele>1100.94</ele>
        <time>2016-06-01T10:42:56Z</time>
      </trkpt>
      <trkpt lat="44.89439" lon="5.37105">
        <ele>1100.99</ele>
        <time>2016-06-01T10:43:15Z</time>
      </trkpt>
      <trkpt lat="44.89438" lon="5.37106">
        <ele>1100.93</ele>
        <time>2016-06-01T10:43:35Z</time>
      </trkpt>
      <trkpt lat="44.89439" lon="5.37105">
        <ele>1101.04</ele>
        <time>2016-06-01T10:43:55Z</time>
      </trkpt>
      <trkpt lat="44.89433" lon="5.37103">
        <ele>1100.62</ele>
        <time>2016-06-01T10:44:18Z</time>
      </trkpt>
      <trkpt lat="44.89428" lon="5.37106">
        <ele>1100.6</ele>
        <time>2016-06-01T10:44:34Z</time>
      </trkpt>
      <trkpt lat="44.89431" lon="5.37106">
        <ele>1100.63</ele>
        <time>2016-06-01T10:44:47Z</time>
      </trkpt>
      <trkpt lat="44.89431" lon="5.37105">
        <ele>1100.52</ele>
        <time>2016-06-01T10:45:01Z</time>
      </trkpt>
      <trkpt lat="44.89432" lon="5.37103">
        <ele>1100.22</ele>
        <time>2016-06-01T10:45:20Z</time>
      </trkpt>
      <trkpt lat="44.89433" lon="5.37102">
        <ele>1100.35</ele>
        <time>2016-06-01T10:45:23Z</time>
      </trkpt>
      <trkpt lat="44.89434" lon="5.37097">
        <ele>1100.45</ele>
        <time>2016-06-01T10:45:26Z</time>
      </trkpt>
      <trkpt lat="44.89435" lon="5.37091">
        <ele>1100.48</ele>
        <time>2016-06-01T10:45:28Z</time>
      </trkpt>
      <trkpt lat="44.8943" lon="5.37076">
        <ele>1100.61</ele>
        <time>2016-06-01T10:45:34Z</time>
      </trkpt>
      <trkpt lat="44.89388" lon="5.37066">
        <ele>1101.32</ele>
        <time>2016-06-01T10:45:49Z</time>
      </trkpt>
      <trkpt lat="44.89348" lon="5.37059">
        <ele>1102.02</ele>
        <time>2016-06-01T10:46:02Z</time>
      </trkpt>
      <trkpt lat="44.89309" lon="5.3705">
        <ele>1102.46</ele>
        <time>2016-06-01T10:46:15Z</time>
      </trkpt>
      <trkpt lat="44.89253" lon="5.37044">
        <ele>1103.07</ele>
        <time>2016-06-01T10:46:32Z</time>
      </trkpt>
      <trkpt lat="44.89189" lon="5.37031">
        <ele>1104.1</ele>
        <time>2016-06-01T10:46:52Z</time>
      </trkpt>
      <trkpt lat="44.89117" lon="5.37025">
        <ele>1105.19</ele>
        <time>2016-06-01T10:47:12Z</time>
      </trkpt>
      <trkpt lat="44.89064" lon="5.37025">
        <ele>1106.07</ele>
        <time>2016-06-01T10:47:28Z</time>
      </trkpt>
      <trkpt lat="44.88986" lon="5.37017">
        <ele>1106.9</ele>
        <time>2016-06-01T10:47:51Z</time>
      </trkpt>
      <trkpt lat="44.88929" lon="5.37011">
        <ele>1107.82</ele>
        <time>2016-06-01T10:48:09Z</time>
      </trkpt>
      <trkpt lat="44.88866" lon="5.36998">
        <ele>1109.12</ele>
        <time>2016-06-01T10:48:29Z</time>
      </trkpt>
      <trkpt lat="44.88817" lon="5.36967">
        <ele>1109.71</ele>
        <time>2016-06-01T10:48:45Z</time>
      </trkpt>
      <trkpt lat="44.88756" lon="5.36924">
        <ele>1110.9</ele>
        <time>2016-06-01T10:49:04Z</time>
      </trkpt>
      <trkpt lat="44.88694" lon="5.36862">
        <ele>1110.78</ele>
        <time>2016-06-01T10:49:24Z</time>
      </trkpt>
      <trkpt lat="44.88626" lon="5.36809">
        <ele>1110.13</ele>
        <time>2016-06-01T10:49:43Z</time>
      </trkpt>
      <trkpt lat="44.88548" lon="5.36757">
        <ele>1109.01</ele>
        <time>2016-06-01T10:50:03Z</time>
      </trkpt>
      <trkpt lat="44.88471" lon="5.36715">
        <ele>1107.55</ele>
        <time>2016-06-01T10:50:21Z</time>
      </trkpt>
      <trkpt lat="44.88402" lon="5.3667">
        <ele>1107.96</ele>
        <time>2016-06-01T10:50:39Z</time>
      </trkpt>
      <trkpt lat="44.88355" lon="5.36645">
        <ele>1109.75</ele>
        <time>2016-06-01T10:50:55Z</time>
      </trkpt>
      <trkpt lat="44.88302" lon="5.36609">
        <ele>1112.83</ele>
        <time>2016-06-01T10:51:18Z</time>
      </trkpt>
      <trkpt lat="44.88272" lon="5.36576">
        <ele>1115.99</ele>
        <time>2016-06-01T10:51:35Z</time>
      </trkpt>
      <trkpt lat="44.88229" lon="5.36536">
        <ele>1118.68</ele>
        <time>2016-06-01T10:51:56Z</time>
      </trkpt>
      <trkpt lat="44.88187" lon="5.36512">
        <ele>1119.64</ele>
        <time>2016-06-01T10:52:15Z</time>
      </trkpt>
      <trkpt lat="44.88146" lon="5.36489">
        <ele>1121.33</ele>
        <time>2016-06-01T10:52:36Z</time>
      </trkpt>
      <trkpt lat="44.88106" lon="5.36452">
        <ele>1123.75</ele>
        <time>2016-06-01T10:52:56Z</time>
      </trkpt>
      <trkpt lat="44.8808" lon="5.36418">
        <ele>1126.76</ele>
        <time>2016-06-01T10:53:12Z</time>
      </trkpt>
      <trkpt lat="44.88061" lon="5.3638">
        <ele>1129.84</ele>
        <time>2016-06-01T10:53:29Z</time>
      </trkpt>
      <trkpt lat="44.88027" lon="5.36346">
        <ele>1132.85</ele>
        <time>2016-06-01T10:53:47Z</time>
      </trkpt>
      <trkpt lat="44.87995" lon="5.36342">
        <ele>1135.41</ele>
        <time>2016-06-01T10:54:03Z</time>
      </trkpt>
      <trkpt lat="44.87962" lon="5.3635">
        <ele>1138.22</ele>
        <time>2016-06-01T10:54:20Z</time>
      </trkpt>
      <trkpt lat="44.87931" lon="5.3635">
        <ele>1140.67</ele>
        <time>2016-06-01T10:54:34Z</time>
      </trkpt>
      <trkpt lat="44.87909" lon="5.36343">
        <ele>1142.75</ele>
        <time>2016-06-01T10:54:46Z</time>
      </trkpt>
      <trkpt lat="44.87879" lon="5.36338">
        <ele>1144.77</ele>
        <time>2016-06-01T10:55:00Z</time>
      </trkpt>
      <trkpt lat="44.87855" lon="5.36338">
        <ele>1147.19</ele>
        <time>2016-06-01T10:55:12Z</time>
      </trkpt>
      <trkpt lat="44.87819" lon="5.36337">
        <ele>1150.17</ele>
        <time>2016-06-01T10:55:26Z</time>
      </trkpt>
      <trkpt lat="44.87778" lon="5.36344">
        <ele>1152.96</ele>
        <time>2016-06-01T10:55:43Z</time>
      </trkpt>
      <trkpt lat="44.87739" lon="5.3632">
        <ele>1155.61</ele>
        <time>2016-06-01T10:56:04Z</time>
      </trkpt>
      <trkpt lat="44.87696" lon="5.36293">
        <ele>1157.96</ele>
        <time>2016-06-01T10:56:23Z</time>
      </trkpt>
      <trkpt lat="44.87653" lon="5.36262">
        <ele>1159.93</ele>
        <time>2016-06-01T10:56:42Z</time>
      </trkpt>
      <trkpt lat="44.87602" lon="5.36221">
        <ele>1162.38</ele>
        <time>2016-06-01T10:57:05Z</time>
      </trkpt>
      <trkpt lat="44.8756" lon="5.362">
        <ele>1164.29</ele>
        <time>2016-06-01T10:57:23Z</time>
      </trkpt>
      <trkpt lat="44.87506" lon="5.3618">
        <ele>1166</ele>
        <time>2016-06-01T10:57:45Z</time>
      </trkpt>
      <trkpt lat="44.87458" lon="5.36169">
        <ele>1167.31</ele>
        <time>2016-06-01T10:58:03Z</time>
      </trkpt>
      <trkpt lat="44.87411" lon="5.36165">
        <ele>1168.82</ele>
        <time>2016-06-01T10:58:20Z</time>
      </trkpt>
      <trkpt lat="44.87357" lon="5.36162">
        <ele>1169.97</ele>
        <time>2016-06-01T10:58:39Z</time>
      </trkpt>
      <trkpt lat="44.87302" lon="5.36145">
        <ele>1172.65</ele>
        <time>2016-06-01T10:59:00Z</time>
      </trkpt>
      <trkpt lat="44.87264" lon="5.36136">
        <ele>1175.22</ele>
        <time>2016-06-01T10:59:15Z</time>
      </trkpt>
      <trkpt lat="44.87222" lon="5.36126">
        <ele>1176.9</ele>
        <time>2016-06-01T10:59:31Z</time>
      </trkpt>
      <trkpt lat="44.87173" lon="5.3611">
        <ele>1177.69</ele>
        <time>2016-06-01T10:59:47Z</time>
      </trkpt>
      <trkpt lat="44.87133" lon="5.36108">
        <ele>1178.49</ele>
        <time>2016-06-01T11:00:01Z</time>
      </trkpt>
      <trkpt lat="44.87089" lon="5.36102">
        <ele>1180.42</ele>
        <time>2016-06-01T11:00:18Z</time>
      </trkpt>
      <trkpt lat="44.87048" lon="5.36097">
        <ele>1182.15</ele>
        <time>2016-06-01T11:00:34Z</time>
      </trkpt>
      <trkpt lat="44.87009" lon="5.36095">
        <ele>1183.01</ele>
        <time>2016-06-01T11:00:51Z</time>
      </trkpt>
      <trkpt lat="44.86986" lon="5.36091">
        <ele>1182.99</ele>
        <time>2016-06-01T11:01:07Z</time>
      </trkpt>
      <trkpt lat="44.86987" lon="5.36092">
        <ele>1183.12</ele>
        <time>2016-06-01T11:01:33Z</time>
      </trkpt>
      <trkpt lat="44.86987" lon="5.36091">
        <ele>1182.89</ele>
        <time>2016-06-01T11:01:57Z</time>
      </trkpt>
      <trkpt lat="44.86988" lon="5.3609">
        <ele>1183.07</ele>
        <time>2016-06-01T11:02:22Z</time>
      </trkpt>
      <trkpt lat="44.86988" lon="5.36091">
        <ele>1183.11</ele>
        <time>2016-06-01T11:02:44Z</time>
      </trkpt>
      <trkpt lat="44.86986" lon="5.36084">
        <ele>1183.12</ele>
        <time>2016-06-01T11:02:58Z</time>
      </trkpt>
      <trkpt lat="44.86985" lon="5.36082">
        <ele>1183.19</ele>
        <time>2016-06-01T11:02:59Z</time>
      </trkpt>
      <trkpt lat="44.86957" lon="5.36044">
        <ele>1183.76</ele>
        <time>2016-06-01T11:03:15Z</time>
      </trkpt>
      <trkpt lat="44.86926" lon="5.35996">
        <ele>1184.76</ele>
        <time>2016-06-01T11:03:32Z</time>
      </trkpt>
      <trkpt lat="44.86889" lon="5.3593">
        <ele>1185.86</ele>
        <time>2016-06-01T11:03:53Z</time>
      </trkpt>
      <trkpt lat="44.86862" lon="5.35849">
        <ele>1187.39</ele>
        <time>2016-06-01T11:04:15Z</time>
      </trkpt>
      <trkpt lat="44.86828" lon="5.35788">
        <ele>1188.26</ele>
        <time>2016-06-01T11:04:33Z</time>
      </trkpt>
      <trkpt lat="44.8679" lon="5.35764">
        <ele>1190.28</ele>
        <time>2016-06-01T11:04:49Z</time>
      </trkpt>
      <trkpt lat="44.86765" lon="5.35761">
        <ele>1192.1</ele>
        <time>2016-06-01T11:05:01Z</time>
      </trkpt>
      <trkpt lat="44.86742" lon="5.3576">
        <ele>1194.57</ele>
        <time>2016-06-01T11:05:14Z</time>
      </trkpt>
      <trkpt lat="44.86714" lon="5.35759">
        <ele>1197</ele>
        <time>2016-06-01T11:05:27Z</time>
      </trkpt>
      <trkpt lat="44.86688" lon="5.35757">
        <ele>1199.02</ele>
        <time>2016-06-01T11:05:41Z</time>
      </trkpt>
      <trkpt lat="44.86662" lon="5.35757">
        <ele>1200.8</ele>
        <time>2016-06-01T11:05:53Z</time>
      </trkpt>
      <trkpt lat="44.86626" lon="5.35754">
        <ele>1203.16</ele>
        <time>2016-06-01T11:06:09Z</time>
      </trkpt>
      <trkpt lat="44.86588" lon="5.35739">
        <ele>1206.13</ele>
        <time>2016-06-01T11:06:27Z</time>
      </trkpt>
      <trkpt lat="44.86563" lon="5.35745">
        <ele>1208.64</ele>
        <time>2016-06-01T11:06:41Z</time>
      </trkpt>
      <trkpt lat="44.86533" lon="5.3574">
        <ele>1211.39</ele>
        <time>2016-06-01T11:06:57Z</time>
      </trkpt>
      <trkpt lat="44.86516" lon="5.35731">
        <ele>1213.72</ele>
        <time>2016-06-01T11:07:13Z</time>
      </trkpt>
      <trkpt lat="44.86497" lon="5.35731">
        <ele>1216.61</ele>
        <time>2016-06-01T11:07:28Z</time>
      </trkpt>
      <trkpt lat="44.86468" lon="5.35731">
        <ele>1219.22</ele>
        <time>2016-06-01T11:07:42Z</time>
      </trkpt>
      <trkpt lat="44.86451" lon="5.35728">
        <ele>1221.93</ele>
        <time>2016-06-01T11:07:56Z</time>
      </trkpt>
      <trkpt lat="44.86431" lon="5.35722">
        <ele>1224.26</ele>
        <time>2016-06-01T11:08:08Z</time>
      </trkpt>
      <trkpt lat="44.86407" lon="5.35715">
        <ele>1227.19</ele>
        <time>2016-06-01T11:08:22Z</time>
      </trkpt>
      <trkpt lat="44.86395" lon="5.35712">
        <ele>1229.75</ele>
        <time>2016-06-01T11:08:34Z</time>
      </trkpt>
      <trkpt lat="44.86393" lon="5.35712">
        <ele>1229.95</ele>
        <time>2016-06-01T11:08:35Z</time>
      </trkpt>
      <trkpt lat="44.86392" lon="5.35711">
        <ele>1230.12</ele>
        <time>2016-06-01T11:08:36Z</time>
      </trkpt>
      <trkpt lat="44.86364" lon="5.35701">
        <ele>1233.12</ele>
        <time>2016-06-01T11:08:50Z</time>
      </trkpt>
      <trkpt lat="44.86348" lon="5.35689">
        <ele>1235.86</ele>
        <time>2016-06-01T11:09:03Z</time>
      </trkpt>
      <trkpt lat="44.86325" lon="5.35671">
        <ele>1239.03</ele>
        <time>2016-06-01T11:09:20Z</time>
      </trkpt>
      <trkpt lat="44.86306" lon="5.35653">
        <ele>1242.18</ele>
        <time>2016-06-01T11:09:36Z</time>
      </trkpt>
      <trkpt lat="44.86293" lon="5.35638">
        <ele>1245.14</ele>
        <time>2016-06-01T11:09:52Z</time>
      </trkpt>
      <trkpt lat="44.86288" lon="5.35628">
        <ele>1246.76</ele>
        <time>2016-06-01T11:09:59Z</time>
      </trkpt>
      <trkpt lat="44.86267" lon="5.35606">
        <ele>1249.86</ele>
        <time>2016-06-01T11:10:17Z</time>
      </trkpt>
      <trkpt lat="44.86254" lon="5.3559">
        <ele>1252.61</ele>
        <time>2016-06-01T11:10:31Z</time>
      </trkpt>
      <trkpt lat="44.86243" lon="5.35578">
        <ele>1254.49</ele>
        <time>2016-06-01T11:10:42Z</time>
      </trkpt>
      <trkpt lat="44.86239" lon="5.35575">
        <ele>1255.46</ele>
        <time>2016-06-01T11:10:46Z</time>
      </trkpt>
      <trkpt lat="44.86237" lon="5.35574">
        <ele>1255.81</ele>
        <time>2016-06-01T11:10:48Z</time>
      </trkpt>
      <trkpt lat="44.86232" lon="5.35568">
        <ele>1257.11</ele>
        <time>2016-06-01T11:10:55Z</time>
      </trkpt>
      <trkpt lat="44.86231" lon="5.35567">
        <ele>1257.31</ele>
        <time>2016-06-01T11:10:56Z</time>
      </trkpt>
      <trkpt lat="44.86222" lon="5.35559">
        <ele>1258.84</ele>
        <time>2016-06-01T11:11:05Z</time>
      </trkpt>
      <trkpt lat="44.86207" lon="5.35547">
        <ele>1262</ele>
        <time>2016-06-01T11:11:21Z</time>
      </trkpt>
      <trkpt lat="44.86191" lon="5.35536">
        <ele>1265.2</ele>
        <time>2016-06-01T11:11:38Z</time>
      </trkpt>
      <trkpt lat="44.86171" lon="5.35525">
        <ele>1268.32</ele>
        <time>2016-06-01T11:11:52Z</time>
      </trkpt>
      <trkpt lat="44.8615" lon="5.35517">
        <ele>1271.54</ele>
        <time>2016-06-01T11:12:08Z</time>
      </trkpt>
      <trkpt lat="44.86126" lon="5.35506">
        <ele>1274.41</ele>
        <time>2016-06-01T11:12:23Z</time>
      </trkpt>
      <trkpt lat="44.86119" lon="5.35502">
        <ele>1275.32</ele>
        <time>2016-06-01T11:12:28Z</time>
      </trkpt>
      <trkpt lat="44.861" lon="5.35499">
        <ele>1278.43</ele>
        <time>2016-06-01T11:12:45Z</time>
      </trkpt>
      <trkpt lat="44.86086" lon="5.35495">
        <ele>1280.87</ele>
        <time>2016-06-01T11:12:57Z</time>
      </trkpt>
      <trkpt lat="44.86084" lon="5.35495">
        <ele>1281.23</ele>
        <time>2016-06-01T11:12:58Z</time>
      </trkpt>
      <trkpt lat="44.86083" lon="5.35495">
        <ele>1281.39</ele>
        <time>2016-06-01T11:12:59Z</time>
      </trkpt>
      <trkpt lat="44.86075" lon="5.35493">
        <ele>1281.56</ele>
        <time>2016-06-01T11:13:00Z</time>
      </trkpt>
      <trkpt lat="44.86069" lon="5.35492">
        <ele>1281.72</ele>
        <time>2016-06-01T11:13:01Z</time>
      </trkpt>
      <trkpt lat="44.86048" lon="5.35486">
        <ele>1283.65</ele>
        <time>2016-06-01T11:13:12Z</time>
      </trkpt>
      <trkpt lat="44.8604" lon="5.35484">
        <ele>1285.34</ele>
        <time>2016-06-01T11:13:20Z</time>
      </trkpt>
      <trkpt lat="44.86037" lon="5.35483">
        <ele>1285.94</ele>
        <time>2016-06-01T11:13:22Z</time>
      </trkpt>
      <trkpt lat="44.86013" lon="5.35492">
        <ele>1289.12</ele>
        <time>2016-06-01T11:13:39Z</time>
      </trkpt>
      <trkpt lat="44.85998" lon="5.35498">
        <ele>1291.02</ele>
        <time>2016-06-01T11:13:53Z</time>
      </trkpt>
      <trkpt lat="44.85969" lon="5.35508">
        <ele>1292.9</ele>
        <time>2016-06-01T11:14:10Z</time>
      </trkpt>
      <trkpt lat="44.85939" lon="5.35519">
        <ele>1294.25</ele>
        <time>2016-06-01T11:14:31Z</time>
      </trkpt>
      <trkpt lat="44.85912" lon="5.35526">
        <ele>1295.11</ele>
        <time>2016-06-01T11:14:54Z</time>
      </trkpt>
      <trkpt lat="44.8591" lon="5.35527">
        <ele>1295.14</ele>
        <time>2016-06-01T11:14:56Z</time>
      </trkpt>
      <trkpt lat="44.85909" lon="5.35527">
        <ele>1295.15</ele>
        <time>2016-06-01T11:14:57Z</time>
      </trkpt>
      <trkpt lat="44.85912" lon="5.35527">
        <ele>1294.96</ele>
        <time>2016-06-01T11:15:20Z</time>
      </trkpt>
      <trkpt lat="44.85908" lon="5.35523">
        <ele>1294.99</ele>
        <time>2016-06-01T11:15:25Z</time>
      </trkpt>
      <trkpt lat="44.85903" lon="5.35519">
        <ele>1294.99</ele>
        <time>2016-06-01T11:15:32Z</time>
      </trkpt>
      <trkpt lat="44.859" lon="5.35518">
        <ele>1295.04</ele>
        <time>2016-06-01T11:15:37Z</time>
      </trkpt>
      <trkpt lat="44.85893" lon="5.35515">
        <ele>1295.31</ele>
        <time>2016-06-01T11:16:03Z</time>
      </trkpt>
      <trkpt lat="44.85887" lon="5.35519">
        <ele>1294.95</ele>
        <time>2016-06-01T11:16:27Z</time>
      </trkpt>
      <trkpt lat="44.85889" lon="5.3552">
        <ele>1294.9</ele>
        <time>2016-06-01T11:16:58Z</time>
      </trkpt>
      <trkpt lat="44.85893" lon="5.35518">
        <ele>1295.22</ele>
        <time>2016-06-01T11:17:09Z</time>
      </trkpt>
      <trkpt lat="44.85894" lon="5.3551">
        <ele>1293.77</ele>
        <time>2016-06-01T11:17:34Z</time>
      </trkpt>
      <trkpt lat="44.8589" lon="5.35506">
        <ele>1293.71</ele>
        <time>2016-06-01T11:18:02Z</time>
      </trkpt>
      <trkpt lat="44.85891" lon="5.35507">
        <ele>1293.88</ele>
        <time>2016-06-01T11:18:30Z</time>
      </trkpt>
      <trkpt lat="44.85891" lon="5.3551">
        <ele>1293.97</ele>
        <time>2016-06-01T11:19:02Z</time>
      </trkpt>
      <trkpt lat="44.85895" lon="5.35512">
        <ele>1293.95</ele>
        <time>2016-06-01T11:19:27Z</time>
      </trkpt>
      <trkpt lat="44.85891" lon="5.35511">
        <ele>1295.09</ele>
        <time>2016-06-01T11:19:53Z</time>
      </trkpt>
      <trkpt lat="44.85889" lon="5.35509">
        <ele>1295.06</ele>
        <time>2016-06-01T11:20:13Z</time>
      </trkpt>
      <trkpt lat="44.85884" lon="5.35506">
        <ele>1295.21</ele>
        <time>2016-06-01T11:20:35Z</time>
      </trkpt>
      <trkpt lat="44.85881" lon="5.35504">
        <ele>1295.3</ele>
        <time>2016-06-01T11:20:38Z</time>
      </trkpt>
      <trkpt lat="44.8588" lon="5.35502">
        <ele>1295.33</ele>
        <time>2016-06-01T11:20:39Z</time>
      </trkpt>
      <trkpt lat="44.85879" lon="5.35501">
        <ele>1295.35</ele>
        <time>2016-06-01T11:20:40Z</time>
      </trkpt>
      <trkpt lat="44.85879" lon="5.35499">
        <ele>1295.35</ele>
        <time>2016-06-01T11:20:41Z</time>
      </trkpt>
      <trkpt lat="44.85878" lon="5.35497">
        <ele>1295.33</ele>
        <time>2016-06-01T11:20:42Z</time>
      </trkpt>
      <trkpt lat="44.85877" lon="5.35495">
        <ele>1295.31</ele>
        <time>2016-06-01T11:20:43Z</time>
      </trkpt>
      <trkpt lat="44.85876" lon="5.35493">
        <ele>1295.29</ele>
        <time>2016-06-01T11:20:44Z</time>
      </trkpt>
      <trkpt lat="44.85876" lon="5.3549">
        <ele>1295.27</ele>
        <time>2016-06-01T11:20:45Z</time>
      </trkpt>
      <trkpt lat="44.85875" lon="5.35488">
        <ele>1295.24</ele>
        <time>2016-06-01T11:20:46Z</time>
      </trkpt>
      <trkpt lat="44.85874" lon="5.35485">
        <ele>1295.22</ele>
        <time>2016-06-01T11:20:47Z</time>
      </trkpt>
      <trkpt lat="44.85874" lon="5.35484">
        <ele>1295.19</ele>
        <time>2016-06-01T11:20:48Z</time>
      </trkpt>
      <trkpt lat="44.85873" lon="5.35482">
        <ele>1295.17</ele>
        <time>2016-06-01T11:20:49Z</time>
      </trkpt>
      <trkpt lat="44.8585" lon="5.35461">
        <ele>1295.27</ele>
        <time>2016-06-01T11:21:02Z</time>
      </trkpt>
      <trkpt lat="44.85848" lon="5.3546">
        <ele>1295.38</ele>
        <time>2016-06-01T11:21:04Z</time>
      </trkpt>
      <trkpt lat="44.85822" lon="5.35452">
        <ele>1295.83</ele>
        <time>2016-06-01T11:21:15Z</time>
      </trkpt>
      <trkpt lat="44.85782" lon="5.35439">
        <ele>1296.63</ele>
        <time>2016-06-01T11:21:29Z</time>
      </trkpt>
      <trkpt lat="44.85756" lon="5.35434">
        <ele>1296.77</ele>
        <time>2016-06-01T11:21:39Z</time>
      </trkpt>
      <trkpt lat="44.85726" lon="5.3543">
        <ele>1297.13</ele>
        <time>2016-06-01T11:21:50Z</time>
      </trkpt>
      <trkpt lat="44.85703" lon="5.35424">
        <ele>1297.29</ele>
        <time>2016-06-01T11:21:59Z</time>
      </trkpt>
      <trkpt lat="44.85689" lon="5.35422">
        <ele>1297.56</ele>
        <time>2016-06-01T11:22:03Z</time>
      </trkpt>
      <trkpt lat="44.85685" lon="5.35421">
        <ele>1297.62</ele>
        <time>2016-06-01T11:22:04Z</time>
      </trkpt>
      <trkpt lat="44.8568" lon="5.3542">
        <ele>1297.69</ele>
        <time>2016-06-01T11:22:05Z</time>
      </trkpt>
      <trkpt lat="44.85677" lon="5.35421">
        <ele>1297.75</ele>
        <time>2016-06-01T11:22:06Z</time>
      </trkpt>
      <trkpt lat="44.85674" lon="5.3542">
        <ele>1297.8</ele>
        <time>2016-06-01T11:22:07Z</time>
      </trkpt>
      <trkpt lat="44.85672" lon="5.35421">
        <ele>1297.86</ele>
        <time>2016-06-01T11:22:08Z</time>
      </trkpt>
      <trkpt lat="44.85631" lon="5.35429">
        <ele>1298.54</ele>
        <time>2016-06-01T11:22:20Z</time>
      </trkpt>
      <trkpt lat="44.85626" lon="5.35431">
        <ele>1298.58</ele>
        <time>2016-06-01T11:22:24Z</time>
      </trkpt>
      <trkpt lat="44.85624" lon="5.35433">
        <ele>1298.57</ele>
        <time>2016-06-01T11:22:25Z</time>
      </trkpt>
      <trkpt lat="44.85622" lon="5.35434">
        <ele>1298.54</ele>
        <time>2016-06-01T11:22:26Z</time>
      </trkpt>
      <trkpt lat="44.85584" lon="5.3547">
        <ele>1297.91</ele>
        <time>2016-06-01T11:22:38Z</time>
      </trkpt>
      <trkpt lat="44.85547" lon="5.3548">
        <ele>1296.47</ele>
        <time>2016-06-01T11:22:47Z</time>
      </trkpt>
      <trkpt lat="44.85528" lon="5.35483">
        <ele>1295.67</ele>
        <time>2016-06-01T11:22:51Z</time>
      </trkpt>
      <trkpt lat="44.85522" lon="5.35483">
        <ele>1295.46</ele>
        <time>2016-06-01T11:22:52Z</time>
      </trkpt>
      <trkpt lat="44.85515" lon="5.35481">
        <ele>1295.25</ele>
        <time>2016-06-01T11:22:53Z</time>
      </trkpt>
      <trkpt lat="44.8551" lon="5.35478">
        <ele>1295.05</ele>
        <time>2016-06-01T11:22:54Z</time>
      </trkpt>
      <trkpt lat="44.85505" lon="5.35476">
        <ele>1294.82</ele>
        <time>2016-06-01T11:22:55Z</time>
      </trkpt>
      <trkpt lat="44.8549" lon="5.35465">
        <ele>1294.02</ele>
        <time>2016-06-01T11:22:58Z</time>
      </trkpt>
      <trkpt lat="44.85486" lon="5.35459">
        <ele>1293.7</ele>
        <time>2016-06-01T11:22:59Z</time>
      </trkpt>
      <trkpt lat="44.85483" lon="5.35452">
        <ele>1293.39</ele>
        <time>2016-06-01T11:23:00Z</time>
      </trkpt>
      <trkpt lat="44.8548" lon="5.35444">
        <ele>1293.1</ele>
        <time>2016-06-01T11:23:01Z</time>
      </trkpt>
      <trkpt lat="44.85478" lon="5.35436">
        <ele>1292.54</ele>
        <time>2016-06-01T11:23:02Z</time>
      </trkpt>
      <trkpt lat="44.85476" lon="5.35428">
        <ele>1292.3</ele>
        <time>2016-06-01T11:23:03Z</time>
      </trkpt>
      <trkpt lat="44.85468" lon="5.354">
        <ele>1291.38</ele>
        <time>2016-06-01T11:23:07Z</time>
      </trkpt>
      <trkpt lat="44.85465" lon="5.35394">
        <ele>1291.15</ele>
        <time>2016-06-01T11:23:08Z</time>
      </trkpt>
      <trkpt lat="44.85462" lon="5.35391">
        <ele>1290.92</ele>
        <time>2016-06-01T11:23:09Z</time>
      </trkpt>
      <trkpt lat="44.85459" lon="5.35388">
        <ele>1290.68</ele>
        <time>2016-06-01T11:23:10Z</time>
      </trkpt>
      <trkpt lat="44.85456" lon="5.35387">
        <ele>1290.42</ele>
        <time>2016-06-01T11:23:11Z</time>
      </trkpt>
      <trkpt lat="44.85453" lon="5.35385">
        <ele>1290.18</ele>
        <time>2016-06-01T11:23:12Z</time>
      </trkpt>
      <trkpt lat="44.85451" lon="5.35384">
        <ele>1289.95</ele>
        <time>2016-06-01T11:23:13Z</time>
      </trkpt>
      <trkpt lat="44.85422" lon="5.35373">
        <ele>1288.23</ele>
        <time>2016-06-01T11:23:28Z</time>
      </trkpt>
      <trkpt lat="44.85394" lon="5.35363">
        <ele>1288.02</ele>
        <time>2016-06-01T11:23:38Z</time>
      </trkpt>
      <trkpt lat="44.85345" lon="5.35342">
        <ele>1288.07</ele>
        <time>2016-06-01T11:23:53Z</time>
      </trkpt>
      <trkpt lat="44.85306" lon="5.35323">
        <ele>1288.21</ele>
        <time>2016-06-01T11:24:08Z</time>
      </trkpt>
      <trkpt lat="44.85301" lon="5.35321">
        <ele>1288.6</ele>
        <time>2016-06-01T11:24:14Z</time>
      </trkpt>
      <trkpt lat="44.853" lon="5.35321">
        <ele>1288.6</ele>
        <time>2016-06-01T11:24:15Z</time>
      </trkpt>
      <trkpt lat="44.85299" lon="5.3532">
        <ele>1288.69</ele>
        <time>2016-06-01T11:24:16Z</time>
      </trkpt>
      <trkpt lat="44.85298" lon="5.3532">
        <ele>1288.72</ele>
        <time>2016-06-01T11:24:17Z</time>
      </trkpt>
      <trkpt lat="44.85297" lon="5.3532">
        <ele>1288.75</ele>
        <time>2016-06-01T11:24:18Z</time>
      </trkpt>
      <trkpt lat="44.85295" lon="5.35321">
        <ele>1288.85</ele>
        <time>2016-06-01T11:24:34Z</time>
      </trkpt>
      <trkpt lat="44.85295" lon="5.35318">
        <ele>1289.05</ele>
        <time>2016-06-01T11:24:42Z</time>
      </trkpt>
      <trkpt lat="44.85289" lon="5.35323">
        <ele>1289.34</ele>
        <time>2016-06-01T11:25:04Z</time>
      </trkpt>
      <trkpt lat="44.85289" lon="5.35322">
        <ele>1289.34</ele>
        <time>2016-06-01T11:25:05Z</time>
      </trkpt>
      <trkpt lat="44.85287" lon="5.3532">
        <ele>1289.47</ele>
        <time>2016-06-01T11:25:07Z</time>
      </trkpt>
      <trkpt lat="44.85286" lon="5.35319">
        <ele>1289.52</ele>
        <time>2016-06-01T11:25:08Z</time>
      </trkpt>
      <trkpt lat="44.85284" lon="5.35316">
        <ele>1289.65</ele>
        <time>2016-06-01T11:25:11Z</time>
      </trkpt>
      <trkpt lat="44.85283" lon="5.35314">
        <ele>1289.69</ele>
        <time>2016-06-01T11:25:12Z</time>
      </trkpt>
      <trkpt lat="44.85282" lon="5.35312">
        <ele>1289.73</ele>
        <time>2016-06-01T11:25:13Z</time>
      </trkpt>
      <trkpt lat="44.85281" lon="5.3531">
        <ele>1289.78</ele>
        <time>2016-06-01T11:25:14Z</time>
      </trkpt>
      <trkpt lat="44.85279" lon="5.35308">
        <ele>1289.82</ele>
        <time>2016-06-01T11:25:15Z</time>
      </trkpt>
      <trkpt lat="44.85262" lon="5.35289">
        <ele>1290.68</ele>
        <time>2016-06-01T11:25:26Z</time>
      </trkpt>
      <trkpt lat="44.85261" lon="5.35286">
        <ele>1290.78</ele>
        <time>2016-06-01T11:25:27Z</time>
      </trkpt>
      <trkpt lat="44.85258" lon="5.35281">
        <ele>1291.04</ele>
        <time>2016-06-01T11:25:29Z</time>
      </trkpt>
      <trkpt lat="44.85256" lon="5.35279">
        <ele>1291.24</ele>
        <time>2016-06-01T11:25:30Z</time>
      </trkpt>
      <trkpt lat="44.85233" lon="5.3524">
        <ele>1293.73</ele>
        <time>2016-06-01T11:25:46Z</time>
      </trkpt>
      <trkpt lat="44.85226" lon="5.35224">
        <ele>1294.87</ele>
        <time>2016-06-01T11:25:53Z</time>
      </trkpt>
      <trkpt lat="44.85225" lon="5.35222">
        <ele>1295.03</ele>
        <time>2016-06-01T11:25:54Z</time>
      </trkpt>
      <trkpt lat="44.85224" lon="5.3522">
        <ele>1295.43</ele>
        <time>2016-06-01T11:25:55Z</time>
      </trkpt>
      <trkpt lat="44.85224" lon="5.35218">
        <ele>1295.64</ele>
        <time>2016-06-01T11:25:56Z</time>
      </trkpt>
      <trkpt lat="44.85223" lon="5.35216">
        <ele>1295.82</ele>
        <time>2016-06-01T11:25:57Z</time>
      </trkpt>
      <trkpt lat="44.85222" lon="5.35213">
        <ele>1295.99</ele>
        <time>2016-06-01T11:25:58Z</time>
      </trkpt>
      <trkpt lat="44.85221" lon="5.35211">
        <ele>1296.16</ele>
        <time>2016-06-01T11:25:59Z</time>
      </trkpt>
      <trkpt lat="44.8522" lon="5.35208">
        <ele>1296.35</ele>
        <time>2016-06-01T11:26:00Z</time>
      </trkpt>
      <trkpt lat="44.85196" lon="5.35173">
        <ele>1298.8</ele>
        <time>2016-06-01T11:26:13Z</time>
      </trkpt>
      <trkpt lat="44.85167" lon="5.35129">
        <ele>1301.55</ele>
        <time>2016-06-01T11:26:30Z</time>
      </trkpt>
      <trkpt lat="44.85132" lon="5.351">
        <ele>1303.44</ele>
        <time>2016-06-01T11:26:50Z</time>
      </trkpt>
      <trkpt lat="44.85116" lon="5.35092">
        <ele>1305.23</ele>
        <time>2016-06-01T11:27:07Z</time>
      </trkpt>
      <trkpt lat="44.85114" lon="5.35092">
        <ele>1305.34</ele>
        <time>2016-06-01T11:27:34Z</time>
      </trkpt>
      <trkpt lat="44.85109" lon="5.35098">
        <ele>1305.28</ele>
        <time>2016-06-01T11:27:50Z</time>
      </trkpt>
      <trkpt lat="44.85108" lon="5.35099">
        <ele>1305.27</ele>
        <time>2016-06-01T11:27:51Z</time>
      </trkpt>
      <trkpt lat="44.85107" lon="5.35101">
        <ele>1305.25</ele>
        <time>2016-06-01T11:27:52Z</time>
      </trkpt>
      <trkpt lat="44.85106" lon="5.35102">
        <ele>1305.2</ele>
        <time>2016-06-01T11:27:53Z</time>
      </trkpt>
      <trkpt lat="44.85104" lon="5.35102">
        <ele>1305.16</ele>
        <time>2016-06-01T11:27:54Z</time>
      </trkpt>
      <trkpt lat="44.85103" lon="5.35103">
        <ele>1305.1</ele>
        <time>2016-06-01T11:27:55Z</time>
      </trkpt>
      <trkpt lat="44.85101" lon="5.35104">
        <ele>1305</ele>
        <time>2016-06-01T11:27:56Z</time>
      </trkpt>
      <trkpt lat="44.851" lon="5.35105">
        <ele>1305</ele>
        <time>2016-06-01T11:27:57Z</time>
      </trkpt>
      <trkpt lat="44.85099" lon="5.35105">
        <ele>1304.99</ele>
        <time>2016-06-01T11:27:58Z</time>
      </trkpt>
      <trkpt lat="44.85093" lon="5.35109">
        <ele>1305.47</ele>
        <time>2016-06-01T11:28:02Z</time>
      </trkpt>
      <trkpt lat="44.85085" lon="5.35116">
        <ele>1306.49</ele>
        <time>2016-06-01T11:28:08Z</time>
      </trkpt>
      <trkpt lat="44.85073" lon="5.35127">
        <ele>1307.58</ele>
        <time>2016-06-01T11:28:17Z</time>
      </trkpt>
      <trkpt lat="44.8507" lon="5.35134">
        <ele>1308.86</ele>
        <time>2016-06-01T11:28:31Z</time>
      </trkpt>
      <trkpt lat="44.85054" lon="5.35144">
        <ele>1309.8</ele>
        <time>2016-06-01T11:28:42Z</time>
      </trkpt>
      <trkpt lat="44.85041" lon="5.35145">
        <ele>1311.21</ele>
        <time>2016-06-01T11:28:52Z</time>
      </trkpt>
      <trkpt lat="44.85038" lon="5.35145">
        <ele>1311.53</ele>
        <time>2016-06-01T11:28:54Z</time>
      </trkpt>
      <trkpt lat="44.85016" lon="5.35143">
        <ele>1313.63</ele>
        <time>2016-06-01T11:29:06Z</time>
      </trkpt>
      <trkpt lat="44.85003" lon="5.35138">
        <ele>1315.3</ele>
        <time>2016-06-01T11:29:15Z</time>
      </trkpt>
      <trkpt lat="44.84996" lon="5.35138">
        <ele>1315.9</ele>
        <time>2016-06-01T11:29:19Z</time>
      </trkpt>
      <trkpt lat="44.84974" lon="5.3513">
        <ele>1317.96</ele>
        <time>2016-06-01T11:29:33Z</time>
      </trkpt>
      <trkpt lat="44.84966" lon="5.35124">
        <ele>1318.88</ele>
        <time>2016-06-01T11:29:41Z</time>
      </trkpt>
      <trkpt lat="44.8496" lon="5.35116">
        <ele>1319.34</ele>
        <time>2016-06-01T11:29:46Z</time>
      </trkpt>
      <trkpt lat="44.84943" lon="5.35106">
        <ele>1321.14</ele>
        <time>2016-06-01T11:29:59Z</time>
      </trkpt>
      <trkpt lat="44.84917" lon="5.35102">
        <ele>1323.29</ele>
        <time>2016-06-01T11:30:13Z</time>
      </trkpt>
      <trkpt lat="44.84913" lon="5.351">
        <ele>1323.61</ele>
        <time>2016-06-01T11:30:16Z</time>
      </trkpt>
      <trkpt lat="44.84899" lon="5.35097">
        <ele>1324.72</ele>
        <time>2016-06-01T11:30:24Z</time>
      </trkpt>
      <trkpt lat="44.84894" lon="5.35096">
        <ele>1325.28</ele>
        <time>2016-06-01T11:30:27Z</time>
      </trkpt>
      <trkpt lat="44.84878" lon="5.35092">
        <ele>1326.57</ele>
        <time>2016-06-01T11:30:39Z</time>
      </trkpt>
      <trkpt lat="44.84873" lon="5.35092">
        <ele>1327.06</ele>
        <time>2016-06-01T11:30:43Z</time>
      </trkpt>
      <trkpt lat="44.84855" lon="5.35084">
        <ele>1328.82</ele>
        <time>2016-06-01T11:30:56Z</time>
      </trkpt>
      <trkpt lat="44.84851" lon="5.35082">
        <ele>1329.43</ele>
        <time>2016-06-01T11:31:00Z</time>
      </trkpt>
      <trkpt lat="44.84844" lon="5.35077">
        <ele>1330.22</ele>
        <time>2016-06-01T11:31:06Z</time>
      </trkpt>
      <trkpt lat="44.84821" lon="5.35062">
        <ele>1331.71</ele>
        <time>2016-06-01T11:31:17Z</time>
      </trkpt>
      <trkpt lat="44.84816" lon="5.3506">
        <ele>1331.99</ele>
        <time>2016-06-01T11:31:20Z</time>
      </trkpt>
      <trkpt lat="44.84813" lon="5.35059">
        <ele>1332.16</ele>
        <time>2016-06-01T11:31:22Z</time>
      </trkpt>
      <trkpt lat="44.84793" lon="5.3505">
        <ele>1333.62</ele>
        <time>2016-06-01T11:31:34Z</time>
      </trkpt>
      <trkpt lat="44.84772" lon="5.35043">
        <ele>1335.71</ele>
        <time>2016-06-01T11:31:48Z</time>
      </trkpt>
      <trkpt lat="44.84768" lon="5.35042">
        <ele>1336.01</ele>
        <time>2016-06-01T11:31:50Z</time>
      </trkpt>
      <trkpt lat="44.84748" lon="5.35042">
        <ele>1337.3</ele>
        <time>2016-06-01T11:32:00Z</time>
      </trkpt>
      <trkpt lat="44.84717" lon="5.35042">
        <ele>1338.78</ele>
        <time>2016-06-01T11:32:09Z</time>
      </trkpt>
      <trkpt lat="44.84694" lon="5.35041">
        <ele>1340.21</ele>
        <time>2016-06-01T11:32:20Z</time>
      </trkpt>
      <trkpt lat="44.84689" lon="5.3504">
        <ele>1340.4</ele>
        <time>2016-06-01T11:32:22Z</time>
      </trkpt>
      <trkpt lat="44.84663" lon="5.35037">
        <ele>1342.24</ele>
        <time>2016-06-01T11:32:34Z</time>
      </trkpt>
      <trkpt lat="44.84638" lon="5.35046">
        <ele>1343.41</ele>
        <time>2016-06-01T11:32:45Z</time>
      </trkpt>
      <trkpt lat="44.84624" lon="5.35048">
        <ele>1344.15</ele>
        <time>2016-06-01T11:32:52Z</time>
      </trkpt>
      <trkpt lat="44.84618" lon="5.35049">
        <ele>1344.59</ele>
        <time>2016-06-01T11:32:56Z</time>
      </trkpt>
      <trkpt lat="44.84595" lon="5.35045">
        <ele>1346.04</ele>
        <time>2016-06-01T11:33:11Z</time>
      </trkpt>
      <trkpt lat="44.84575" lon="5.35042">
        <ele>1347.37</ele>
        <time>2016-06-01T11:33:22Z</time>
      </trkpt>
      <trkpt lat="44.84549" lon="5.35039">
        <ele>1348.6</ele>
        <time>2016-06-01T11:33:35Z</time>
      </trkpt>
      <trkpt lat="44.84526" lon="5.35037">
        <ele>1350.68</ele>
        <time>2016-06-01T11:33:46Z</time>
      </trkpt>
      <trkpt lat="44.84514" lon="5.35037">
        <ele>1351.42</ele>
        <time>2016-06-01T11:33:52Z</time>
      </trkpt>
      <trkpt lat="44.84498" lon="5.35039">
        <ele>1352.22</ele>
        <time>2016-06-01T11:33:58Z</time>
      </trkpt>
      <trkpt lat="44.84478" lon="5.35044">
        <ele>1354.27</ele>
        <time>2016-06-01T11:34:11Z</time>
      </trkpt>
      <trkpt lat="44.84461" lon="5.3504">
        <ele>1356.1</ele>
        <time>2016-06-01T11:34:27Z</time>
      </trkpt>
      <trkpt lat="44.84446" lon="5.3504">
        <ele>1356.65</ele>
        <time>2016-06-01T11:34:37Z</time>
      </trkpt>
      <trkpt lat="44.84419" lon="5.35043">
        <ele>1358.92</ele>
        <time>2016-06-01T11:34:56Z</time>
      </trkpt>
      <trkpt lat="44.8438" lon="5.35044">
        <ele>1361.95</ele>
        <time>2016-06-01T11:35:14Z</time>
      </trkpt>
      <trkpt lat="44.84353" lon="5.35046">
        <ele>1364.49</ele>
        <time>2016-06-01T11:35:28Z</time>
      </trkpt>
      <trkpt lat="44.84334" lon="5.35055">
        <ele>1366.57</ele>
        <time>2016-06-01T11:35:42Z</time>
      </trkpt>
      <trkpt lat="44.84321" lon="5.35065">
        <ele>1368.11</ele>
        <time>2016-06-01T11:35:55Z</time>
      </trkpt>
      <trkpt lat="44.84302" lon="5.35067">
        <ele>1371.07</ele>
        <time>2016-06-01T11:36:13Z</time>
      </trkpt>
      <trkpt lat="44.84285" lon="5.35065">
        <ele>1372.58</ele>
        <time>2016-06-01T11:36:32Z</time>
      </trkpt>
      <trkpt lat="44.84259" lon="5.35063">
        <ele>1375.54</ele>
        <time>2016-06-01T11:36:51Z</time>
      </trkpt>
      <trkpt lat="44.8424" lon="5.35062">
        <ele>1377.42</ele>
        <time>2016-06-01T11:37:03Z</time>
      </trkpt>
      <trkpt lat="44.84233" lon="5.35064">
        <ele>1378.47</ele>
        <time>2016-06-01T11:37:09Z</time>
      </trkpt>
      <trkpt lat="44.84217" lon="5.35068">
        <ele>1380.34</ele>
        <time>2016-06-01T11:37:20Z</time>
      </trkpt>
      <trkpt lat="44.84195" lon="5.35079">
        <ele>1382.83</ele>
        <time>2016-06-01T11:37:34Z</time>
      </trkpt>
      <trkpt lat="44.84183" lon="5.35082">
        <ele>1384.17</ele>
        <time>2016-06-01T11:37:40Z</time>
      </trkpt>
      <trkpt lat="44.84173" lon="5.35082">
        <ele>1385.15</ele>
        <time>2016-06-01T11:37:47Z</time>
      </trkpt>
      <trkpt lat="44.84143" lon="5.35081">
        <ele>1387.4</ele>
        <time>2016-06-01T11:38:03Z</time>
      </trkpt>
      <trkpt lat="44.84125" lon="5.35094">
        <ele>1388.66</ele>
        <time>2016-06-01T11:38:12Z</time>
      </trkpt>
      <trkpt lat="44.8412" lon="5.35101">
        <ele>1389.19</ele>
        <time>2016-06-01T11:38:16Z</time>
      </trkpt>
      <trkpt lat="44.84105" lon="5.35136">
        <ele>1390.69</ele>
        <time>2016-06-01T11:38:30Z</time>
      </trkpt>
      <trkpt lat="44.84104" lon="5.35142">
        <ele>1390.92</ele>
        <time>2016-06-01T11:38:33Z</time>
      </trkpt>
      <trkpt lat="44.84101" lon="5.35152">
        <ele>1392.35</ele>
        <time>2016-06-01T11:38:48Z</time>
      </trkpt>
      <trkpt lat="44.84097" lon="5.35151">
        <ele>1392.54</ele>
        <time>2016-06-01T11:39:13Z</time>
      </trkpt>
      <trkpt lat="44.84095" lon="5.3515">
        <ele>1392.31</ele>
        <time>2016-06-01T11:39:40Z</time>
      </trkpt>
      <trkpt lat="44.84097" lon="5.35148">
        <ele>1392.25</ele>
        <time>2016-06-01T11:40:02Z</time>
      </trkpt>
      <trkpt lat="44.84097" lon="5.3515">
        <ele>1392.33</ele>
        <time>2016-06-01T11:40:40Z</time>
      </trkpt>
      <trkpt lat="44.84099" lon="5.35152">
        <ele>1392.53</ele>
        <time>2016-06-01T11:41:03Z</time>
      </trkpt>
      <trkpt lat="44.84103" lon="5.35151">
        <ele>1392.98</ele>
        <time>2016-06-01T11:41:32Z</time>
      </trkpt>
      <trkpt lat="44.84101" lon="5.35157">
        <ele>1392.65</ele>
        <time>2016-06-01T11:41:55Z</time>
      </trkpt>
      <trkpt lat="44.84096" lon="5.35171">
        <ele>1392.68</ele>
        <time>2016-06-01T11:42:14Z</time>
      </trkpt>
      <trkpt lat="44.84096" lon="5.35168">
        <ele>1392.73</ele>
        <time>2016-06-01T11:42:42Z</time>
      </trkpt>
      <trkpt lat="44.841" lon="5.35164">
        <ele>1392.35</ele>
        <time>2016-06-01T11:43:06Z</time>
      </trkpt>
      <trkpt lat="44.84107" lon="5.35162">
        <ele>1392.25</ele>
        <time>2016-06-01T11:43:31Z</time>
      </trkpt>
      <trkpt lat="44.8411" lon="5.35159">
        <ele>1392.45</ele>
        <time>2016-06-01T11:43:54Z</time>
      </trkpt>
      <trkpt lat="44.84106" lon="5.35162">
        <ele>1392.44</ele>
        <time>2016-06-01T11:44:11Z</time>
      </trkpt>
      <trkpt lat="44.84101" lon="5.35166">
        <ele>1392.14</ele>
        <time>2016-06-01T11:44:38Z</time>
      </trkpt>
      <trkpt lat="44.84103" lon="5.35172">
        <ele>1392.2</ele>
        <time>2016-06-01T11:44:41Z</time>
      </trkpt>
      <trkpt lat="44.84103" lon="5.3518">
        <ele>1392.26</ele>
        <time>2016-06-01T11:44:44Z</time>
      </trkpt>
      <trkpt lat="44.84103" lon="5.35183">
        <ele>1392.26</ele>
        <time>2016-06-01T11:44:45Z</time>
      </trkpt>
      <trkpt lat="44.84103" lon="5.35186">
        <ele>1392.25</ele>
        <time>2016-06-01T11:44:46Z</time>
      </trkpt>
      <trkpt lat="44.84102" lon="5.3519">
        <ele>1392.24</ele>
        <time>2016-06-01T11:44:47Z</time>
      </trkpt>
      <trkpt lat="44.84078" lon="5.35221">
        <ele>1391.94</ele>
        <time>2016-06-01T11:44:59Z</time>
      </trkpt>
      <trkpt lat="44.84052" lon="5.35236">
        <ele>1391.88</ele>
        <time>2016-06-01T11:45:10Z</time>
      </trkpt>
      <trkpt lat="44.84021" lon="5.3525">
        <ele>1391.43</ele>
        <time>2016-06-01T11:45:22Z</time>
      </trkpt>
      <trkpt lat="44.83987" lon="5.35259">
        <ele>1391.15</ele>
        <time>2016-06-01T11:45:32Z</time>
      </trkpt>
      <trkpt lat="44.83956" lon="5.35266">
        <ele>1390.77</ele>
        <time>2016-06-01T11:45:42Z</time>
      </trkpt>
      <trkpt lat="44.83944" lon="5.35266">
        <ele>1390.45</ele>
        <time>2016-06-01T11:45:45Z</time>
      </trkpt>
      <trkpt lat="44.83881" lon="5.35261">
        <ele>1389.02</ele>
        <time>2016-06-01T11:45:58Z</time>
      </trkpt>
      <trkpt lat="44.83831" lon="5.35248">
        <ele>1388.26</ele>
        <time>2016-06-01T11:46:10Z</time>
      </trkpt>
      <trkpt lat="44.83791" lon="5.35223">
        <ele>1387.78</ele>
        <time>2016-06-01T11:46:22Z</time>
      </trkpt>
      <trkpt lat="44.83787" lon="5.3522">
        <ele>1387.69</ele>
        <time>2016-06-01T11:46:23Z</time>
      </trkpt>
      <trkpt lat="44.83777" lon="5.35208">
        <ele>1387.39</ele>
        <time>2016-06-01T11:46:26Z</time>
      </trkpt>
      <trkpt lat="44.83774" lon="5.35205">
        <ele>1387.26</ele>
        <time>2016-06-01T11:46:27Z</time>
      </trkpt>
      <trkpt lat="44.83771" lon="5.352">
        <ele>1387.13</ele>
        <time>2016-06-01T11:46:28Z</time>
      </trkpt>
      <trkpt lat="44.83769" lon="5.35195">
        <ele>1387</ele>
        <time>2016-06-01T11:46:29Z</time>
      </trkpt>
      <trkpt lat="44.83766" lon="5.3519">
        <ele>1386.88</ele>
        <time>2016-06-01T11:46:30Z</time>
      </trkpt>
      <trkpt lat="44.83764" lon="5.35184">
        <ele>1386.77</ele>
        <time>2016-06-01T11:46:31Z</time>
      </trkpt>
      <trkpt lat="44.83758" lon="5.35166">
        <ele>1386.26</ele>
        <time>2016-06-01T11:46:34Z</time>
      </trkpt>
      <trkpt lat="44.83756" lon="5.3516">
        <ele>1386.13</ele>
        <time>2016-06-01T11:46:35Z</time>
      </trkpt>
      <trkpt lat="44.83754" lon="5.35154">
        <ele>1386</ele>
        <time>2016-06-01T11:46:36Z</time>
      </trkpt>
      <trkpt lat="44.83728" lon="5.35103">
        <ele>1384.6</ele>
        <time>2016-06-01T11:46:47Z</time>
      </trkpt>
      <trkpt lat="44.83703" lon="5.35042">
        <ele>1383.12</ele>
        <time>2016-06-01T11:46:59Z</time>
      </trkpt>
      <trkpt lat="44.8367" lon="5.3499">
        <ele>1380.56</ele>
        <time>2016-06-01T11:47:11Z</time>
      </trkpt>
      <trkpt lat="44.83652" lon="5.34978">
        <ele>1378.29</ele>
        <time>2016-06-01T11:47:20Z</time>
      </trkpt>
      <trkpt lat="44.83648" lon="5.34979">
        <ele>1377.19</ele>
        <time>2016-06-01T11:47:26Z</time>
      </trkpt>
      <trkpt lat="44.83646" lon="5.34981">
        <ele>1377.07</ele>
        <time>2016-06-01T11:47:28Z</time>
      </trkpt>
      <trkpt lat="44.83644" lon="5.34983">
        <ele>1377.03</ele>
        <time>2016-06-01T11:47:29Z</time>
      </trkpt>
      <trkpt lat="44.83643" lon="5.34984">
        <ele>1376.99</ele>
        <time>2016-06-01T11:47:30Z</time>
      </trkpt>
      <trkpt lat="44.83635" lon="5.35011">
        <ele>1376.44</ele>
        <time>2016-06-01T11:47:39Z</time>
      </trkpt>
      <trkpt lat="44.83634" lon="5.35064">
        <ele>1373.82</ele>
        <time>2016-06-01T11:47:50Z</time>
      </trkpt>
      <trkpt lat="44.83638" lon="5.35109">
        <ele>1371.35</ele>
        <time>2016-06-01T11:48:00Z</time>
      </trkpt>
      <trkpt lat="44.83637" lon="5.35151">
        <ele>1369.34</ele>
        <time>2016-06-01T11:48:08Z</time>
      </trkpt>
      <trkpt lat="44.83641" lon="5.35199">
        <ele>1367.22</ele>
        <time>2016-06-01T11:48:16Z</time>
      </trkpt>
      <trkpt lat="44.83645" lon="5.35249">
        <ele>1364.95</ele>
        <time>2016-06-01T11:48:24Z</time>
      </trkpt>
      <trkpt lat="44.83646" lon="5.35255">
        <ele>1364.69</ele>
        <time>2016-06-01T11:48:25Z</time>
      </trkpt>
      <trkpt lat="44.83646" lon="5.35262">
        <ele>1364.42</ele>
        <time>2016-06-01T11:48:26Z</time>
      </trkpt>
      <trkpt lat="44.83646" lon="5.35312">
        <ele>1361.91</ele>
        <time>2016-06-01T11:48:34Z</time>
      </trkpt>
      <trkpt lat="44.83646" lon="5.35318">
        <ele>1361.57</ele>
        <time>2016-06-01T11:48:35Z</time>
      </trkpt>
      <trkpt lat="44.83646" lon="5.35345">
        <ele>1360.06</ele>
        <time>2016-06-01T11:48:39Z</time>
      </trkpt>
      <trkpt lat="44.83646" lon="5.35352">
        <ele>1359.7</ele>
        <time>2016-06-01T11:48:40Z</time>
      </trkpt>
      <trkpt lat="44.83645" lon="5.35359">
        <ele>1359.33</ele>
        <time>2016-06-01T11:48:41Z</time>
      </trkpt>
      <trkpt lat="44.83645" lon="5.35366">
        <ele>1358.99</ele>
        <time>2016-06-01T11:48:42Z</time>
      </trkpt>
      <trkpt lat="44.83645" lon="5.35373">
        <ele>1358.69</ele>
        <time>2016-06-01T11:48:43Z</time>
      </trkpt>
      <trkpt lat="44.83645" lon="5.35381">
        <ele>1358.41</ele>
        <time>2016-06-01T11:48:44Z</time>
      </trkpt>
      <trkpt lat="44.83644" lon="5.3541">
        <ele>1357.19</ele>
        <time>2016-06-01T11:48:48Z</time>
      </trkpt>
      <trkpt lat="44.83642" lon="5.35423">
        <ele>1356.53</ele>
        <time>2016-06-01T11:48:50Z</time>
      </trkpt>
      <trkpt lat="44.8364" lon="5.35428">
        <ele>1356.18</ele>
        <time>2016-06-01T11:48:51Z</time>
      </trkpt>
      <trkpt lat="44.83639" lon="5.35434">
        <ele>1355.84</ele>
        <time>2016-06-01T11:48:52Z</time>
      </trkpt>
      <trkpt lat="44.83636" lon="5.3544">
        <ele>1355.5</ele>
        <time>2016-06-01T11:48:53Z</time>
      </trkpt>
      <trkpt lat="44.83633" lon="5.35445">
        <ele>1355.18</ele>
        <time>2016-06-01T11:48:54Z</time>
      </trkpt>
      <trkpt lat="44.83621" lon="5.35468">
        <ele>1353.76</ele>
        <time>2016-06-01T11:48:58Z</time>
      </trkpt>
      <trkpt lat="44.83592" lon="5.35507">
        <ele>1350.44</ele>
        <time>2016-06-01T11:49:06Z</time>
      </trkpt>
      <trkpt lat="44.83588" lon="5.35512">
        <ele>1350.05</ele>
        <time>2016-06-01T11:49:07Z</time>
      </trkpt>
      <trkpt lat="44.83569" lon="5.35536">
        <ele>1348.44</ele>
        <time>2016-06-01T11:49:12Z</time>
      </trkpt>
      <trkpt lat="44.83565" lon="5.35541">
        <ele>1348.08</ele>
        <time>2016-06-01T11:49:13Z</time>
      </trkpt>
      <trkpt lat="44.83561" lon="5.35546">
        <ele>1347.69</ele>
        <time>2016-06-01T11:49:14Z</time>
      </trkpt>
      <trkpt lat="44.83548" lon="5.35564">
        <ele>1346.25</ele>
        <time>2016-06-01T11:49:18Z</time>
      </trkpt>
      <trkpt lat="44.83537" lon="5.35578">
        <ele>1345.18</ele>
        <time>2016-06-01T11:49:21Z</time>
      </trkpt>
      <trkpt lat="44.83533" lon="5.35584">
        <ele>1344.82</ele>
        <time>2016-06-01T11:49:22Z</time>
      </trkpt>
      <trkpt lat="44.8353" lon="5.35589">
        <ele>1344.47</ele>
        <time>2016-06-01T11:49:23Z</time>
      </trkpt>
      <trkpt lat="44.83508" lon="5.35623">
        <ele>1342.39</ele>
        <time>2016-06-01T11:49:29Z</time>
      </trkpt>
      <trkpt lat="44.83499" lon="5.35642">
        <ele>1341.38</ele>
        <time>2016-06-01T11:49:32Z</time>
      </trkpt>
      <trkpt lat="44.83484" lon="5.35681">
        <ele>1339.5</ele>
        <time>2016-06-01T11:49:38Z</time>
      </trkpt>
      <trkpt lat="44.83477" lon="5.35699">
        <ele>1338.65</ele>
        <time>2016-06-01T11:49:41Z</time>
      </trkpt>
      <trkpt lat="44.83466" lon="5.35723">
        <ele>1337.75</ele>
        <time>2016-06-01T11:49:45Z</time>
      </trkpt>
      <trkpt lat="44.83449" lon="5.35749">
        <ele>1336.35</ele>
        <time>2016-06-01T11:49:50Z</time>
      </trkpt>
      <trkpt lat="44.83431" lon="5.35771">
        <ele>1335.31</ele>
        <time>2016-06-01T11:49:55Z</time>
      </trkpt>
      <trkpt lat="44.8342" lon="5.35786">
        <ele>1334.47</ele>
        <time>2016-06-01T11:49:58Z</time>
      </trkpt>
      <trkpt lat="44.83414" lon="5.35797">
        <ele>1333.92</ele>
        <time>2016-06-01T11:50:00Z</time>
      </trkpt>
      <trkpt lat="44.83411" lon="5.35803">
        <ele>1333.68</ele>
        <time>2016-06-01T11:50:01Z</time>
      </trkpt>
      <trkpt lat="44.83405" lon="5.35839">
        <ele>1331.67</ele>
        <time>2016-06-01T11:50:10Z</time>
      </trkpt>
      <trkpt lat="44.83407" lon="5.35845">
        <ele>1331.19</ele>
        <time>2016-06-01T11:50:13Z</time>
      </trkpt>
      <trkpt lat="44.83409" lon="5.35849">
        <ele>1330.8</ele>
        <time>2016-06-01T11:50:15Z</time>
      </trkpt>
      <trkpt lat="44.83405" lon="5.35864">
        <ele>1330.42</ele>
        <time>2016-06-01T11:50:20Z</time>
      </trkpt>
      <trkpt lat="44.83411" lon="5.35882">
        <ele>1330.09</ele>
        <time>2016-06-01T11:50:26Z</time>
      </trkpt>
      <trkpt lat="44.83413" lon="5.35884">
        <ele>1330.03</ele>
        <time>2016-06-01T11:50:27Z</time>
      </trkpt>
      <trkpt lat="44.83427" lon="5.35892">
        <ele>1329.53</ele>
        <time>2016-06-01T11:50:40Z</time>
      </trkpt>
      <trkpt lat="44.83426" lon="5.35893">
        <ele>1329.43</ele>
        <time>2016-06-01T11:51:12Z</time>
      </trkpt>
      <trkpt lat="44.8343" lon="5.35891">
        <ele>1329.32</ele>
        <time>2016-06-01T11:51:20Z</time>
      </trkpt>
      <trkpt lat="44.83433" lon="5.35889">
        <ele>1329.39</ele>
        <time>2016-06-01T11:51:22Z</time>
      </trkpt>
      <trkpt lat="44.83435" lon="5.35889">
        <ele>1329.45</ele>
        <time>2016-06-01T11:51:23Z</time>
      </trkpt>
      <trkpt lat="44.83437" lon="5.35888">
        <ele>1329.53</ele>
        <time>2016-06-01T11:51:24Z</time>
      </trkpt>
      <trkpt lat="44.8344" lon="5.35887">
        <ele>1329.6</ele>
        <time>2016-06-01T11:51:25Z</time>
      </trkpt>
      <trkpt lat="44.83441" lon="5.35885">
        <ele>1329.67</ele>
        <time>2016-06-01T11:51:26Z</time>
      </trkpt>
      <trkpt lat="44.83443" lon="5.35884">
        <ele>1329.74</ele>
        <time>2016-06-01T11:51:27Z</time>
      </trkpt>
      <trkpt lat="44.83446" lon="5.35884">
        <ele>1329.82</ele>
        <time>2016-06-01T11:51:28Z</time>
      </trkpt>
      <trkpt lat="44.83448" lon="5.35884">
        <ele>1329.82</ele>
        <time>2016-06-01T11:51:29Z</time>
      </trkpt>
      <trkpt lat="44.83468" lon="5.3588">
        <ele>1331.29</ele>
        <time>2016-06-01T11:51:42Z</time>
      </trkpt>
      <trkpt lat="44.83487" lon="5.35869">
        <ele>1332.75</ele>
        <time>2016-06-01T11:51:52Z</time>
      </trkpt>
      <trkpt lat="44.83504" lon="5.35852">
        <ele>1334.25</ele>
        <time>2016-06-01T11:52:05Z</time>
      </trkpt>
      <trkpt lat="44.83514" lon="5.35841">
        <ele>1334.82</ele>
        <time>2016-06-01T11:52:10Z</time>
      </trkpt>
      <trkpt lat="44.83534" lon="5.35826">
        <ele>1336.09</ele>
        <time>2016-06-01T11:52:20Z</time>
      </trkpt>
      <trkpt lat="44.83536" lon="5.35824">
        <ele>1336.24</ele>
        <time>2016-06-01T11:52:21Z</time>
      </trkpt>
      <trkpt lat="44.83538" lon="5.35823">
        <ele>1336.36</ele>
        <time>2016-06-01T11:52:22Z</time>
      </trkpt>
      <trkpt lat="44.8354" lon="5.35823">
        <ele>1336.5</ele>
        <time>2016-06-01T11:52:23Z</time>
      </trkpt>
      <trkpt lat="44.83542" lon="5.35822">
        <ele>1336.62</ele>
        <time>2016-06-01T11:52:24Z</time>
      </trkpt>
      <trkpt lat="44.83545" lon="5.35822">
        <ele>1336.74</ele>
        <time>2016-06-01T11:52:25Z</time>
      </trkpt>
      <trkpt lat="44.83549" lon="5.35822">
        <ele>1336.84</ele>
        <time>2016-06-01T11:52:26Z</time>
      </trkpt>
      <trkpt lat="44.83552" lon="5.35823">
        <ele>1336.93</ele>
        <time>2016-06-01T11:52:27Z</time>
      </trkpt>
      <trkpt lat="44.83555" lon="5.35824">
        <ele>1337.04</ele>
        <time>2016-06-01T11:52:28Z</time>
      </trkpt>
      <trkpt lat="44.83586" lon="5.35852">
        <ele>1337.91</ele>
        <time>2016-06-01T11:52:40Z</time>
      </trkpt>
      <trkpt lat="44.83598" lon="5.35873">
        <ele>1338.09</ele>
        <time>2016-06-01T11:52:48Z</time>
      </trkpt>
      <trkpt lat="44.836" lon="5.35876">
        <ele>1338.13</ele>
        <time>2016-06-01T11:52:49Z</time>
      </trkpt>
      <trkpt lat="44.83601" lon="5.3588">
        <ele>1338.17</ele>
        <time>2016-06-01T11:52:50Z</time>
      </trkpt>
      <trkpt lat="44.83602" lon="5.35883">
        <ele>1338.2</ele>
        <time>2016-06-01T11:52:51Z</time>
      </trkpt>
      <trkpt lat="44.83602" lon="5.35887">
        <ele>1338.25</ele>
        <time>2016-06-01T11:52:52Z</time>
      </trkpt>
      <trkpt lat="44.83602" lon="5.35891">
        <ele>1338.31</ele>
        <time>2016-06-01T11:52:53Z</time>
      </trkpt>
      <trkpt lat="44.83601" lon="5.35894">
        <ele>1338.36</ele>
        <time>2016-06-01T11:52:54Z</time>
      </trkpt>
      <trkpt lat="44.836" lon="5.35898">
        <ele>1338.42</ele>
        <time>2016-06-01T11:52:55Z</time>
      </trkpt>
      <trkpt lat="44.83598" lon="5.35901">
        <ele>1338.49</ele>
        <time>2016-06-01T11:52:56Z</time>
      </trkpt>
      <trkpt lat="44.83597" lon="5.35905">
        <ele>1338.59</ele>
        <time>2016-06-01T11:52:57Z</time>
      </trkpt>
      <trkpt lat="44.83596" lon="5.35908">
        <ele>1338.69</ele>
        <time>2016-06-01T11:52:58Z</time>
      </trkpt>
      <trkpt lat="44.83585" lon="5.35949">
        <ele>1339.23</ele>
        <time>2016-06-01T11:53:10Z</time>
      </trkpt>
      <trkpt lat="44.8358" lon="5.36">
        <ele>1339.79</ele>
        <time>2016-06-01T11:53:23Z</time>
      </trkpt>
      <trkpt lat="44.83577" lon="5.36036">
        <ele>1340.4</ele>
        <time>2016-06-01T11:53:34Z</time>
      </trkpt>
      <trkpt lat="44.83577" lon="5.36039">
        <ele>1340.47</ele>
        <time>2016-06-01T11:53:35Z</time>
      </trkpt>
      <trkpt lat="44.83577" lon="5.36045">
        <ele>1340.61</ele>
        <time>2016-06-01T11:53:37Z</time>
      </trkpt>
      <trkpt lat="44.83577" lon="5.36048">
        <ele>1340.7</ele>
        <time>2016-06-01T11:53:38Z</time>
      </trkpt>
      <trkpt lat="44.83578" lon="5.36051">
        <ele>1340.81</ele>
        <time>2016-06-01T11:53:39Z</time>
      </trkpt>
      <trkpt lat="44.83581" lon="5.36097">
        <ele>1341.71</ele>
        <time>2016-06-01T11:53:50Z</time>
      </trkpt>
      <trkpt lat="44.8357" lon="5.36143">
        <ele>1342.07</ele>
        <time>2016-06-01T11:54:02Z</time>
      </trkpt>
      <trkpt lat="44.83545" lon="5.36179">
        <ele>1342.68</ele>
        <time>2016-06-01T11:54:15Z</time>
      </trkpt>
      <trkpt lat="44.83519" lon="5.36209">
        <ele>1343.39</ele>
        <time>2016-06-01T11:54:27Z</time>
      </trkpt>
      <trkpt lat="44.83494" lon="5.36238">
        <ele>1343.78</ele>
        <time>2016-06-01T11:54:38Z</time>
      </trkpt>
      <trkpt lat="44.83467" lon="5.36277">
        <ele>1343.99</ele>
        <time>2016-06-01T11:54:50Z</time>
      </trkpt>
      <trkpt lat="44.83445" lon="5.36328">
        <ele>1344.47</ele>
        <time>2016-06-01T11:55:04Z</time>
      </trkpt>
      <trkpt lat="44.83429" lon="5.3637">
        <ele>1345.23</ele>
        <time>2016-06-01T11:55:16Z</time>
      </trkpt>
      <trkpt lat="44.83408" lon="5.36418">
        <ele>1345.8</ele>
        <time>2016-06-01T11:55:29Z</time>
      </trkpt>
      <trkpt lat="44.83391" lon="5.36465">
        <ele>1346.49</ele>
        <time>2016-06-01T11:55:41Z</time>
      </trkpt>
      <trkpt lat="44.83365" lon="5.36521">
        <ele>1346.96</ele>
        <time>2016-06-01T11:55:55Z</time>
      </trkpt>
      <trkpt lat="44.83327" lon="5.36573">
        <ele>1347.59</ele>
        <time>2016-06-01T11:56:11Z</time>
      </trkpt>
      <trkpt lat="44.83299" lon="5.36604">
        <ele>1347.92</ele>
        <time>2016-06-01T11:56:22Z</time>
      </trkpt>
      <trkpt lat="44.83264" lon="5.36643">
        <ele>1348.73</ele>
        <time>2016-06-01T11:56:36Z</time>
      </trkpt>
      <trkpt lat="44.83229" lon="5.36672">
        <ele>1349.24</ele>
        <time>2016-06-01T11:56:48Z</time>
      </trkpt>
      <trkpt lat="44.83198" lon="5.36694">
        <ele>1350.14</ele>
        <time>2016-06-01T11:56:58Z</time>
      </trkpt>
      <trkpt lat="44.83162" lon="5.36706">
        <ele>1350.46</ele>
        <time>2016-06-01T11:57:09Z</time>
      </trkpt>
      <trkpt lat="44.83135" lon="5.36703">
        <ele>1350.38</ele>
        <time>2016-06-01T11:57:22Z</time>
      </trkpt>
      <trkpt lat="44.83131" lon="5.367">
        <ele>1350.3</ele>
        <time>2016-06-01T11:57:27Z</time>
      </trkpt>
      <trkpt lat="44.8313" lon="5.36698">
        <ele>1350.88</ele>
        <time>2016-06-01T11:57:46Z</time>
      </trkpt>
      <trkpt lat="44.83126" lon="5.36701">
        <ele>1350.74</ele>
        <time>2016-06-01T11:58:16Z</time>
      </trkpt>
      <trkpt lat="44.83126" lon="5.36697">
        <ele>1350.92</ele>
        <time>2016-06-01T11:58:46Z</time>
      </trkpt>
      <trkpt lat="44.83123" lon="5.367">
        <ele>1351.27</ele>
        <time>2016-06-01T11:59:09Z</time>
      </trkpt>
      <trkpt lat="44.83119" lon="5.36702">
        <ele>1351.73</ele>
        <time>2016-06-01T11:59:33Z</time>
      </trkpt>
      <trkpt lat="44.83114" lon="5.36703">
        <ele>1351.96</ele>
        <time>2016-06-01T11:59:59Z</time>
      </trkpt>
      <trkpt lat="44.83112" lon="5.36703">
        <ele>1352.02</ele>
        <time>2016-06-01T12:00:00Z</time>
      </trkpt>
      <trkpt lat="44.8311" lon="5.36704">
        <ele>1352.08</ele>
        <time>2016-06-01T12:00:01Z</time>
      </trkpt>
      <trkpt lat="44.83109" lon="5.36705">
        <ele>1352.14</ele>
        <time>2016-06-01T12:00:02Z</time>
      </trkpt>
      <trkpt lat="44.83107" lon="5.36705">
        <ele>1352.23</ele>
        <time>2016-06-01T12:00:03Z</time>
      </trkpt>
      <trkpt lat="44.83105" lon="5.36706">
        <ele>1352.36</ele>
        <time>2016-06-01T12:00:04Z</time>
      </trkpt>
      <trkpt lat="44.83103" lon="5.36706">
        <ele>1352.52</ele>
        <time>2016-06-01T12:00:05Z</time>
      </trkpt>
      <trkpt lat="44.83101" lon="5.36706">
        <ele>1352.68</ele>
        <time>2016-06-01T12:00:06Z</time>
      </trkpt>
      <trkpt lat="44.831" lon="5.36707">
        <ele>1352.87</ele>
        <time>2016-06-01T12:00:07Z</time>
      </trkpt>
      <trkpt lat="44.83071" lon="5.36714">
        <ele>1355.95</ele>
        <time>2016-06-01T12:00:21Z</time>
      </trkpt>
      <trkpt lat="44.83045" lon="5.36717">
        <ele>1358.41</ele>
        <time>2016-06-01T12:00:34Z</time>
      </trkpt>
      <trkpt lat="44.83022" lon="5.36725">
        <ele>1360.63</ele>
        <time>2016-06-01T12:00:47Z</time>
      </trkpt>
      <trkpt lat="44.83009" lon="5.36738">
        <ele>1362.12</ele>
        <time>2016-06-01T12:00:58Z</time>
      </trkpt>
      <trkpt lat="44.83009" lon="5.3674">
        <ele>1362.23</ele>
        <time>2016-06-01T12:00:59Z</time>
      </trkpt>
      <trkpt lat="44.8301" lon="5.36742">
        <ele>1362.35</ele>
        <time>2016-06-01T12:01:00Z</time>
      </trkpt>
      <trkpt lat="44.8301" lon="5.36744">
        <ele>1362.47</ele>
        <time>2016-06-01T12:01:01Z</time>
      </trkpt>
      <trkpt lat="44.83011" lon="5.36746">
        <ele>1362.68</ele>
        <time>2016-06-01T12:01:02Z</time>
      </trkpt>
      <trkpt lat="44.83012" lon="5.36747">
        <ele>1362.77</ele>
        <time>2016-06-01T12:01:03Z</time>
      </trkpt>
      <trkpt lat="44.83013" lon="5.36749">
        <ele>1362.77</ele>
        <time>2016-06-01T12:01:04Z</time>
      </trkpt>
      <trkpt lat="44.83014" lon="5.3675">
        <ele>1362.85</ele>
        <time>2016-06-01T12:01:05Z</time>
      </trkpt>
      <trkpt lat="44.83015" lon="5.36752">
        <ele>1362.96</ele>
        <time>2016-06-01T12:01:06Z</time>
      </trkpt>
      <trkpt lat="44.83015" lon="5.36753">
        <ele>1363.07</ele>
        <time>2016-06-01T12:01:07Z</time>
      </trkpt>
      <trkpt lat="44.83016" lon="5.36754">
        <ele>1363.16</ele>
        <time>2016-06-01T12:01:08Z</time>
      </trkpt>
      <trkpt lat="44.83017" lon="5.36756">
        <ele>1363.25</ele>
        <time>2016-06-01T12:01:09Z</time>
      </trkpt>
      <trkpt lat="44.83017" lon="5.36757">
        <ele>1363.34</ele>
        <time>2016-06-01T12:01:10Z</time>
      </trkpt>
      <trkpt lat="44.8303" lon="5.36782">
        <ele>1366.08</ele>
        <time>2016-06-01T12:01:27Z</time>
      </trkpt>
      <trkpt lat="44.83041" lon="5.36805">
        <ele>1367.89</ele>
        <time>2016-06-01T12:01:41Z</time>
      </trkpt>
      <trkpt lat="44.83042" lon="5.36806">
        <ele>1368.01</ele>
        <time>2016-06-01T12:01:42Z</time>
      </trkpt>
      <trkpt lat="44.83043" lon="5.36808">
        <ele>1368.13</ele>
        <time>2016-06-01T12:01:43Z</time>
      </trkpt>
      <trkpt lat="44.83044" lon="5.3681">
        <ele>1368.28</ele>
        <time>2016-06-01T12:01:44Z</time>
      </trkpt>
      <trkpt lat="44.83045" lon="5.36811">
        <ele>1368.45</ele>
        <time>2016-06-01T12:01:45Z</time>
      </trkpt>
      <trkpt lat="44.83058" lon="5.3683">
        <ele>1370.94</ele>
        <time>2016-06-01T12:01:59Z</time>
      </trkpt>
      <trkpt lat="44.83064" lon="5.36838">
        <ele>1371.91</ele>
        <time>2016-06-01T12:02:04Z</time>
      </trkpt>
      <trkpt lat="44.83065" lon="5.36839">
        <ele>1372.12</ele>
        <time>2016-06-01T12:02:05Z</time>
      </trkpt>
      <trkpt lat="44.83067" lon="5.36841">
        <ele>1372.12</ele>
        <time>2016-06-01T12:02:06Z</time>
      </trkpt>
      <trkpt lat="44.83068" lon="5.36842">
        <ele>1372.52</ele>
        <time>2016-06-01T12:02:07Z</time>
      </trkpt>
      <trkpt lat="44.83068" lon="5.36844">
        <ele>1372.68</ele>
        <time>2016-06-01T12:02:08Z</time>
      </trkpt>
      <trkpt lat="44.83069" lon="5.36845">
        <ele>1372.81</ele>
        <time>2016-06-01T12:02:09Z</time>
      </trkpt>
      <trkpt lat="44.83069" lon="5.36847">
        <ele>1372.94</ele>
        <time>2016-06-01T12:02:10Z</time>
      </trkpt>
      <trkpt lat="44.8307" lon="5.36848">
        <ele>1373.11</ele>
        <time>2016-06-01T12:02:11Z</time>
      </trkpt>
      <trkpt lat="44.83071" lon="5.3685">
        <ele>1373.31</ele>
        <time>2016-06-01T12:02:12Z</time>
      </trkpt>
      <trkpt lat="44.83072" lon="5.36851">
        <ele>1373.51</ele>
        <time>2016-06-01T12:02:13Z</time>
      </trkpt>
      <trkpt lat="44.83081" lon="5.36874">
        <ele>1375.47</ele>
        <time>2016-06-01T12:02:27Z</time>
      </trkpt>
      <trkpt lat="44.83089" lon="5.36896">
        <ele>1377.49</ele>
        <time>2016-06-01T12:02:40Z</time>
      </trkpt>
      <trkpt lat="44.83091" lon="5.36899">
        <ele>1377.82</ele>
        <time>2016-06-01T12:02:42Z</time>
      </trkpt>
      <trkpt lat="44.83105" lon="5.36915">
        <ele>1379.98</ele>
        <time>2016-06-01T12:02:55Z</time>
      </trkpt>
      <trkpt lat="44.83107" lon="5.36918">
        <ele>1380.24</ele>
        <time>2016-06-01T12:02:57Z</time>
      </trkpt>
      <trkpt lat="44.83108" lon="5.36919">
        <ele>1380.53</ele>
        <time>2016-06-01T12:02:58Z</time>
      </trkpt>
      <trkpt lat="44.83109" lon="5.3692">
        <ele>1380.7</ele>
        <time>2016-06-01T12:02:59Z</time>
      </trkpt>
      <trkpt lat="44.8312" lon="5.36939">
        <ele>1382.92</ele>
        <time>2016-06-01T12:03:13Z</time>
      </trkpt>
      <trkpt lat="44.83135" lon="5.36959">
        <ele>1385.37</ele>
        <time>2016-06-01T12:03:27Z</time>
      </trkpt>
      <trkpt lat="44.83145" lon="5.36976">
        <ele>1387.57</ele>
        <time>2016-06-01T12:03:41Z</time>
      </trkpt>
      <trkpt lat="44.83152" lon="5.36987">
        <ele>1389.19</ele>
        <time>2016-06-01T12:03:49Z</time>
      </trkpt>
      <trkpt lat="44.83153" lon="5.36988">
        <ele>1389.39</ele>
        <time>2016-06-01T12:03:50Z</time>
      </trkpt>
      <trkpt lat="44.83154" lon="5.3699">
        <ele>1389.58</ele>
        <time>2016-06-01T12:03:51Z</time>
      </trkpt>
      <trkpt lat="44.83155" lon="5.36991">
        <ele>1389.77</ele>
        <time>2016-06-01T12:03:52Z</time>
      </trkpt>
      <trkpt lat="44.83156" lon="5.36993">
        <ele>1389.96</ele>
        <time>2016-06-01T12:03:53Z</time>
      </trkpt>
      <trkpt lat="44.83157" lon="5.36994">
        <ele>1390.13</ele>
        <time>2016-06-01T12:03:54Z</time>
      </trkpt>
      <trkpt lat="44.83158" lon="5.36995">
        <ele>1390.28</ele>
        <time>2016-06-01T12:03:55Z</time>
      </trkpt>
      <trkpt lat="44.83159" lon="5.36996">
        <ele>1390.43</ele>
        <time>2016-06-01T12:03:56Z</time>
      </trkpt>
      <trkpt lat="44.8316" lon="5.36997">
        <ele>1390.6</ele>
        <time>2016-06-01T12:03:57Z</time>
      </trkpt>
      <trkpt lat="44.83161" lon="5.36999">
        <ele>1390.8</ele>
        <time>2016-06-01T12:03:58Z</time>
      </trkpt>
      <trkpt lat="44.83161" lon="5.37">
        <ele>1391</ele>
        <time>2016-06-01T12:03:59Z</time>
      </trkpt>
      <trkpt lat="44.83162" lon="5.37002">
        <ele>1391.18</ele>
        <time>2016-06-01T12:04:00Z</time>
      </trkpt>
      <trkpt lat="44.83163" lon="5.37003">
        <ele>1391.38</ele>
        <time>2016-06-01T12:04:01Z</time>
      </trkpt>
      <trkpt lat="44.83164" lon="5.37004">
        <ele>1391.55</ele>
        <time>2016-06-01T12:04:02Z</time>
      </trkpt>
      <trkpt lat="44.83165" lon="5.37005">
        <ele>1391.7</ele>
        <time>2016-06-01T12:04:03Z</time>
      </trkpt>
      <trkpt lat="44.83181" lon="5.37031">
        <ele>1394.66</ele>
        <time>2016-06-01T12:04:19Z</time>
      </trkpt>
      <trkpt lat="44.83195" lon="5.37054">
        <ele>1396.86</ele>
        <time>2016-06-01T12:04:33Z</time>
      </trkpt>
      <trkpt lat="44.83213" lon="5.37075">
        <ele>1399.51</ele>
        <time>2016-06-01T12:04:47Z</time>
      </trkpt>
      <trkpt lat="44.83218" lon="5.37081">
        <ele>1400.16</ele>
        <time>2016-06-01T12:04:51Z</time>
      </trkpt>
      <trkpt lat="44.83219" lon="5.37083">
        <ele>1400.36</ele>
        <time>2016-06-01T12:04:52Z</time>
      </trkpt>
      <trkpt lat="44.8322" lon="5.37085">
        <ele>1400.58</ele>
        <time>2016-06-01T12:04:53Z</time>
      </trkpt>
      <trkpt lat="44.83221" lon="5.37086">
        <ele>1400.79</ele>
        <time>2016-06-01T12:04:54Z</time>
      </trkpt>
      <trkpt lat="44.83222" lon="5.37088">
        <ele>1401</ele>
        <time>2016-06-01T12:04:55Z</time>
      </trkpt>
      <trkpt lat="44.83223" lon="5.3709">
        <ele>1401.2</ele>
        <time>2016-06-01T12:04:56Z</time>
      </trkpt>
      <trkpt lat="44.83224" lon="5.37091">
        <ele>1401.41</ele>
        <time>2016-06-01T12:04:57Z</time>
      </trkpt>
      <trkpt lat="44.83225" lon="5.37093">
        <ele>1401.6</ele>
        <time>2016-06-01T12:04:58Z</time>
      </trkpt>
      <trkpt lat="44.83226" lon="5.37095">
        <ele>1401.81</ele>
        <time>2016-06-01T12:04:59Z</time>
      </trkpt>
      <trkpt lat="44.83227" lon="5.37097">
        <ele>1402.04</ele>
        <time>2016-06-01T12:05:00Z</time>
      </trkpt>
      <trkpt lat="44.83228" lon="5.37099">
        <ele>1402.28</ele>
        <time>2016-06-01T12:05:01Z</time>
      </trkpt>
      <trkpt lat="44.83241" lon="5.37126">
        <ele>1404.95</ele>
        <time>2016-06-01T12:05:15Z</time>
      </trkpt>
      <trkpt lat="44.83244" lon="5.37131">
        <ele>1405.7</ele>
        <time>2016-06-01T12:05:18Z</time>
      </trkpt>
      <trkpt lat="44.83245" lon="5.37132">
        <ele>1405.93</ele>
        <time>2016-06-01T12:05:19Z</time>
      </trkpt>
      <trkpt lat="44.83246" lon="5.37133">
        <ele>1406.15</ele>
        <time>2016-06-01T12:05:20Z</time>
      </trkpt>
      <trkpt lat="44.83247" lon="5.37135">
        <ele>1406.36</ele>
        <time>2016-06-01T12:05:21Z</time>
      </trkpt>
      <trkpt lat="44.83248" lon="5.37136">
        <ele>1406.57</ele>
        <time>2016-06-01T12:05:22Z</time>
      </trkpt>
      <trkpt lat="44.83249" lon="5.37138">
        <ele>1406.76</ele>
        <time>2016-06-01T12:05:23Z</time>
      </trkpt>
      <trkpt lat="44.83249" lon="5.3714">
        <ele>1406.95</ele>
        <time>2016-06-01T12:05:24Z</time>
      </trkpt>
      <trkpt lat="44.8325" lon="5.37141">
        <ele>1407.14</ele>
        <time>2016-06-01T12:05:25Z</time>
      </trkpt>
      <trkpt lat="44.83251" lon="5.37143">
        <ele>1407.51</ele>
        <time>2016-06-01T12:05:26Z</time>
      </trkpt>
      <trkpt lat="44.83252" lon="5.37145">
        <ele>1407.7</ele>
        <time>2016-06-01T12:05:27Z</time>
      </trkpt>
      <trkpt lat="44.83253" lon="5.37147">
        <ele>1407.87</ele>
        <time>2016-06-01T12:05:28Z</time>
      </trkpt>
      <trkpt lat="44.83262" lon="5.37164">
        <ele>1410.12</ele>
        <time>2016-06-01T12:05:39Z</time>
      </trkpt>
      <trkpt lat="44.83263" lon="5.37166">
        <ele>1410.35</ele>
        <time>2016-06-01T12:05:40Z</time>
      </trkpt>
      <trkpt lat="44.83264" lon="5.37168">
        <ele>1410.55</ele>
        <time>2016-06-01T12:05:41Z</time>
      </trkpt>
      <trkpt lat="44.83265" lon="5.37169">
        <ele>1410.73</ele>
        <time>2016-06-01T12:05:42Z</time>
      </trkpt>
      <trkpt lat="44.83266" lon="5.37171">
        <ele>1410.91</ele>
        <time>2016-06-01T12:05:43Z</time>
      </trkpt>
      <trkpt lat="44.83267" lon="5.37173">
        <ele>1411.08</ele>
        <time>2016-06-01T12:05:44Z</time>
      </trkpt>
      <trkpt lat="44.83268" lon="5.37176">
        <ele>1411.43</ele>
        <time>2016-06-01T12:05:46Z</time>
      </trkpt>
      <trkpt lat="44.83268" lon="5.37177">
        <ele>1411.63</ele>
        <time>2016-06-01T12:05:47Z</time>
      </trkpt>
      <trkpt lat="44.83268" lon="5.37179">
        <ele>1411.84</ele>
        <time>2016-06-01T12:05:48Z</time>
      </trkpt>
      <trkpt lat="44.83278" lon="5.37195">
        <ele>1414.2</ele>
        <time>2016-06-01T12:05:59Z</time>
      </trkpt>
      <trkpt lat="44.83279" lon="5.37196">
        <ele>1414.41</ele>
        <time>2016-06-01T12:06:00Z</time>
      </trkpt>
      <trkpt lat="44.8328" lon="5.37198">
        <ele>1414.58</ele>
        <time>2016-06-01T12:06:01Z</time>
      </trkpt>
      <trkpt lat="44.83281" lon="5.372">
        <ele>1414.73</ele>
        <time>2016-06-01T12:06:02Z</time>
      </trkpt>
      <trkpt lat="44.83282" lon="5.37202">
        <ele>1414.86</ele>
        <time>2016-06-01T12:06:03Z</time>
      </trkpt>
      <trkpt lat="44.83283" lon="5.37204">
        <ele>1415.01</ele>
        <time>2016-06-01T12:06:04Z</time>
      </trkpt>
      <trkpt lat="44.83285" lon="5.3721">
        <ele>1415.59</ele>
        <time>2016-06-01T12:06:07Z</time>
      </trkpt>
      <trkpt lat="44.83295" lon="5.37224">
        <ele>1417.25</ele>
        <time>2016-06-01T12:06:16Z</time>
      </trkpt>
      <trkpt lat="44.83303" lon="5.37237">
        <ele>1418.73</ele>
        <time>2016-06-01T12:06:23Z</time>
      </trkpt>
      <trkpt lat="44.83305" lon="5.37239">
        <ele>1418.87</ele>
        <time>2016-06-01T12:06:24Z</time>
      </trkpt>
      <trkpt lat="44.83306" lon="5.37241">
        <ele>1419.02</ele>
        <time>2016-06-01T12:06:25Z</time>
      </trkpt>
      <trkpt lat="44.83307" lon="5.37243">
        <ele>1419.17</ele>
        <time>2016-06-01T12:06:26Z</time>
      </trkpt>
      <trkpt lat="44.83308" lon="5.37246">
        <ele>1419.35</ele>
        <time>2016-06-01T12:06:27Z</time>
      </trkpt>
      <trkpt lat="44.83309" lon="5.37248">
        <ele>1419.55</ele>
        <time>2016-06-01T12:06:28Z</time>
      </trkpt>
      <trkpt lat="44.8331" lon="5.3725">
        <ele>1419.73</ele>
        <time>2016-06-01T12:06:29Z</time>
      </trkpt>
      <trkpt lat="44.83329" lon="5.37273">
        <ele>1422.8</ele>
        <time>2016-06-01T12:06:44Z</time>
      </trkpt>
      <trkpt lat="44.83352" lon="5.3729">
        <ele>1425.82</ele>
        <time>2016-06-01T12:06:59Z</time>
      </trkpt>
      <trkpt lat="44.83379" lon="5.37305">
        <ele>1428.32</ele>
        <time>2016-06-01T12:07:14Z</time>
      </trkpt>
      <trkpt lat="44.834" lon="5.37319">
        <ele>1429.89</ele>
        <time>2016-06-01T12:07:26Z</time>
      </trkpt>
      <trkpt lat="44.83413" lon="5.37327">
        <ele>1430.94</ele>
        <time>2016-06-01T12:07:39Z</time>
      </trkpt>
      <trkpt lat="44.83416" lon="5.37326">
        <ele>1430.89</ele>
        <time>2016-06-01T12:07:59Z</time>
      </trkpt>
      <trkpt lat="44.83419" lon="5.37321">
        <ele>1429.97</ele>
        <time>2016-06-01T12:08:17Z</time>
      </trkpt>
      <trkpt lat="44.83414" lon="5.37315">
        <ele>1430</ele>
        <time>2016-06-01T12:08:49Z</time>
      </trkpt>
      <trkpt lat="44.83414" lon="5.37324">
        <ele>1430.05</ele>
        <time>2016-06-01T12:09:24Z</time>
      </trkpt>
      <trkpt lat="44.83412" lon="5.37327">
        <ele>1429.98</ele>
        <time>2016-06-01T12:09:58Z</time>
      </trkpt>
      <trkpt lat="44.83412" lon="5.37334">
        <ele>1429.87</ele>
        <time>2016-06-01T12:10:30Z</time>
      </trkpt>
      <trkpt lat="44.83417" lon="5.37327">
        <ele>1429.96</ele>
        <time>2016-06-01T12:11:04Z</time>
      </trkpt>
      <trkpt lat="44.83417" lon="5.37329">
        <ele>1430.21</ele>
        <time>2016-06-01T12:11:35Z</time>
      </trkpt>
      <trkpt lat="44.83417" lon="5.3733">
        <ele>1431.02</ele>
        <time>2016-06-01T12:11:51Z</time>
      </trkpt>
      <trkpt lat="44.83414" lon="5.37331">
        <ele>1431.01</ele>
        <time>2016-06-01T12:12:22Z</time>
      </trkpt>
      <trkpt lat="44.83414" lon="5.3733">
        <ele>1431.32</ele>
        <time>2016-06-01T12:12:45Z</time>
      </trkpt>
      <trkpt lat="44.83413" lon="5.3733">
        <ele>1430.99</ele>
        <time>2016-06-01T12:13:03Z</time>
      </trkpt>
      <trkpt lat="44.83417" lon="5.37332">
        <ele>1431.03</ele>
        <time>2016-06-01T12:13:20Z</time>
      </trkpt>
      <trkpt lat="44.83418" lon="5.37334">
        <ele>1431.03</ele>
        <time>2016-06-01T12:13:21Z</time>
      </trkpt>
      <trkpt lat="44.8342" lon="5.37335">
        <ele>1431.04</ele>
        <time>2016-06-01T12:13:22Z</time>
      </trkpt>
      <trkpt lat="44.83421" lon="5.37336">
        <ele>1431.08</ele>
        <time>2016-06-01T12:13:23Z</time>
      </trkpt>
      <trkpt lat="44.83423" lon="5.37336">
        <ele>1431.13</ele>
        <time>2016-06-01T12:13:24Z</time>
      </trkpt>
      <trkpt lat="44.83425" lon="5.37337">
        <ele>1431.17</ele>
        <time>2016-06-01T12:13:25Z</time>
      </trkpt>
      <trkpt lat="44.83437" lon="5.3734">
        <ele>1431.57</ele>
        <time>2016-06-01T12:13:37Z</time>
      </trkpt>
      <trkpt lat="44.8344" lon="5.3734">
        <ele>1431.8</ele>
        <time>2016-06-01T12:13:42Z</time>
      </trkpt>
      <trkpt lat="44.83442" lon="5.37341">
        <ele>1431.85</ele>
        <time>2016-06-01T12:13:43Z</time>
      </trkpt>
      <trkpt lat="44.83443" lon="5.37342">
        <ele>1431.88</ele>
        <time>2016-06-01T12:13:44Z</time>
      </trkpt>
      <trkpt lat="44.83445" lon="5.37343">
        <ele>1431.91</ele>
        <time>2016-06-01T12:13:45Z</time>
      </trkpt>
      <trkpt lat="44.83447" lon="5.37344">
        <ele>1431.95</ele>
        <time>2016-06-01T12:13:46Z</time>
      </trkpt>
      <trkpt lat="44.83478" lon="5.37357">
        <ele>1432.32</ele>
        <time>2016-06-01T12:13:57Z</time>
      </trkpt>
      <trkpt lat="44.83509" lon="5.37374">
        <ele>1432.89</ele>
        <time>2016-06-01T12:14:11Z</time>
      </trkpt>
      <trkpt lat="44.83543" lon="5.37385">
        <ele>1432.35</ele>
        <time>2016-06-01T12:14:25Z</time>
      </trkpt>
      <trkpt lat="44.83565" lon="5.37387">
        <ele>1431.84</ele>
        <time>2016-06-01T12:14:33Z</time>
      </trkpt>
      <trkpt lat="44.83579" lon="5.37389">
        <ele>1431.65</ele>
        <time>2016-06-01T12:14:36Z</time>
      </trkpt>
      <trkpt lat="44.83583" lon="5.37391">
        <ele>1431.59</ele>
        <time>2016-06-01T12:14:37Z</time>
      </trkpt>
      <trkpt lat="44.83587" lon="5.37392">
        <ele>1431.56</ele>
        <time>2016-06-01T12:14:38Z</time>
      </trkpt>
      <trkpt lat="44.83591" lon="5.37393">
        <ele>1431.52</ele>
        <time>2016-06-01T12:14:39Z</time>
      </trkpt>
      <trkpt lat="44.83595" lon="5.37394">
        <ele>1431.48</ele>
        <time>2016-06-01T12:14:40Z</time>
      </trkpt>
      <trkpt lat="44.83626" lon="5.37407">
        <ele>1431.55</ele>
        <time>2016-06-01T12:14:49Z</time>
      </trkpt>
      <trkpt lat="44.83641" lon="5.37414">
        <ele>1431.7</ele>
        <time>2016-06-01T12:14:54Z</time>
      </trkpt>
      <trkpt lat="44.83644" lon="5.37415">
        <ele>1431.72</ele>
        <time>2016-06-01T12:14:55Z</time>
      </trkpt>
      <trkpt lat="44.83647" lon="5.37417">
        <ele>1431.74</ele>
        <time>2016-06-01T12:14:56Z</time>
      </trkpt>
      <trkpt lat="44.83686" lon="5.37435">
        <ele>1433.07</ele>
        <time>2016-06-01T12:15:10Z</time>
      </trkpt>
      <trkpt lat="44.83734" lon="5.37457">
        <ele>1434.33</ele>
        <time>2016-06-01T12:15:26Z</time>
      </trkpt>
      <trkpt lat="44.83763" lon="5.37471">
        <ele>1434.19</ele>
        <time>2016-06-01T12:15:34Z</time>
      </trkpt>
      <trkpt lat="44.83767" lon="5.37473">
        <ele>1434.14</ele>
        <time>2016-06-01T12:15:35Z</time>
      </trkpt>
      <trkpt lat="44.83788" lon="5.37482">
        <ele>1433.82</ele>
        <time>2016-06-01T12:15:40Z</time>
      </trkpt>
      <trkpt lat="44.83791" lon="5.37485">
        <ele>1433.75</ele>
        <time>2016-06-01T12:15:41Z</time>
      </trkpt>
      <trkpt lat="44.83795" lon="5.37487">
        <ele>1433.67</ele>
        <time>2016-06-01T12:15:42Z</time>
      </trkpt>
      <trkpt lat="44.83853" lon="5.37515">
        <ele>1433.74</ele>
        <time>2016-06-01T12:15:57Z</time>
      </trkpt>
      <trkpt lat="44.83901" lon="5.37542">
        <ele>1434.63</ele>
        <time>2016-06-01T12:16:10Z</time>
      </trkpt>
      <trkpt lat="44.83943" lon="5.37566">
        <ele>1434.92</ele>
        <time>2016-06-01T12:16:22Z</time>
      </trkpt>
      <trkpt lat="44.83955" lon="5.37572">
        <ele>1434.78</ele>
        <time>2016-06-01T12:16:25Z</time>
      </trkpt>
      <trkpt lat="44.83963" lon="5.37575">
        <ele>1434.67</ele>
        <time>2016-06-01T12:16:27Z</time>
      </trkpt>
      <trkpt lat="44.83968" lon="5.37577">
        <ele>1434.61</ele>
        <time>2016-06-01T12:16:28Z</time>
      </trkpt>
      <trkpt lat="44.83972" lon="5.37579">
        <ele>1434.52</ele>
        <time>2016-06-01T12:16:29Z</time>
      </trkpt>
      <trkpt lat="44.84016" lon="5.376">
        <ele>1433.45</ele>
        <time>2016-06-01T12:16:40Z</time>
      </trkpt>
      <trkpt lat="44.84059" lon="5.37622">
        <ele>1433.88</ele>
        <time>2016-06-01T12:16:52Z</time>
      </trkpt>
      <trkpt lat="44.84096" lon="5.37639">
        <ele>1434.24</ele>
        <time>2016-06-01T12:17:03Z</time>
      </trkpt>
      <trkpt lat="44.84104" lon="5.37642">
        <ele>1434.34</ele>
        <time>2016-06-01T12:17:05Z</time>
      </trkpt>
      <trkpt lat="44.84108" lon="5.37644">
        <ele>1434.35</ele>
        <time>2016-06-01T12:17:06Z</time>
      </trkpt>
      <trkpt lat="44.84113" lon="5.37646">
        <ele>1434.38</ele>
        <time>2016-06-01T12:17:07Z</time>
      </trkpt>
      <trkpt lat="44.84118" lon="5.37647">
        <ele>1434.41</ele>
        <time>2016-06-01T12:17:08Z</time>
      </trkpt>
      <trkpt lat="44.84123" lon="5.37649">
        <ele>1434.42</ele>
        <time>2016-06-01T12:17:09Z</time>
      </trkpt>
      <trkpt lat="44.84142" lon="5.37654">
        <ele>1434.41</ele>
        <time>2016-06-01T12:17:13Z</time>
      </trkpt>
      <trkpt lat="44.84146" lon="5.37656">
        <ele>1434.37</ele>
        <time>2016-06-01T12:17:14Z</time>
      </trkpt>
      <trkpt lat="44.8415" lon="5.37658">
        <ele>1434.3</ele>
        <time>2016-06-01T12:17:15Z</time>
      </trkpt>
      <trkpt lat="44.84154" lon="5.3766">
        <ele>1434.19</ele>
        <time>2016-06-01T12:17:16Z</time>
      </trkpt>
      <trkpt lat="44.84158" lon="5.37661">
        <ele>1434.06</ele>
        <time>2016-06-01T12:17:17Z</time>
      </trkpt>
      <trkpt lat="44.84195" lon="5.37674">
        <ele>1432.75</ele>
        <time>2016-06-01T12:17:27Z</time>
      </trkpt>
      <trkpt lat="44.84242" lon="5.37701">
        <ele>1433.1</ele>
        <time>2016-06-01T12:17:42Z</time>
      </trkpt>
      <trkpt lat="44.84285" lon="5.37728">
        <ele>1434.92</ele>
        <time>2016-06-01T12:17:56Z</time>
      </trkpt>
      <trkpt lat="44.84334" lon="5.37769">
        <ele>1437.15</ele>
        <time>2016-06-01T12:18:13Z</time>
      </trkpt>
      <trkpt lat="44.84372" lon="5.378">
        <ele>1438.71</ele>
        <time>2016-06-01T12:18:27Z</time>
      </trkpt>
      <trkpt lat="44.84399" lon="5.37829">
        <ele>1439.64</ele>
        <time>2016-06-01T12:18:40Z</time>
      </trkpt>
      <trkpt lat="44.84411" lon="5.37846">
        <ele>1440.35</ele>
        <time>2016-06-01T12:18:52Z</time>
      </trkpt>
      <trkpt lat="44.84427" lon="5.37868">
        <ele>1442.87</ele>
        <time>2016-06-01T12:19:09Z</time>
      </trkpt>
      <trkpt lat="44.84442" lon="5.37889">
        <ele>1445.88</ele>
        <time>2016-06-01T12:19:21Z</time>
      </trkpt>
      <trkpt lat="44.84458" lon="5.37912">
        <ele>1449.02</ele>
        <time>2016-06-01T12:19:35Z</time>
      </trkpt>
      <trkpt lat="44.84477" lon="5.37939">
        <ele>1451.51</ele>
        <time>2016-06-01T12:19:50Z</time>
      </trkpt>
      <trkpt lat="44.84495" lon="5.37966">
        <ele>1453.19</ele>
        <time>2016-06-01T12:20:01Z</time>
      </trkpt>
      <trkpt lat="44.84497" lon="5.37968">
        <ele>1453.29</ele>
        <time>2016-06-01T12:20:02Z</time>
      </trkpt>
      <trkpt lat="44.84497" lon="5.3797">
        <ele>1453.36</ele>
        <time>2016-06-01T12:20:03Z</time>
      </trkpt>
      <trkpt lat="44.84498" lon="5.37972">
        <ele>1453.44</ele>
        <time>2016-06-01T12:20:04Z</time>
      </trkpt>
      <trkpt lat="44.84499" lon="5.37974">
        <ele>1453.5</ele>
        <time>2016-06-01T12:20:05Z</time>
      </trkpt>
      <trkpt lat="44.84499" lon="5.37976">
        <ele>1453.56</ele>
        <time>2016-06-01T12:20:06Z</time>
      </trkpt>
      <trkpt lat="44.845" lon="5.37978">
        <ele>1453.6</ele>
        <time>2016-06-01T12:20:07Z</time>
      </trkpt>
      <trkpt lat="44.84499" lon="5.37982">
        <ele>1453.74</ele>
        <time>2016-06-01T12:20:10Z</time>
      </trkpt>
      <trkpt lat="44.84497" lon="5.37982">
        <ele>1453.84</ele>
        <time>2016-06-01T12:20:12Z</time>
      </trkpt>
      <trkpt lat="44.84491" lon="5.37986">
        <ele>1454.81</ele>
        <time>2016-06-01T12:20:27Z</time>
      </trkpt>
      <trkpt lat="44.84498" lon="5.3798">
        <ele>1454.72</ele>
        <time>2016-06-01T12:20:48Z</time>
      </trkpt>
      <trkpt lat="44.8451" lon="5.37983">
        <ele>1453.19</ele>
        <time>2016-06-01T12:21:02Z</time>
      </trkpt>
      <trkpt lat="44.84512" lon="5.37983">
        <ele>1452.99</ele>
        <time>2016-06-01T12:21:03Z</time>
      </trkpt>
      <trkpt lat="44.84514" lon="5.37984">
        <ele>1452.76</ele>
        <time>2016-06-01T12:21:04Z</time>
      </trkpt>
      <trkpt lat="44.84516" lon="5.37984">
        <ele>1452.53</ele>
        <time>2016-06-01T12:21:05Z</time>
      </trkpt>
      <trkpt lat="44.84519" lon="5.37985">
        <ele>1452.12</ele>
        <time>2016-06-01T12:21:06Z</time>
      </trkpt>
      <trkpt lat="44.84521" lon="5.37985">
        <ele>1451.91</ele>
        <time>2016-06-01T12:21:07Z</time>
      </trkpt>
      <trkpt lat="44.84546" lon="5.38003">
        <ele>1449.6</ele>
        <time>2016-06-01T12:21:18Z</time>
      </trkpt>
      <trkpt lat="44.8455" lon="5.38005">
        <ele>1449.11</ele>
        <time>2016-06-01T12:21:21Z</time>
      </trkpt>
      <trkpt lat="44.84554" lon="5.38007">
        <ele>1448.79</ele>
        <time>2016-06-01T12:21:23Z</time>
      </trkpt>
      <trkpt lat="44.84557" lon="5.38008">
        <ele>1448.63</ele>
        <time>2016-06-01T12:21:24Z</time>
      </trkpt>
      <trkpt lat="44.84559" lon="5.3801">
        <ele>1448.48</ele>
        <time>2016-06-01T12:21:25Z</time>
      </trkpt>
      <trkpt lat="44.84561" lon="5.38012">
        <ele>1448.34</ele>
        <time>2016-06-01T12:21:26Z</time>
      </trkpt>
      <trkpt lat="44.84562" lon="5.38015">
        <ele>1448.21</ele>
        <time>2016-06-01T12:21:27Z</time>
      </trkpt>
      <trkpt lat="44.84563" lon="5.38016">
        <ele>1448.07</ele>
        <time>2016-06-01T12:21:28Z</time>
      </trkpt>
      <trkpt lat="44.84567" lon="5.3802">
        <ele>1447.21</ele>
        <time>2016-06-01T12:21:45Z</time>
      </trkpt>
      <trkpt lat="44.84567" lon="5.38024">
        <ele>1447.29</ele>
        <time>2016-06-01T12:21:49Z</time>
      </trkpt>
      <trkpt lat="44.84568" lon="5.38026">
        <ele>1447.32</ele>
        <time>2016-06-01T12:21:50Z</time>
      </trkpt>
      <trkpt lat="44.84568" lon="5.38029">
        <ele>1447.33</ele>
        <time>2016-06-01T12:21:51Z</time>
      </trkpt>
      <trkpt lat="44.84568" lon="5.38032">
        <ele>1447.34</ele>
        <time>2016-06-01T12:21:52Z</time>
      </trkpt>
      <trkpt lat="44.84568" lon="5.38036">
        <ele>1447.35</ele>
        <time>2016-06-01T12:21:53Z</time>
      </trkpt>
      <trkpt lat="44.84562" lon="5.38061">
        <ele>1446.12</ele>
        <time>2016-06-01T12:21:59Z</time>
      </trkpt>
      <trkpt lat="44.84559" lon="5.38065">
        <ele>1445.77</ele>
        <time>2016-06-01T12:22:00Z</time>
      </trkpt>
      <trkpt lat="44.84556" lon="5.38069">
        <ele>1445.38</ele>
        <time>2016-06-01T12:22:01Z</time>
      </trkpt>
      <trkpt lat="44.84552" lon="5.38071">
        <ele>1444.98</ele>
        <time>2016-06-01T12:22:02Z</time>
      </trkpt>
      <trkpt lat="44.84548" lon="5.38073">
        <ele>1444.62</ele>
        <time>2016-06-01T12:22:03Z</time>
      </trkpt>
      <trkpt lat="44.84545" lon="5.38074">
        <ele>1444.3</ele>
        <time>2016-06-01T12:22:04Z</time>
      </trkpt>
      <trkpt lat="44.84541" lon="5.38073">
        <ele>1444.03</ele>
        <time>2016-06-01T12:22:05Z</time>
      </trkpt>
      <trkpt lat="44.84538" lon="5.38072">
        <ele>1443.81</ele>
        <time>2016-06-01T12:22:06Z</time>
      </trkpt>
      <trkpt lat="44.84534" lon="5.38071">
        <ele>1443.63</ele>
        <time>2016-06-01T12:22:07Z</time>
      </trkpt>
      <trkpt lat="44.84529" lon="5.38071">
        <ele>1443.43</ele>
        <time>2016-06-01T12:22:10Z</time>
      </trkpt>
      <trkpt lat="44.84526" lon="5.38072">
        <ele>1443.49</ele>
        <time>2016-06-01T12:22:11Z</time>
      </trkpt>
      <trkpt lat="44.84524" lon="5.38073">
        <ele>1443.55</ele>
        <time>2016-06-01T12:22:12Z</time>
      </trkpt>
      <trkpt lat="44.84521" lon="5.38073">
        <ele>1443.6</ele>
        <time>2016-06-01T12:22:13Z</time>
      </trkpt>
      <trkpt lat="44.84518" lon="5.38074">
        <ele>1443.66</ele>
        <time>2016-06-01T12:22:14Z</time>
      </trkpt>
      <trkpt lat="44.84516" lon="5.38074">
        <ele>1443.7</ele>
        <time>2016-06-01T12:22:15Z</time>
      </trkpt>
      <trkpt lat="44.84485" lon="5.38093">
        <ele>1443.34</ele>
        <time>2016-06-01T12:22:27Z</time>
      </trkpt>
      <trkpt lat="44.84466" lon="5.38114">
        <ele>1442.49</ele>
        <time>2016-06-01T12:22:35Z</time>
      </trkpt>
      <trkpt lat="44.84449" lon="5.38131">
        <ele>1441.58</ele>
        <time>2016-06-01T12:22:44Z</time>
      </trkpt>
      <trkpt lat="44.84443" lon="5.3814">
        <ele>1440.79</ele>
        <time>2016-06-01T12:23:07Z</time>
      </trkpt>
      <trkpt lat="44.84442" lon="5.38142">
        <ele>1440.81</ele>
        <time>2016-06-01T12:23:08Z</time>
      </trkpt>
      <trkpt lat="44.8444" lon="5.38146">
        <ele>1440.82</ele>
        <time>2016-06-01T12:23:09Z</time>
      </trkpt>
      <trkpt lat="44.84438" lon="5.3815">
        <ele>1440.82</ele>
        <time>2016-06-01T12:23:10Z</time>
      </trkpt>
      <trkpt lat="44.84436" lon="5.38154">
        <ele>1440.79</ele>
        <time>2016-06-01T12:23:11Z</time>
      </trkpt>
      <trkpt lat="44.84426" lon="5.38175">
        <ele>1440.28</ele>
        <time>2016-06-01T12:23:15Z</time>
      </trkpt>
      <trkpt lat="44.84423" lon="5.38179">
        <ele>1440.04</ele>
        <time>2016-06-01T12:23:16Z</time>
      </trkpt>
      <trkpt lat="44.84416" lon="5.38186">
        <ele>1439.45</ele>
        <time>2016-06-01T12:23:18Z</time>
      </trkpt>
      <trkpt lat="44.84413" lon="5.38191">
        <ele>1439.18</ele>
        <time>2016-06-01T12:23:19Z</time>
      </trkpt>
      <trkpt lat="44.8441" lon="5.38195">
        <ele>1438.94</ele>
        <time>2016-06-01T12:23:20Z</time>
      </trkpt>
      <trkpt lat="44.844" lon="5.38238">
        <ele>1438.88</ele>
        <time>2016-06-01T12:23:31Z</time>
      </trkpt>
      <trkpt lat="44.84418" lon="5.38267">
        <ele>1440.56</ele>
        <time>2016-06-01T12:23:45Z</time>
      </trkpt>
      <trkpt lat="44.84426" lon="5.38274">
        <ele>1440.35</ele>
        <time>2016-06-01T12:23:58Z</time>
      </trkpt>
      <trkpt lat="44.84425" lon="5.38274">
        <ele>1439.94</ele>
        <time>2016-06-01T12:24:14Z</time>
      </trkpt>
      <trkpt lat="44.84425" lon="5.38275">
        <ele>1439.92</ele>
        <time>2016-06-01T12:24:35Z</time>
      </trkpt>
      <trkpt lat="44.84424" lon="5.38274">
        <ele>1439.73</ele>
        <time>2016-06-01T12:24:56Z</time>
      </trkpt>
      <trkpt lat="44.84426" lon="5.38285">
        <ele>1440.22</ele>
        <time>2016-06-01T12:25:11Z</time>
      </trkpt>
      <trkpt lat="44.84425" lon="5.38284">
        <ele>1440.66</ele>
        <time>2016-06-01T12:25:26Z</time>
      </trkpt>
      <trkpt lat="44.84431" lon="5.38289">
        <ele>1440.73</ele>
        <time>2016-06-01T12:25:40Z</time>
      </trkpt>
      <trkpt lat="44.8443" lon="5.38283">
        <ele>1440.2</ele>
        <time>2016-06-01T12:25:58Z</time>
      </trkpt>
      <trkpt lat="44.84428" lon="5.38275">
        <ele>1439.81</ele>
        <time>2016-06-01T12:26:12Z</time>
      </trkpt>
      <trkpt lat="44.84427" lon="5.38275">
        <ele>1439.83</ele>
        <time>2016-06-01T12:26:29Z</time>
      </trkpt>
      <trkpt lat="44.84424" lon="5.38275">
        <ele>1439.93</ele>
        <time>2016-06-01T12:26:44Z</time>
      </trkpt>
      <trkpt lat="44.84425" lon="5.38273">
        <ele>1440.18</ele>
        <time>2016-06-01T12:27:07Z</time>
      </trkpt>
      <trkpt lat="44.84425" lon="5.38274">
        <ele>1440.11</ele>
        <time>2016-06-01T12:27:26Z</time>
      </trkpt>
      <trkpt lat="44.84425" lon="5.38275">
        <ele>1440.29</ele>
        <time>2016-06-01T12:28:05Z</time>
      </trkpt>
      <trkpt lat="44.84427" lon="5.38276">
        <ele>1440.06</ele>
        <time>2016-06-01T12:28:34Z</time>
      </trkpt>
      <trkpt lat="44.84429" lon="5.38278">
        <ele>1440.08</ele>
        <time>2016-06-01T12:28:36Z</time>
      </trkpt>
      <trkpt lat="44.8443" lon="5.38279">
        <ele>1440.08</ele>
        <time>2016-06-01T12:28:37Z</time>
      </trkpt>
      <trkpt lat="44.84431" lon="5.3828">
        <ele>1440.08</ele>
        <time>2016-06-01T12:28:38Z</time>
      </trkpt>
      <trkpt lat="44.84459" lon="5.3831">
        <ele>1438.64</ele>
        <time>2016-06-01T12:28:56Z</time>
      </trkpt>
      <trkpt lat="44.84475" lon="5.3834">
        <ele>1438.06</ele>
        <time>2016-06-01T12:29:11Z</time>
      </trkpt>
      <trkpt lat="44.84492" lon="5.38385">
        <ele>1438.47</ele>
        <time>2016-06-01T12:29:30Z</time>
      </trkpt>
      <trkpt lat="44.84493" lon="5.38417">
        <ele>1439.42</ele>
        <time>2016-06-01T12:29:46Z</time>
      </trkpt>
      <trkpt lat="44.84493" lon="5.38418">
        <ele>1439.71</ele>
        <time>2016-06-01T12:30:07Z</time>
      </trkpt>
      <trkpt lat="44.84495" lon="5.3842">
        <ele>1439.7</ele>
        <time>2016-06-01T12:30:09Z</time>
      </trkpt>
      <trkpt lat="44.84496" lon="5.38422">
        <ele>1439.66</ele>
        <time>2016-06-01T12:30:10Z</time>
      </trkpt>
      <trkpt lat="44.84497" lon="5.38424">
        <ele>1439.58</ele>
        <time>2016-06-01T12:30:11Z</time>
      </trkpt>
      <trkpt lat="44.84496" lon="5.38431">
        <ele>1438.28</ele>
        <time>2016-06-01T12:30:21Z</time>
      </trkpt>
      <trkpt lat="44.84496" lon="5.38439">
        <ele>1437.93</ele>
        <time>2016-06-01T12:30:35Z</time>
      </trkpt>
      <trkpt lat="44.84495" lon="5.38441">
        <ele>1437.93</ele>
        <time>2016-06-01T12:30:36Z</time>
      </trkpt>
      <trkpt lat="44.84495" lon="5.38442">
        <ele>1437.91</ele>
        <time>2016-06-01T12:30:37Z</time>
      </trkpt>
      <trkpt lat="44.84494" lon="5.38443">
        <ele>1437.85</ele>
        <time>2016-06-01T12:30:54Z</time>
      </trkpt>
      <trkpt lat="44.8449" lon="5.38444">
        <ele>1437.8</ele>
        <time>2016-06-01T12:31:09Z</time>
      </trkpt>
      <trkpt lat="44.84489" lon="5.38446">
        <ele>1438.01</ele>
        <time>2016-06-01T12:31:26Z</time>
      </trkpt>
      <trkpt lat="44.84488" lon="5.38449">
        <ele>1437.69</ele>
        <time>2016-06-01T12:31:50Z</time>
      </trkpt>
      <trkpt lat="44.84488" lon="5.38448">
        <ele>1437.52</ele>
        <time>2016-06-01T12:32:14Z</time>
      </trkpt>
      <trkpt lat="44.84486" lon="5.38454">
        <ele>1437.18</ele>
        <time>2016-06-01T12:32:31Z</time>
      </trkpt>
      <trkpt lat="44.84486" lon="5.38456">
        <ele>1437.31</ele>
        <time>2016-06-01T12:32:56Z</time>
      </trkpt>
      <trkpt lat="44.84485" lon="5.38457">
        <ele>1437.3</ele>
        <time>2016-06-01T12:32:57Z</time>
      </trkpt>
      <trkpt lat="44.84484" lon="5.38457">
        <ele>1437.54</ele>
        <time>2016-06-01T12:33:13Z</time>
      </trkpt>
      <trkpt lat="44.84485" lon="5.38457">
        <ele>1437.36</ele>
        <time>2016-06-01T12:33:29Z</time>
      </trkpt>
      <trkpt lat="44.84486" lon="5.38457">
        <ele>1437.31</ele>
        <time>2016-06-01T12:33:56Z</time>
      </trkpt>
      <trkpt lat="44.84487" lon="5.38457">
        <ele>1437.11</ele>
        <time>2016-06-01T12:34:23Z</time>
      </trkpt>
      <trkpt lat="44.84486" lon="5.38457">
        <ele>1437.21</ele>
        <time>2016-06-01T12:34:44Z</time>
      </trkpt>
      <trkpt lat="44.84485" lon="5.3846">
        <ele>1437.21</ele>
        <time>2016-06-01T12:34:50Z</time>
      </trkpt>
      <trkpt lat="44.84483" lon="5.38465">
        <ele>1437.21</ele>
        <time>2016-06-01T12:34:52Z</time>
      </trkpt>
      <trkpt lat="44.84482" lon="5.38468">
        <ele>1437.2</ele>
        <time>2016-06-01T12:34:53Z</time>
      </trkpt>
      <trkpt lat="44.84459" lon="5.38509">
        <ele>1437.01</ele>
        <time>2016-06-01T12:35:12Z</time>
      </trkpt>
      <trkpt lat="44.84433" lon="5.38557">
        <ele>1435.88</ele>
        <time>2016-06-01T12:35:27Z</time>
      </trkpt>
      <trkpt lat="44.84411" lon="5.38579">
        <ele>1435.96</ele>
        <time>2016-06-01T12:35:41Z</time>
      </trkpt>
      <trkpt lat="44.84388" lon="5.38605">
        <ele>1438.58</ele>
        <time>2016-06-01T12:35:57Z</time>
      </trkpt>
      <trkpt lat="44.84366" lon="5.3863">
        <ele>1441.64</ele>
        <time>2016-06-01T12:36:13Z</time>
      </trkpt>
      <trkpt lat="44.84339" lon="5.38648">
        <ele>1444.68</ele>
        <time>2016-06-01T12:36:31Z</time>
      </trkpt>
      <trkpt lat="44.84314" lon="5.38654">
        <ele>1447.76</ele>
        <time>2016-06-01T12:36:50Z</time>
      </trkpt>
      <trkpt lat="44.84288" lon="5.38671">
        <ele>1450.89</ele>
        <time>2016-06-01T12:37:10Z</time>
      </trkpt>
      <trkpt lat="44.84275" lon="5.38685">
        <ele>1454.02</ele>
        <time>2016-06-01T12:37:21Z</time>
      </trkpt>
      <trkpt lat="44.84265" lon="5.3871">
        <ele>1457.07</ele>
        <time>2016-06-01T12:37:35Z</time>
      </trkpt>
      <trkpt lat="44.84245" lon="5.38719">
        <ele>1458.96</ele>
        <time>2016-06-01T12:37:52Z</time>
      </trkpt>
      <trkpt lat="44.84237" lon="5.38721">
        <ele>1459.33</ele>
        <time>2016-06-01T12:37:58Z</time>
      </trkpt>
      <trkpt lat="44.84233" lon="5.38719">
        <ele>1459.82</ele>
        <time>2016-06-01T12:38:14Z</time>
      </trkpt>
      <trkpt lat="44.84233" lon="5.38717">
        <ele>1459.82</ele>
        <time>2016-06-01T12:38:30Z</time>
      </trkpt>
      <trkpt lat="44.84233" lon="5.3872">
        <ele>1459.86</ele>
        <time>2016-06-01T12:38:46Z</time>
      </trkpt>
      <trkpt lat="44.84232" lon="5.38718">
        <ele>1459.01</ele>
        <time>2016-06-01T12:39:46Z</time>
      </trkpt>
      <trkpt lat="44.84233" lon="5.38719">
        <ele>1459.04</ele>
        <time>2016-06-01T12:40:42Z</time>
      </trkpt>
      <trkpt lat="44.84234" lon="5.38719">
        <ele>1459.6</ele>
        <time>2016-06-01T12:41:21Z</time>
      </trkpt>
      <trkpt lat="44.84234" lon="5.38717">
        <ele>1459.86</ele>
        <time>2016-06-01T12:42:13Z</time>
      </trkpt>
      <trkpt lat="44.84233" lon="5.3872">
        <ele>1459.93</ele>
        <time>2016-06-01T12:42:39Z</time>
      </trkpt>
      <trkpt lat="44.84232" lon="5.38724">
        <ele>1460.03</ele>
        <time>2016-06-01T12:42:46Z</time>
      </trkpt>
      <trkpt lat="44.84213" lon="5.38743">
        <ele>1458.65</ele>
        <time>2016-06-01T12:42:59Z</time>
      </trkpt>
      <trkpt lat="44.84208" lon="5.38741">
        <ele>1456.14</ele>
        <time>2016-06-01T12:43:25Z</time>
      </trkpt>
      <trkpt lat="44.84206" lon="5.38741">
        <ele>1456.1</ele>
        <time>2016-06-01T12:43:26Z</time>
      </trkpt>
      <trkpt lat="44.84204" lon="5.38741">
        <ele>1456.05</ele>
        <time>2016-06-01T12:43:27Z</time>
      </trkpt>
      <trkpt lat="44.84199" lon="5.38744">
        <ele>1454.87</ele>
        <time>2016-06-01T12:43:38Z</time>
      </trkpt>
      <trkpt lat="44.842" lon="5.38745">
        <ele>1454.77</ele>
        <time>2016-06-01T12:43:39Z</time>
      </trkpt>
      <trkpt lat="44.84204" lon="5.38748">
        <ele>1454.6</ele>
        <time>2016-06-01T12:43:41Z</time>
      </trkpt>
      <trkpt lat="44.84206" lon="5.3875">
        <ele>1454.53</ele>
        <time>2016-06-01T12:43:42Z</time>
      </trkpt>
      <trkpt lat="44.84211" lon="5.38759">
        <ele>1453.69</ele>
        <time>2016-06-01T12:43:47Z</time>
      </trkpt>
      <trkpt lat="44.84206" lon="5.38762">
        <ele>1452.97</ele>
        <time>2016-06-01T12:43:50Z</time>
      </trkpt>
      <trkpt lat="44.84202" lon="5.38763">
        <ele>1452.77</ele>
        <time>2016-06-01T12:43:51Z</time>
      </trkpt>
      <trkpt lat="44.84167" lon="5.38767">
        <ele>1449.26</ele>
        <time>2016-06-01T12:44:00Z</time>
      </trkpt>
      <trkpt lat="44.84142" lon="5.38767">
        <ele>1445.92</ele>
        <time>2016-06-01T12:44:06Z</time>
      </trkpt>
      <trkpt lat="44.84126" lon="5.38767">
        <ele>1442.69</ele>
        <time>2016-06-01T12:44:10Z</time>
      </trkpt>
      <trkpt lat="44.84108" lon="5.3877">
        <ele>1439.6</ele>
        <time>2016-06-01T12:44:15Z</time>
      </trkpt>
      <trkpt lat="44.84092" lon="5.3877">
        <ele>1436.45</ele>
        <time>2016-06-01T12:44:20Z</time>
      </trkpt>
      <trkpt lat="44.84065" lon="5.38768">
        <ele>1432.94</ele>
        <time>2016-06-01T12:44:26Z</time>
      </trkpt>
      <trkpt lat="44.84045" lon="5.38762">
        <ele>1429.87</ele>
        <time>2016-06-01T12:44:30Z</time>
      </trkpt>
      <trkpt lat="44.84035" lon="5.38759">
        <ele>1427.72</ele>
        <time>2016-06-01T12:44:32Z</time>
      </trkpt>
      <trkpt lat="44.84008" lon="5.38754">
        <ele>1424.45</ele>
        <time>2016-06-01T12:44:37Z</time>
      </trkpt>
      <trkpt lat="44.8397" lon="5.38751">
        <ele>1420.9</ele>
        <time>2016-06-01T12:44:43Z</time>
      </trkpt>
      <trkpt lat="44.83955" lon="5.38749">
        <ele>1417.78</ele>
        <time>2016-06-01T12:44:48Z</time>
      </trkpt>
      <trkpt lat="44.83954" lon="5.38751">
        <ele>1414.82</ele>
        <time>2016-06-01T12:44:58Z</time>
      </trkpt>
      <trkpt lat="44.83953" lon="5.38751">
        <ele>1414.78</ele>
        <time>2016-06-01T12:44:59Z</time>
      </trkpt>
      <trkpt lat="44.83951" lon="5.38751">
        <ele>1414.74</ele>
        <time>2016-06-01T12:45:00Z</time>
      </trkpt>
      <trkpt lat="44.83949" lon="5.3875">
        <ele>1414.71</ele>
        <time>2016-06-01T12:45:01Z</time>
      </trkpt>
      <trkpt lat="44.83947" lon="5.3875">
        <ele>1414.67</ele>
        <time>2016-06-01T12:45:02Z</time>
      </trkpt>
      <trkpt lat="44.83887" lon="5.38746">
        <ele>1411.95</ele>
        <time>2016-06-01T12:45:17Z</time>
      </trkpt>
      <trkpt lat="44.83882" lon="5.38747">
        <ele>1411.69</ele>
        <time>2016-06-01T12:45:18Z</time>
      </trkpt>
      <trkpt lat="44.83876" lon="5.38746">
        <ele>1411.42</ele>
        <time>2016-06-01T12:45:19Z</time>
      </trkpt>
      <trkpt lat="44.8383" lon="5.38742">
        <ele>1408.15</ele>
        <time>2016-06-01T12:45:27Z</time>
      </trkpt>
      <trkpt lat="44.83785" lon="5.38738">
        <ele>1404.93</ele>
        <time>2016-06-01T12:45:34Z</time>
      </trkpt>
      <trkpt lat="44.8373" lon="5.38739">
        <ele>1401.77</ele>
        <time>2016-06-01T12:45:42Z</time>
      </trkpt>
      <trkpt lat="44.83671" lon="5.38744">
        <ele>1398.66</ele>
        <time>2016-06-01T12:45:51Z</time>
      </trkpt>
      <trkpt lat="44.83602" lon="5.3875">
        <ele>1395.91</ele>
        <time>2016-06-01T12:46:03Z</time>
      </trkpt>
      <trkpt lat="44.83598" lon="5.38751">
        <ele>1395.67</ele>
        <time>2016-06-01T12:46:04Z</time>
      </trkpt>
      <trkpt lat="44.83595" lon="5.3875">
        <ele>1395.42</ele>
        <time>2016-06-01T12:46:05Z</time>
      </trkpt>
      <trkpt lat="44.83588" lon="5.38748">
        <ele>1394.36</ele>
        <time>2016-06-01T12:46:08Z</time>
      </trkpt>
      <trkpt lat="44.83585" lon="5.38747">
        <ele>1394.36</ele>
        <time>2016-06-01T12:46:09Z</time>
      </trkpt>
      <trkpt lat="44.83546" lon="5.3875">
        <ele>1391.71</ele>
        <time>2016-06-01T12:46:20Z</time>
      </trkpt>
      <trkpt lat="44.8352" lon="5.38757">
        <ele>1388.52</ele>
        <time>2016-06-01T12:46:27Z</time>
      </trkpt>
      <trkpt lat="44.83503" lon="5.38757">
        <ele>1386.26</ele>
        <time>2016-06-01T12:46:32Z</time>
      </trkpt>
      <trkpt lat="44.83501" lon="5.38761">
        <ele>1386.26</ele>
        <time>2016-06-01T12:46:33Z</time>
      </trkpt>
      <trkpt lat="44.835" lon="5.38766">
        <ele>1385.79</ele>
        <time>2016-06-01T12:46:34Z</time>
      </trkpt>
      <trkpt lat="44.83499" lon="5.38773">
        <ele>1385.41</ele>
        <time>2016-06-01T12:46:36Z</time>
      </trkpt>
      <trkpt lat="44.83499" lon="5.38775">
        <ele>1385.23</ele>
        <time>2016-06-01T12:46:37Z</time>
      </trkpt>
      <trkpt lat="44.83505" lon="5.38793">
        <ele>1383.79</ele>
        <time>2016-06-01T12:46:50Z</time>
      </trkpt>
      <trkpt lat="44.83507" lon="5.38795">
        <ele>1383.7</ele>
        <time>2016-06-01T12:46:51Z</time>
      </trkpt>
      <trkpt lat="44.83508" lon="5.38796">
        <ele>1383.59</ele>
        <time>2016-06-01T12:46:52Z</time>
      </trkpt>
      <trkpt lat="44.83532" lon="5.38815">
        <ele>1381.43</ele>
        <time>2016-06-01T12:47:04Z</time>
      </trkpt>
      <trkpt lat="44.83569" lon="5.38839">
        <ele>1378.45</ele>
        <time>2016-06-01T12:47:15Z</time>
      </trkpt>
      <trkpt lat="44.83601" lon="5.38854">
        <ele>1375.33</ele>
        <time>2016-06-01T12:47:23Z</time>
      </trkpt>
      <trkpt lat="44.83628" lon="5.38866">
        <ele>1372.17</ele>
        <time>2016-06-01T12:47:31Z</time>
      </trkpt>
      <trkpt lat="44.83652" lon="5.38879">
        <ele>1368.92</ele>
        <time>2016-06-01T12:47:39Z</time>
      </trkpt>
      <trkpt lat="44.83661" lon="5.38892">
        <ele>1367.86</ele>
        <time>2016-06-01T12:47:42Z</time>
      </trkpt>
      <trkpt lat="44.83664" lon="5.38899">
        <ele>1367.54</ele>
        <time>2016-06-01T12:47:43Z</time>
      </trkpt>
      <trkpt lat="44.83666" lon="5.38908">
        <ele>1367.19</ele>
        <time>2016-06-01T12:47:44Z</time>
      </trkpt>
      <trkpt lat="44.83669" lon="5.38915">
        <ele>1366.83</ele>
        <time>2016-06-01T12:47:45Z</time>
      </trkpt>
      <trkpt lat="44.83671" lon="5.38923">
        <ele>1366.45</ele>
        <time>2016-06-01T12:47:46Z</time>
      </trkpt>
      <trkpt lat="44.83672" lon="5.38935">
        <ele>1365.08</ele>
        <time>2016-06-01T12:47:48Z</time>
      </trkpt>
      <trkpt lat="44.83672" lon="5.3894">
        <ele>1364.6</ele>
        <time>2016-06-01T12:47:49Z</time>
      </trkpt>
      <trkpt lat="44.8367" lon="5.38943">
        <ele>1364.1</ele>
        <time>2016-06-01T12:47:50Z</time>
      </trkpt>
      <trkpt lat="44.83668" lon="5.38946">
        <ele>1363.57</ele>
        <time>2016-06-01T12:47:51Z</time>
      </trkpt>
      <trkpt lat="44.83665" lon="5.38949">
        <ele>1363</ele>
        <time>2016-06-01T12:47:52Z</time>
      </trkpt>
      <trkpt lat="44.83661" lon="5.38951">
        <ele>1362.38</ele>
        <time>2016-06-01T12:47:53Z</time>
      </trkpt>
      <trkpt lat="44.83653" lon="5.38958">
        <ele>1360.12</ele>
        <time>2016-06-01T12:47:56Z</time>
      </trkpt>
      <trkpt lat="44.83651" lon="5.38963">
        <ele>1359.28</ele>
        <time>2016-06-01T12:47:57Z</time>
      </trkpt>
      <trkpt lat="44.83649" lon="5.38967">
        <ele>1358.46</ele>
        <time>2016-06-01T12:47:58Z</time>
      </trkpt>
      <trkpt lat="44.83649" lon="5.38971">
        <ele>1357.72</ele>
        <time>2016-06-01T12:47:59Z</time>
      </trkpt>
      <trkpt lat="44.83649" lon="5.38975">
        <ele>1357.09</ele>
        <time>2016-06-01T12:48:00Z</time>
      </trkpt>
      <trkpt lat="44.83649" lon="5.38978">
        <ele>1356.53</ele>
        <time>2016-06-01T12:48:01Z</time>
      </trkpt>
      <trkpt lat="44.83647" lon="5.38985">
        <ele>1354.95</ele>
        <time>2016-06-01T12:48:05Z</time>
      </trkpt>
      <trkpt lat="44.83644" lon="5.3899">
        <ele>1354.05</ele>
        <time>2016-06-01T12:48:12Z</time>
      </trkpt>
      <trkpt lat="44.83643" lon="5.38991">
        <ele>1354.01</ele>
        <time>2016-06-01T12:48:13Z</time>
      </trkpt>
      <trkpt lat="44.83642" lon="5.39004">
        <ele>1353.82</ele>
        <time>2016-06-01T12:48:25Z</time>
      </trkpt>
      <trkpt lat="44.83649" lon="5.39027">
        <ele>1352.67</ele>
        <time>2016-06-01T12:48:34Z</time>
      </trkpt>
      <trkpt lat="44.83651" lon="5.39031">
        <ele>1352.27</ele>
        <time>2016-06-01T12:48:36Z</time>
      </trkpt>
      <trkpt lat="44.83658" lon="5.39041">
        <ele>1350.11</ele>
        <time>2016-06-01T12:48:49Z</time>
      </trkpt>
      <trkpt lat="44.83658" lon="5.39043">
        <ele>1349.96</ele>
        <time>2016-06-01T12:49:18Z</time>
      </trkpt>
      <trkpt lat="44.83658" lon="5.39041">
        <ele>1349.96</ele>
        <time>2016-06-01T12:49:44Z</time>
      </trkpt>
      <trkpt lat="44.83661" lon="5.39043">
        <ele>1349.81</ele>
        <time>2016-06-01T12:49:58Z</time>
      </trkpt>
      <trkpt lat="44.83665" lon="5.39047">
        <ele>1349.5</ele>
        <time>2016-06-01T12:50:02Z</time>
      </trkpt>
      <trkpt lat="44.83675" lon="5.39069">
        <ele>1347.22</ele>
        <time>2016-06-01T12:50:14Z</time>
      </trkpt>
      <trkpt lat="44.83675" lon="5.39071">
        <ele>1346.52</ele>
        <time>2016-06-01T12:50:17Z</time>
      </trkpt>
      <trkpt lat="44.83677" lon="5.39074">
        <ele>1344.95</ele>
        <time>2016-06-01T12:50:31Z</time>
      </trkpt>
      <trkpt lat="44.83682" lon="5.39073">
        <ele>1345.3</ele>
        <time>2016-06-01T12:50:57Z</time>
      </trkpt>
      <trkpt lat="44.83683" lon="5.39073">
        <ele>1345.14</ele>
        <time>2016-06-01T12:51:14Z</time>
      </trkpt>
      <trkpt lat="44.83683" lon="5.39074">
        <ele>1345.41</ele>
        <time>2016-06-01T12:51:46Z</time>
      </trkpt>
      <trkpt lat="44.83684" lon="5.39072">
        <ele>1345.38</ele>
        <time>2016-06-01T12:52:21Z</time>
      </trkpt>
      <trkpt lat="44.83686" lon="5.39071">
        <ele>1345.25</ele>
        <time>2016-06-01T12:52:53Z</time>
      </trkpt>
      <trkpt lat="44.83678" lon="5.39069">
        <ele>1345.18</ele>
        <time>2016-06-01T12:53:21Z</time>
      </trkpt>
      <trkpt lat="44.83681" lon="5.39074">
        <ele>1345.14</ele>
        <time>2016-06-01T12:53:39Z</time>
      </trkpt>
      <trkpt lat="44.83681" lon="5.39076">
        <ele>1345.25</ele>
        <time>2016-06-01T12:54:02Z</time>
      </trkpt>
      <trkpt lat="44.83683" lon="5.39075">
        <ele>1345.02</ele>
        <time>2016-06-01T12:54:25Z</time>
      </trkpt>
      <trkpt lat="44.83695" lon="5.3908">
        <ele>1343.5</ele>
        <time>2016-06-01T12:54:37Z</time>
      </trkpt>
      <trkpt lat="44.83696" lon="5.39077">
        <ele>1342.54</ele>
        <time>2016-06-01T12:54:49Z</time>
      </trkpt>
      <trkpt lat="44.83699" lon="5.39078">
        <ele>1342.28</ele>
        <time>2016-06-01T12:54:57Z</time>
      </trkpt>
      <trkpt lat="44.83702" lon="5.3908">
        <ele>1342.27</ele>
        <time>2016-06-01T12:54:59Z</time>
      </trkpt>
      <trkpt lat="44.8373" lon="5.39089">
        <ele>1339.86</ele>
        <time>2016-06-01T12:55:11Z</time>
      </trkpt>
      <trkpt lat="44.83755" lon="5.39094">
        <ele>1336.78</ele>
        <time>2016-06-01T12:55:21Z</time>
      </trkpt>
      <trkpt lat="44.83774" lon="5.391">
        <ele>1333.45</ele>
        <time>2016-06-01T12:55:30Z</time>
      </trkpt>
      <trkpt lat="44.83799" lon="5.39108">
        <ele>1330.44</ele>
        <time>2016-06-01T12:55:40Z</time>
      </trkpt>
      <trkpt lat="44.838" lon="5.3911">
        <ele>1328.97</ele>
        <time>2016-06-01T12:55:54Z</time>
      </trkpt>
      <trkpt lat="44.83804" lon="5.39111">
        <ele>1329.06</ele>
        <time>2016-06-01T12:56:00Z</time>
      </trkpt>
      <trkpt lat="44.83806" lon="5.39112">
        <ele>1329.03</ele>
        <time>2016-06-01T12:56:01Z</time>
      </trkpt>
      <trkpt lat="44.83811" lon="5.39114">
        <ele>1328.94</ele>
        <time>2016-06-01T12:56:03Z</time>
      </trkpt>
      <trkpt lat="44.83814" lon="5.39116">
        <ele>1328.89</ele>
        <time>2016-06-01T12:56:04Z</time>
      </trkpt>
      <trkpt lat="44.8384" lon="5.39133">
        <ele>1327.34</ele>
        <time>2016-06-01T12:56:14Z</time>
      </trkpt>
      <trkpt lat="44.83839" lon="5.39132">
        <ele>1325.59</ele>
        <time>2016-06-01T12:56:26Z</time>
      </trkpt>
      <trkpt lat="44.83841" lon="5.3913">
        <ele>1325.38</ele>
        <time>2016-06-01T12:56:54Z</time>
      </trkpt>
      <trkpt lat="44.83843" lon="5.39133">
        <ele>1325.28</ele>
        <time>2016-06-01T12:57:01Z</time>
      </trkpt>
      <trkpt lat="44.83844" lon="5.39134">
        <ele>1325.26</ele>
        <time>2016-06-01T12:57:02Z</time>
      </trkpt>
      <trkpt lat="44.83845" lon="5.39136">
        <ele>1325.27</ele>
        <time>2016-06-01T12:57:03Z</time>
      </trkpt>
      <trkpt lat="44.83846" lon="5.39138">
        <ele>1325.24</ele>
        <time>2016-06-01T12:57:04Z</time>
      </trkpt>
      <trkpt lat="44.83848" lon="5.3914">
        <ele>1325.21</ele>
        <time>2016-06-01T12:57:05Z</time>
      </trkpt>
      <trkpt lat="44.8385" lon="5.39143">
        <ele>1325.16</ele>
        <time>2016-06-01T12:57:06Z</time>
      </trkpt>
      <trkpt lat="44.83874" lon="5.39174">
        <ele>1323.26</ele>
        <time>2016-06-01T12:57:14Z</time>
      </trkpt>
      <trkpt lat="44.83891" lon="5.39199">
        <ele>1321.56</ele>
        <time>2016-06-01T12:57:18Z</time>
      </trkpt>
      <trkpt lat="44.83916" lon="5.39244">
        <ele>1317.98</ele>
        <time>2016-06-01T12:57:24Z</time>
      </trkpt>
      <trkpt lat="44.83927" lon="5.39271">
        <ele>1316.15</ele>
        <time>2016-06-01T12:57:27Z</time>
      </trkpt>
      <trkpt lat="44.83931" lon="5.3928">
        <ele>1315.55</ele>
        <time>2016-06-01T12:57:28Z</time>
      </trkpt>
      <trkpt lat="44.83942" lon="5.39307">
        <ele>1313.82</ele>
        <time>2016-06-01T12:57:31Z</time>
      </trkpt>
      <trkpt lat="44.83951" lon="5.39322">
        <ele>1312.81</ele>
        <time>2016-06-01T12:57:33Z</time>
      </trkpt>
      <trkpt lat="44.8396" lon="5.39334">
        <ele>1311.97</ele>
        <time>2016-06-01T12:57:35Z</time>
      </trkpt>
      <trkpt lat="44.83969" lon="5.39342">
        <ele>1311.1</ele>
        <time>2016-06-01T12:57:37Z</time>
      </trkpt>
      <trkpt lat="44.83971" lon="5.39348">
        <ele>1310.13</ele>
        <time>2016-06-01T12:57:38Z</time>
      </trkpt>
      <trkpt lat="44.83972" lon="5.39354">
        <ele>1309.73</ele>
        <time>2016-06-01T12:57:39Z</time>
      </trkpt>
      <trkpt lat="44.83973" lon="5.39359">
        <ele>1309.39</ele>
        <time>2016-06-01T12:57:40Z</time>
      </trkpt>
      <trkpt lat="44.83972" lon="5.39365">
        <ele>1309.08</ele>
        <time>2016-06-01T12:57:41Z</time>
      </trkpt>
      <trkpt lat="44.8397" lon="5.39373">
        <ele>1308.76</ele>
        <time>2016-06-01T12:57:42Z</time>
      </trkpt>
      <trkpt lat="44.83968" lon="5.3938">
        <ele>1308.37</ele>
        <time>2016-06-01T12:57:43Z</time>
      </trkpt>
      <trkpt lat="44.83965" lon="5.39388">
        <ele>1307.92</ele>
        <time>2016-06-01T12:57:44Z</time>
      </trkpt>
      <trkpt lat="44.83961" lon="5.39396">
        <ele>1307.47</ele>
        <time>2016-06-01T12:57:45Z</time>
      </trkpt>
      <trkpt lat="44.83959" lon="5.39403">
        <ele>1307.03</ele>
        <time>2016-06-01T12:57:46Z</time>
      </trkpt>
      <trkpt lat="44.83955" lon="5.3941">
        <ele>1306.61</ele>
        <time>2016-06-01T12:57:47Z</time>
      </trkpt>
      <trkpt lat="44.83951" lon="5.39417">
        <ele>1306.17</ele>
        <time>2016-06-01T12:57:48Z</time>
      </trkpt>
      <trkpt lat="44.83948" lon="5.39425">
        <ele>1305.69</ele>
        <time>2016-06-01T12:57:49Z</time>
      </trkpt>
      <trkpt lat="44.83939" lon="5.39448">
        <ele>1304.21</ele>
        <time>2016-06-01T12:57:52Z</time>
      </trkpt>
      <trkpt lat="44.83937" lon="5.39455">
        <ele>1303.73</ele>
        <time>2016-06-01T12:57:53Z</time>
      </trkpt>
      <trkpt lat="44.83933" lon="5.39461">
        <ele>1303.25</ele>
        <time>2016-06-01T12:57:54Z</time>
      </trkpt>
      <trkpt lat="44.83929" lon="5.39466">
        <ele>1302.77</ele>
        <time>2016-06-01T12:57:55Z</time>
      </trkpt>
      <trkpt lat="44.83923" lon="5.39471">
        <ele>1302.29</ele>
        <time>2016-06-01T12:57:56Z</time>
      </trkpt>
      <trkpt lat="44.83916" lon="5.39474">
        <ele>1301.81</ele>
        <time>2016-06-01T12:57:57Z</time>
      </trkpt>
      <trkpt lat="44.8391" lon="5.39479">
        <ele>1301.36</ele>
        <time>2016-06-01T12:57:58Z</time>
      </trkpt>
      <trkpt lat="44.83904" lon="5.39484">
        <ele>1300.88</ele>
        <time>2016-06-01T12:57:59Z</time>
      </trkpt>
      <trkpt lat="44.83888" lon="5.395">
        <ele>1298.95</ele>
        <time>2016-06-01T12:58:02Z</time>
      </trkpt>
      <trkpt lat="44.83873" lon="5.3952">
        <ele>1297.3</ele>
        <time>2016-06-01T12:58:05Z</time>
      </trkpt>
      <trkpt lat="44.83854" lon="5.39563">
        <ele>1294.19</ele>
        <time>2016-06-01T12:58:11Z</time>
      </trkpt>
      <trkpt lat="44.83846" lon="5.39582">
        <ele>1292.8</ele>
        <time>2016-06-01T12:58:14Z</time>
      </trkpt>
      <trkpt lat="44.83832" lon="5.39614">
        <ele>1289.54</ele>
        <time>2016-06-01T12:58:23Z</time>
      </trkpt>
      <trkpt lat="44.8383" lon="5.39625">
        <ele>1288.4</ele>
        <time>2016-06-01T12:58:27Z</time>
      </trkpt>
      <trkpt lat="44.83829" lon="5.39628">
        <ele>1288</ele>
        <time>2016-06-01T12:58:28Z</time>
      </trkpt>
      <trkpt lat="44.83818" lon="5.39653">
        <ele>1287.43</ele>
        <time>2016-06-01T12:58:41Z</time>
      </trkpt>
      <trkpt lat="44.83816" lon="5.39655">
        <ele>1287.72</ele>
        <time>2016-06-01T12:58:55Z</time>
      </trkpt>
      <trkpt lat="44.83814" lon="5.39655">
        <ele>1287.79</ele>
        <time>2016-06-01T12:58:57Z</time>
      </trkpt>
      <trkpt lat="44.83814" lon="5.39656">
        <ele>1287.82</ele>
        <time>2016-06-01T12:58:58Z</time>
      </trkpt>
      <trkpt lat="44.83813" lon="5.39658">
        <ele>1287.86</ele>
        <time>2016-06-01T12:58:59Z</time>
      </trkpt>
      <trkpt lat="44.83808" lon="5.39706">
        <ele>1288.83</ele>
        <time>2016-06-01T12:59:10Z</time>
      </trkpt>
      <trkpt lat="44.83802" lon="5.39736">
        <ele>1290.16</ele>
        <time>2016-06-01T12:59:22Z</time>
      </trkpt>
      <trkpt lat="44.83804" lon="5.39737">
        <ele>1290.59</ele>
        <time>2016-06-01T12:59:40Z</time>
      </trkpt>
      <trkpt lat="44.83802" lon="5.39736">
        <ele>1289.52</ele>
        <time>2016-06-01T12:59:52Z</time>
      </trkpt>
      <trkpt lat="44.838" lon="5.39734">
        <ele>1289.26</ele>
        <time>2016-06-01T13:00:23Z</time>
      </trkpt>
      <trkpt lat="44.83797" lon="5.39733">
        <ele>1289.24</ele>
        <time>2016-06-01T13:01:02Z</time>
      </trkpt>
      <trkpt lat="44.83803" lon="5.3973">
        <ele>1289.25</ele>
        <time>2016-06-01T13:01:40Z</time>
      </trkpt>
      <trkpt lat="44.83803" lon="5.39732">
        <ele>1289.06</ele>
        <time>2016-06-01T13:02:27Z</time>
      </trkpt>
      <trkpt lat="44.83797" lon="5.39736">
        <ele>1289.07</ele>
        <time>2016-06-01T13:03:04Z</time>
      </trkpt>
      <trkpt lat="44.83796" lon="5.39734">
        <ele>1289.05</ele>
        <time>2016-06-01T13:03:32Z</time>
      </trkpt>
      <trkpt lat="44.83799" lon="5.39732">
        <ele>1289.14</ele>
        <time>2016-06-01T13:04:06Z</time>
      </trkpt>
      <trkpt lat="44.838" lon="5.39734">
        <ele>1289.19</ele>
        <time>2016-06-01T13:04:55Z</time>
      </trkpt>
      <trkpt lat="44.83799" lon="5.39733">
        <ele>1289.17</ele>
        <time>2016-06-01T13:05:30Z</time>
      </trkpt>
      <trkpt lat="44.83803" lon="5.39732">
        <ele>1290.57</ele>
        <time>2016-06-01T13:05:53Z</time>
      </trkpt>
      <trkpt lat="44.83803" lon="5.39732">
        <ele>1290.57</ele>
        <time>2016-06-01T13:06:13Z</time>
      </trkpt>
      <trkpt lat="44.83805" lon="5.39735">
        <ele>1290.57</ele>
        <time>2016-06-01T13:06:34Z</time>
      </trkpt>
      <trkpt lat="44.83815" lon="5.39725">
        <ele>1290.55</ele>
        <time>2016-06-01T13:06:45Z</time>
      </trkpt>
      <trkpt lat="44.83815" lon="5.39731">
        <ele>1290.31</ele>
        <time>2016-06-01T13:06:53Z</time>
      </trkpt>
      <trkpt lat="44.83821" lon="5.39771">
        <ele>1291.16</ele>
        <time>2016-06-01T13:07:07Z</time>
      </trkpt>
      <trkpt lat="44.8385" lon="5.39871">
        <ele>1293.28</ele>
        <time>2016-06-01T13:07:39Z</time>
      </trkpt>
      <trkpt lat="44.8385" lon="5.39871">
        <ele>1293.7</ele>
        <time>2016-06-01T13:07:49Z</time>
      </trkpt>
      <trkpt lat="44.8385" lon="5.39871">
        <ele>1296.72</ele>
        <time>2016-06-01T13:09:18Z</time>
      </trkpt>
      <trkpt lat="44.8403" lon="5.40545">
        <ele>1295.27</ele>
        <time>2016-06-01T13:09:31Z</time>
      </trkpt>
      <trkpt lat="44.84043" lon="5.4056">
        <ele>1294.96</ele>
        <time>2016-06-01T13:09:34Z</time>
      </trkpt>
      <trkpt lat="44.84052" lon="5.40561">
        <ele>1294.89</ele>
        <time>2016-06-01T13:09:35Z</time>
      </trkpt>
      <trkpt lat="44.8405" lon="5.40566">
        <ele>1294.82</ele>
        <time>2016-06-01T13:09:36Z</time>
      </trkpt>
      <trkpt lat="44.8405" lon="5.40571">
        <ele>1294.77</ele>
        <time>2016-06-01T13:09:37Z</time>
      </trkpt>
      <trkpt lat="44.84049" lon="5.40576">
        <ele>1294.68</ele>
        <time>2016-06-01T13:09:38Z</time>
      </trkpt>
      <trkpt lat="44.84052" lon="5.40606">
        <ele>1294.25</ele>
        <time>2016-06-01T13:09:45Z</time>
      </trkpt>
      <trkpt lat="44.84055" lon="5.40608">
        <ele>1294.25</ele>
        <time>2016-06-01T13:09:46Z</time>
      </trkpt>
      <trkpt lat="44.84057" lon="5.40609">
        <ele>1294.25</ele>
        <time>2016-06-01T13:09:47Z</time>
      </trkpt>
      <trkpt lat="44.84059" lon="5.40612">
        <ele>1294.25</ele>
        <time>2016-06-01T13:09:48Z</time>
      </trkpt>
      <trkpt lat="44.84059" lon="5.40616">
        <ele>1294.2</ele>
        <time>2016-06-01T13:09:49Z</time>
      </trkpt>
      <trkpt lat="44.84058" lon="5.4062">
        <ele>1294.14</ele>
        <time>2016-06-01T13:09:50Z</time>
      </trkpt>
      <trkpt lat="44.84056" lon="5.40622">
        <ele>1294.07</ele>
        <time>2016-06-01T13:09:51Z</time>
      </trkpt>
      <trkpt lat="44.84054" lon="5.40624">
        <ele>1293.89</ele>
        <time>2016-06-01T13:09:52Z</time>
      </trkpt>
      <trkpt lat="44.84053" lon="5.40625">
        <ele>1293.89</ele>
        <time>2016-06-01T13:09:53Z</time>
      </trkpt>
      <trkpt lat="44.84052" lon="5.40624">
        <ele>1293.8</ele>
        <time>2016-06-01T13:09:54Z</time>
      </trkpt>
      <trkpt lat="44.84048" lon="5.40615">
        <ele>1293.59</ele>
        <time>2016-06-01T13:10:02Z</time>
      </trkpt>
      <trkpt lat="44.84045" lon="5.40614">
        <ele>1293.61</ele>
        <time>2016-06-01T13:10:03Z</time>
      </trkpt>
      <trkpt lat="44.84043" lon="5.40613">
        <ele>1293.63</ele>
        <time>2016-06-01T13:10:04Z</time>
      </trkpt>
      <trkpt lat="44.8404" lon="5.40612">
        <ele>1293.66</ele>
        <time>2016-06-01T13:10:05Z</time>
      </trkpt>
      <trkpt lat="44.84037" lon="5.40612">
        <ele>1293.68</ele>
        <time>2016-06-01T13:10:06Z</time>
      </trkpt>
      <trkpt lat="44.84034" lon="5.40613">
        <ele>1293.71</ele>
        <time>2016-06-01T13:10:07Z</time>
      </trkpt>
      <trkpt lat="44.84031" lon="5.40615">
        <ele>1293.75</ele>
        <time>2016-06-01T13:10:08Z</time>
      </trkpt>
      <trkpt lat="44.84028" lon="5.40617">
        <ele>1293.79</ele>
        <time>2016-06-01T13:10:09Z</time>
      </trkpt>
      <trkpt lat="44.83996" lon="5.40609">
        <ele>1295.32</ele>
        <time>2016-06-01T13:10:20Z</time>
      </trkpt>
      <trkpt lat="44.83981" lon="5.40576">
        <ele>1296.53</ele>
        <time>2016-06-01T13:10:30Z</time>
      </trkpt>
      <trkpt lat="44.83979" lon="5.40576">
        <ele>1296.63</ele>
        <time>2016-06-01T13:10:31Z</time>
      </trkpt>
      <trkpt lat="44.83976" lon="5.40576">
        <ele>1296.73</ele>
        <time>2016-06-01T13:10:32Z</time>
      </trkpt>
      <trkpt lat="44.83949" lon="5.40586">
        <ele>1297.77</ele>
        <time>2016-06-01T13:10:43Z</time>
      </trkpt>
      <trkpt lat="44.83948" lon="5.40584">
        <ele>1297.96</ele>
        <time>2016-06-01T13:10:44Z</time>
      </trkpt>
      <trkpt lat="44.83949" lon="5.4058">
        <ele>1298.61</ele>
        <time>2016-06-01T13:10:54Z</time>
      </trkpt>
      <trkpt lat="44.83948" lon="5.40576">
        <ele>1298.62</ele>
        <time>2016-06-01T13:11:16Z</time>
      </trkpt>
      <trkpt lat="44.83948" lon="5.40575">
        <ele>1298.82</ele>
        <time>2016-06-01T13:11:36Z</time>
      </trkpt>
      <trkpt lat="44.83947" lon="5.40577">
        <ele>1298.61</ele>
        <time>2016-06-01T13:11:58Z</time>
      </trkpt>
      <trkpt lat="44.83946" lon="5.40573">
        <ele>1298.31</ele>
        <time>2016-06-01T13:12:23Z</time>
      </trkpt>
      <trkpt lat="44.83945" lon="5.40577">
        <ele>1298.02</ele>
        <time>2016-06-01T13:12:58Z</time>
      </trkpt>
      <trkpt lat="44.83941" lon="5.40578">
        <ele>1297.94</ele>
        <time>2016-06-01T13:13:30Z</time>
      </trkpt>
      <trkpt lat="44.83945" lon="5.40578">
        <ele>1297.97</ele>
        <time>2016-06-01T13:13:49Z</time>
      </trkpt>
      <trkpt lat="44.83943" lon="5.40574">
        <ele>1297.89</ele>
        <time>2016-06-01T13:14:19Z</time>
      </trkpt>
      <trkpt lat="44.83943" lon="5.40573">
        <ele>1297.96</ele>
        <time>2016-06-01T13:14:22Z</time>
      </trkpt>
      <trkpt lat="44.83946" lon="5.40578">
        <ele>1298.08</ele>
        <time>2016-06-01T13:14:46Z</time>
      </trkpt>
      <trkpt lat="44.83945" lon="5.40576">
        <ele>1298.08</ele>
        <time>2016-06-01T13:15:16Z</time>
      </trkpt>
      <trkpt lat="44.83945" lon="5.40574">
        <ele>1298.04</ele>
        <time>2016-06-01T13:15:46Z</time>
      </trkpt>
      <trkpt lat="44.83947" lon="5.40571">
        <ele>1298.29</ele>
        <time>2016-06-01T13:16:15Z</time>
      </trkpt>
      <trkpt lat="44.83945" lon="5.40572">
        <ele>1298.02</ele>
        <time>2016-06-01T13:16:44Z</time>
      </trkpt>
      <trkpt lat="44.8394" lon="5.40572">
        <ele>1298.23</ele>
        <time>2016-06-01T13:17:19Z</time>
      </trkpt>
      <trkpt lat="44.83945" lon="5.4057">
        <ele>1298.49</ele>
        <time>2016-06-01T13:17:48Z</time>
      </trkpt>
      <trkpt lat="44.83943" lon="5.40572">
        <ele>1298.46</ele>
        <time>2016-06-01T13:18:20Z</time>
      </trkpt>
      <trkpt lat="44.83941" lon="5.40572">
        <ele>1298.55</ele>
        <time>2016-06-01T13:18:51Z</time>
      </trkpt>
      <trkpt lat="44.83945" lon="5.40572">
        <ele>1298.76</ele>
        <time>2016-06-01T13:19:24Z</time>
      </trkpt>
      <trkpt lat="44.83945" lon="5.40573">
        <ele>1298.45</ele>
        <time>2016-06-01T13:19:52Z</time>
      </trkpt>
      <trkpt lat="44.8395" lon="5.40569">
        <ele>1298.32</ele>
        <time>2016-06-01T13:20:04Z</time>
      </trkpt>
      <trkpt lat="44.8397" lon="5.40501">
        <ele>1226.14</ele>
        <time>2016-06-01T13:44:44Z</time>
      </trkpt>
      <trkpt lat="44.83969" lon="5.4051">
        <ele>1226.14</ele>
        <time>2016-06-01T13:44:46Z</time>
      </trkpt>
      <trkpt lat="44.83976" lon="5.40556">
        <ele>1226.24</ele>
        <time>2016-06-01T13:50:14Z</time>
      </trkpt>
      <trkpt lat="44.83958" lon="5.40567">
        <ele>1226.27</ele>
        <time>2016-06-01T13:51:36Z</time>
      </trkpt>
      <trkpt lat="44.83956" lon="5.4056">
        <ele>1226.32</ele>
        <time>2016-06-01T13:52:01Z</time>
      </trkpt>
      <trkpt lat="44.83946" lon="5.40547">
        <ele>1226.18</ele>
        <time>2016-06-01T13:53:01Z</time>
      </trkpt>
      <trkpt lat="44.83946" lon="5.40539">
        <ele>1226.48</ele>
        <time>2016-06-01T13:53:47Z</time>
      </trkpt>
      <trkpt lat="44.84067" lon="5.40572">
        <ele>1226.61</ele>
        <time>2016-06-01T13:54:04Z</time>
      </trkpt>
      <trkpt lat="44.84052" lon="5.40575">
        <ele>1226.06</ele>
        <time>2016-06-01T13:56:15Z</time>
      </trkpt>
      <trkpt lat="44.84046" lon="5.40576">
        <ele>1226.33</ele>
        <time>2016-06-01T13:56:54Z</time>
      </trkpt>
      <trkpt lat="44.84036" lon="5.40555">
        <ele>1226.12</ele>
        <time>2016-06-01T13:57:05Z</time>
      </trkpt>
      <trkpt lat="44.83974" lon="5.40534">
        <ele>1225.79</ele>
        <time>2016-06-01T13:58:59Z</time>
      </trkpt>
      <trkpt lat="44.83967" lon="5.40536">
        <ele>1225.95</ele>
        <time>2016-06-01T13:59:06Z</time>
      </trkpt>
      <trkpt lat="44.83966" lon="5.40534">
        <ele>1226.11</ele>
        <time>2016-06-01T14:00:39Z</time>
      </trkpt>
      <trkpt lat="44.83941" lon="5.40569">
        <ele>1225.88</ele>
        <time>2016-06-01T14:01:21Z</time>
      </trkpt>
      <trkpt lat="44.83944" lon="5.40562">
        <ele>1225.93</ele>
        <time>2016-06-01T14:03:58Z</time>
      </trkpt>
      <trkpt lat="44.83973" lon="5.40545">
        <ele>1225.75</ele>
        <time>2016-06-01T14:08:24Z</time>
      </trkpt>
      <trkpt lat="44.83973" lon="5.40551">
        <ele>1225.81</ele>
        <time>2016-06-01T14:08:28Z</time>
      </trkpt>
      <trkpt lat="44.83949" lon="5.40555">
        <ele>1225.7</ele>
        <time>2016-06-01T14:10:54Z</time>
      </trkpt>
      <trkpt lat="44.83945" lon="5.40556">
        <ele>1225.73</ele>
        <time>2016-06-01T14:11:03Z</time>
      </trkpt>
      <trkpt lat="44.83971" lon="5.40513">
        <ele>1225.88</ele>
        <time>2016-06-01T14:13:44Z</time>
      </trkpt>
      <trkpt lat="44.83968" lon="5.40496">
        <ele>1225.97</ele>
        <time>2016-06-01T14:14:01Z</time>
      </trkpt>
      <trkpt lat="44.8399" lon="5.40516">
        <ele>1225.87</ele>
        <time>2016-06-01T14:15:25Z</time>
      </trkpt>
      <trkpt lat="44.83998" lon="5.40488">
        <ele>1226.21</ele>
        <time>2016-06-01T14:16:39Z</time>
      </trkpt>
      <trkpt lat="44.8399" lon="5.40501">
        <ele>1226.03</ele>
        <time>2016-06-01T14:17:23Z</time>
      </trkpt>
      <trkpt lat="44.83935" lon="5.40527">
        <ele>1225.81</ele>
        <time>2016-06-01T14:19:33Z</time>
      </trkpt>
      <trkpt lat="44.83933" lon="5.40545">
        <ele>1225.92</ele>
        <time>2016-06-01T14:20:13Z</time>
      </trkpt>
      <trkpt lat="44.83989" lon="5.40515">
        <ele>1225.51</ele>
        <time>2016-06-01T14:25:39Z</time>
      </trkpt>
      <trkpt lat="44.84017" lon="5.40537">
        <ele>1225.53</ele>
        <time>2016-06-01T14:27:14Z</time>
      </trkpt>
      <trkpt lat="44.84" lon="5.40533">
        <ele>1225.45</ele>
        <time>2016-06-01T14:27:23Z</time>
      </trkpt>
      <trkpt lat="44.83958" lon="5.40544">
        <ele>1225.6</ele>
        <time>2016-06-01T14:28:36Z</time>
      </trkpt>
      <trkpt lat="44.83966" lon="5.4055">
        <ele>1225.36</ele>
        <time>2016-06-01T14:28:46Z</time>
      </trkpt>
      <trkpt lat="44.83957" lon="5.40565">
        <ele>1225.14</ele>
        <time>2016-06-01T14:31:49Z</time>
      </trkpt>
      <trkpt lat="44.83959" lon="5.4057">
        <ele>1225.46</ele>
        <time>2016-06-01T14:32:09Z</time>
      </trkpt>
      <trkpt lat="44.83956" lon="5.40572">
        <ele>1225.51</ele>
        <time>2016-06-01T14:32:12Z</time>
      </trkpt>
      <trkpt lat="44.83952" lon="5.40575">
        <ele>1225.21</ele>
        <time>2016-06-01T14:33:06Z</time>
      </trkpt>
      <trkpt lat="44.8394" lon="5.40505">
        <ele>1225.28</ele>
        <time>2016-06-01T14:33:17Z</time>
      </trkpt>
      <trkpt lat="44.83944" lon="5.40561">
        <ele>1225.22</ele>
        <time>2016-06-01T14:33:58Z</time>
      </trkpt>
      <trkpt lat="44.83948" lon="5.40551">
        <ele>1225.13</ele>
        <time>2016-06-01T14:34:03Z</time>
      </trkpt>
      <trkpt lat="44.83965" lon="5.40519">
        <ele>1225.09</ele>
        <time>2016-06-01T14:35:03Z</time>
      </trkpt>
      <trkpt lat="44.83938" lon="5.40553">
        <ele>1225.11</ele>
        <time>2016-06-01T14:36:21Z</time>
      </trkpt>
      <trkpt lat="44.83936" lon="5.40551">
        <ele>1225.1</ele>
        <time>2016-06-01T14:36:31Z</time>
      </trkpt>
      <trkpt lat="44.83964" lon="5.40552">
        <ele>1225.22</ele>
        <time>2016-06-01T14:40:33Z</time>
      </trkpt>
      <trkpt lat="44.83952" lon="5.40548">
        <ele>1225.31</ele>
        <time>2016-06-01T14:42:35Z</time>
      </trkpt>
      <trkpt lat="44.83954" lon="5.40551">
        <ele>1225.28</ele>
        <time>2016-06-01T14:42:42Z</time>
      </trkpt>
      <trkpt lat="44.83958" lon="5.40544">
        <ele>1225.37</ele>
        <time>2016-06-01T14:43:21Z</time>
      </trkpt>
      <trkpt lat="44.83969" lon="5.40554">
        <ele>1225.11</ele>
        <time>2016-06-01T14:47:10Z</time>
      </trkpt>
      <trkpt lat="44.83968" lon="5.40556">
        <ele>1225.1</ele>
        <time>2016-06-01T14:47:14Z</time>
      </trkpt>
      <trkpt lat="44.83982" lon="5.40568">
        <ele>1224.85</ele>
        <time>2016-06-01T14:50:03Z</time>
      </trkpt>
      <trkpt lat="44.8403" lon="5.40581">
        <ele>1224.78</ele>
        <time>2016-06-01T14:50:31Z</time>
      </trkpt>
      <trkpt lat="44.84032" lon="5.40585">
        <ele>1224.71</ele>
        <time>2016-06-01T14:50:34Z</time>
      </trkpt>
      <trkpt lat="44.84042" lon="5.40595">
        <ele>1224.7</ele>
        <time>2016-06-01T14:50:42Z</time>
      </trkpt>
      <trkpt lat="44.84055" lon="5.40599">
        <ele>1224.9</ele>
        <time>2016-06-01T14:50:54Z</time>
      </trkpt>
      <trkpt lat="44.84002" lon="5.40565">
        <ele>1224.71</ele>
        <time>2016-06-01T14:51:14Z</time>
      </trkpt>
      <trkpt lat="44.8397" lon="5.40555">
        <ele>1224.69</ele>
        <time>2016-06-01T14:56:31Z</time>
      </trkpt>
      <trkpt lat="44.83969" lon="5.40553">
        <ele>1224.49</ele>
        <time>2016-06-01T14:56:45Z</time>
      </trkpt>
      <trkpt lat="44.83956" lon="5.40544">
        <ele>1224.78</ele>
        <time>2016-06-01T14:57:52Z</time>
      </trkpt>
      <trkpt lat="44.83959" lon="5.40548">
        <ele>1224.76</ele>
        <time>2016-06-01T14:58:16Z</time>
      </trkpt>
      <trkpt lat="44.83979" lon="5.40546">
        <ele>1224.52</ele>
        <time>2016-06-01T15:03:24Z</time>
      </trkpt>
      <trkpt lat="44.83979" lon="5.40542">
        <ele>1224.6</ele>
        <time>2016-06-01T15:03:32Z</time>
      </trkpt>
      <trkpt lat="44.83976" lon="5.40534">
        <ele>1224.72</ele>
        <time>2016-06-01T15:04:08Z</time>
      </trkpt>
      <trkpt lat="44.8397" lon="5.40545">
        <ele>1224.47</ele>
        <time>2016-06-01T15:06:15Z</time>
      </trkpt>
      <trkpt lat="44.83945" lon="5.40552">
        <ele>1224.37</ele>
        <time>2016-06-01T15:07:13Z</time>
      </trkpt>
      <trkpt lat="44.83958" lon="5.40553">
        <ele>1224.33</ele>
        <time>2016-06-01T15:08:07Z</time>
      </trkpt>
      <trkpt lat="44.8396" lon="5.40554">
        <ele>1224.29</ele>
        <time>2016-06-01T15:08:09Z</time>
      </trkpt>
      <trkpt lat="44.83952" lon="5.40567">
        <ele>1224.23</ele>
        <time>2016-06-01T15:09:15Z</time>
      </trkpt>
      <trkpt lat="44.83954" lon="5.4056">
        <ele>1224.3</ele>
        <time>2016-06-01T15:09:44Z</time>
      </trkpt>
      <trkpt lat="44.83959" lon="5.40568">
        <ele>1224.61</ele>
        <time>2016-06-01T15:25:34Z</time>
      </trkpt>
      <trkpt lat="44.83949" lon="5.40559">
        <ele>1224.56</ele>
        <time>2016-06-01T15:29:17Z</time>
      </trkpt>
      <trkpt lat="44.83962" lon="5.40557">
        <ele>1224.52</ele>
        <time>2016-06-01T15:29:38Z</time>
      </trkpt>
      <trkpt lat="44.83951" lon="5.40585">
        <ele>1224.46</ele>
        <time>2016-06-01T15:30:50Z</time>
      </trkpt>
      <trkpt lat="44.83941" lon="5.40588">
        <ele>1224.83</ele>
        <time>2016-06-01T15:33:37Z</time>
      </trkpt>
      <trkpt lat="44.83941" lon="5.40584">
        <ele>1224.58</ele>
        <time>2016-06-01T15:34:12Z</time>
      </trkpt>
      <trkpt lat="44.83943" lon="5.40581">
        <ele>1224.56</ele>
        <time>2016-06-01T15:34:15Z</time>
      </trkpt>
      <trkpt lat="44.83946" lon="5.40586">
        <ele>1224.6</ele>
        <time>2016-06-01T15:35:13Z</time>
      </trkpt>
      <trkpt lat="44.83971" lon="5.40569">
        <ele>1224.39</ele>
        <time>2016-06-01T15:35:34Z</time>
      </trkpt>
      <trkpt lat="44.83961" lon="5.40568">
        <ele>1224.47</ele>
        <time>2016-06-01T15:36:47Z</time>
      </trkpt>
      <trkpt lat="44.83962" lon="5.40576">
        <ele>1224.68</ele>
        <time>2016-06-01T15:37:19Z</time>
      </trkpt>
      <trkpt lat="44.83951" lon="5.40563">
        <ele>1224.83</ele>
        <time>2016-06-01T15:38:11Z</time>
      </trkpt>
      <trkpt lat="44.83968" lon="5.40569">
        <ele>1224.6</ele>
        <time>2016-06-01T15:43:27Z</time>
      </trkpt>
      <trkpt lat="44.8396" lon="5.40575">
        <ele>1224.8</ele>
        <time>2016-06-01T15:44:13Z</time>
      </trkpt>
      <trkpt lat="44.83964" lon="5.40569">
        <ele>1224.51</ele>
        <time>2016-06-01T15:47:15Z</time>
      </trkpt>
      <trkpt lat="44.83962" lon="5.40569">
        <ele>1224.54</ele>
        <time>2016-06-01T15:47:17Z</time>
      </trkpt>
      <trkpt lat="44.83956" lon="5.40575">
        <ele>1224.62</ele>
        <time>2016-06-01T15:48:14Z</time>
      </trkpt>
      <trkpt lat="44.83965" lon="5.40575">
        <ele>1224.41</ele>
        <time>2016-06-01T15:48:37Z</time>
      </trkpt>
      <trkpt lat="44.83945" lon="5.40585">
        <ele>1224.96</ele>
        <time>2016-06-01T15:54:20Z</time>
      </trkpt>
      <trkpt lat="44.83944" lon="5.40587">
        <ele>1224.96</ele>
        <time>2016-06-01T15:54:23Z</time>
      </trkpt>
      <trkpt lat="44.83964" lon="5.40559">
        <ele>1224.84</ele>
        <time>2016-06-01T16:08:46Z</time>
      </trkpt>
      <trkpt lat="44.83967" lon="5.4056">
        <ele>1224.86</ele>
        <time>2016-06-01T16:08:48Z</time>
      </trkpt>
      <trkpt lat="44.83967" lon="5.40585">
        <ele>1225.11</ele>
        <time>2016-06-01T16:13:25Z</time>
      </trkpt>
      <trkpt lat="44.83967" lon="5.40582">
        <ele>1225.27</ele>
        <time>2016-06-01T16:13:29Z</time>
      </trkpt>
      <trkpt lat="44.83968" lon="5.4058">
        <ele>1225.41</ele>
        <time>2016-06-01T16:13:35Z</time>
      </trkpt>
      <trkpt lat="44.83974" lon="5.40549">
        <ele>1244.19</ele>
        <time>2016-06-01T16:16:06Z</time>
      </trkpt>
      <trkpt lat="44.83974" lon="5.40549">
        <ele>1244.19</ele>
        <time>2016-06-01T16:16:07Z</time>
      </trkpt>
      <trkpt lat="44.83959" lon="5.40603">
        <ele>1292.19</ele>
        <time>2016-06-01T16:43:38Z</time>
      </trkpt>
      <trkpt lat="44.83959" lon="5.40605">
        <ele>1292.19</ele>
        <time>2016-06-01T16:43:39Z</time>
      </trkpt>
      <trkpt lat="44.83955" lon="5.40573">
        <ele>1291.6</ele>
        <time>2016-06-01T16:50:57Z</time>
      </trkpt>
      <trkpt lat="44.83947" lon="5.4055">
        <ele>1291.39</ele>
        <time>2016-06-01T16:54:26Z</time>
      </trkpt>
      <trkpt lat="44.83957" lon="5.40548">
        <ele>1291.5</ele>
        <time>2016-06-01T16:55:02Z</time>
      </trkpt>
      <trkpt lat="44.83951" lon="5.40563">
        <ele>1291.53</ele>
        <time>2016-06-01T16:55:12Z</time>
      </trkpt>
      <trkpt lat="44.83946" lon="5.40586">
        <ele>1291.19</ele>
        <time>2016-06-01T16:56:18Z</time>
      </trkpt>
      <trkpt lat="44.83951" lon="5.40565">
        <ele>1291.06</ele>
        <time>2016-06-01T16:57:12Z</time>
      </trkpt>
      <trkpt lat="44.83439" lon="5.40996">
        <ele>924</ele>
        <time>2016-06-01T17:09:39Z</time>
      </trkpt>
      <trkpt lat="44.83439" lon="5.40996">
        <ele>924</ele>
        <time>2016-06-01T17:09:40Z</time>
      </trkpt>
      <trkpt lat="44.8382" lon="5.40506">
        <ele>923.99</ele>
        <time>2016-06-01T17:09:53Z</time>
      </trkpt>
      <trkpt lat="44.8384" lon="5.40485">
        <ele>924.09</ele>
        <time>2016-06-01T17:09:56Z</time>
      </trkpt>
      <trkpt lat="44.83888" lon="5.40344">
        <ele>923.78</ele>
        <time>2016-06-01T17:10:43Z</time>
      </trkpt>
      <trkpt lat="44.83891" lon="5.4031">
        <ele>923.71</ele>
        <time>2016-06-01T17:10:58Z</time>
      </trkpt>
      <trkpt lat="44.83891" lon="5.40305">
        <ele>923.79</ele>
        <time>2016-06-01T17:11:30Z</time>
      </trkpt>
    </trkseg>
  </trk>
</gpx>